     2              OBSERVATION DATA    GPS                 RINEX VERSION / TYPE
ASRINEXO V2.9.7 UX USGS/MENLO_PARK 07-MAR-00 16:23          PGM / RUN BY / DATE
                                                            COMMENT
BIT 2 OF LLI (+4) FLAGS DATA COLLECTED UNDER "AS" CONDITION COMMENT
BIT 2 OF LLI (+4) FLAGS DATA COLLECTED UNDER "AS" CONDITION COMMENT
BIT 2 OF LLI (+4) FLAGS DATA COLLECTED UNDER "AS" CONDITION COMMENT
BIT 2 OF LLI (+4) FLAGS DATA COLLECTED UNDER "AS" CONDITION COMMENT
BIT 2 OF LLI (+4) FLAGS DATA COLLECTED UNDER "AS" CONDITION COMMENT
BIT 2 OF LLI (+4) FLAGS DATA COLLECTED UNDER "AS" CONDITION COMMENT
BIT 2 OF LLI (+4) FLAGS DATA COLLECTED UNDER "AS" CONDITION COMMENT
Original Marker Name: brin Brink_2_1967_USC&GS              COMMENT
Campaign Name: So Ca Monit Cajon                            COMMENT
4-Character Station Name: BRIN                              COMMENT
6-Character Antenna Code: DMRCHT                            COMMENT
Vertical Measurement Point: BCR                             COMMENT
Vertical Offset to Rinex Ref. Point: 0.0348                 COMMENT
Radial Measurement Point: ECF                               COMMENT
Radial Offset to Rinex Ref. Point: 0.1897                   COMMENT
Antenna Height from Field Measurement: 1.3400 m             COMMENT
Additional Antenna Identification Info.:                    COMMENT
Turborogue and Ashtech Choke Ring                           COMMENT
Original XYZ: -2414455.4528 -4710219.2617 3548154.0387      COMMENT
New XYZ position is based on association with SCEC monument COMMENT
E1D0R7W7+0011. Position of that monument is believed to be  COMMENT
valid to within 1 m horizontally; vertical accuracy         COMMENT
should be no worse than 3-times this value.                 COMMENT
                                                            COMMENT
Revised Rinex header created by UCSD GPS archive for        COMMENT
GSAC on 08-Jul-2000 (2000:190) 01:40:45 GMT                 COMMENT
For assistance contact dagnew@ucsd.edu                      COMMENT
or anderson@python.ucsd.edu                                 COMMENT
                                                            COMMENT
BRINK 2 1967                                                MARKER NAME
JMS US GEOLOGICAL SURVEY                                    OBSERVER / AGENCY
04600 ASHTECH Z-XII3 CD00                                   REC # / TYPE / VERS
CR6119992801 DORNE-MARGOL. TYPE T                           ANT # / TYPE
 -2414401.0820 -4710205.5048  3548085.7428                  APPROX POSITION XYZ
        1.2917        0.0000        0.0000                  ANTENNA: DELTA H/E/N
     1     1     0                                          WAVELENGTH FACT L1/2
     5    C1    L1    L2    P1    P2                        # / TYPES OF OBSERV
    30                                                      INTERVAL
  2000     3     1    16    46   30.000000                  TIME OF FIRST OBS
  2000     3     1    23    30    0.000000                  TIME OF LAST OBS
                                                            END OF HEADER
 00  3  1 16 46 30.0000000  0  9 19 02 31 27 13 26 08 07 18
  21280333.590      441976.202 9    322474.56847  21280333.072    21280344.3854
  21675236.969      225842.846 9    163772.04047  21675235.976    21675246.3904
  23606161.486                                                    23606154.449
  23606159.1254   20521712.702                    20521709.496    20521711.6194
  21008492.328      394227.723 9    286471.06447  21008492.083    21008501.0584
  24555708.701                                    24555707.787    24555719.7404
  20230699.137      250177.735 9    181495.29748  20230697.929    20230707.4434
  23139359.329      -11370.542 8     -8817.45146  23139359.345    23139375.0474
  23660206.836      677042.137 8    494325.62045  23660206.370    23660224.0704
 00  3  1 16 47  0.0000000  0  9 19 02 31 27 13 26 08 07 18
  21146545.816     -261082.172 9   -225363.22847  21146545.681    21146556.9264
  21528819.094     -543588.828 9   -435785.09047  21528817.969    21528828.4404
  23482412.130     -505513.75754                  23482411.335    23482426.3684
  20378823.927     -464811.55019   -584530.34357  20378823.344    20378833.0964
  20871957.444     -323269.568 9   -272617.78947  20871956.935    20871965.9064
  24396926.419     -826682.545 7   -645119.11155  24396926.879    24396937.7674
  20085738.653     -511594.831 9   -412093.75648  20085737.493    20085747.0054
  22979241.258     -852795.446 8   -664472.97546  22979241.422    22979257.1554
  23539984.389       45269.583 8      2034.96045  23539984.238    23540001.8944
 00  3  1 16 47 30.0000000  0  9 19 02 31 27 13 26 08 07 18
  21154477.729     -219400.157 9   -192883.85547  21154477.519    21154488.8044
  21524104.969     -568360.705 9   -455087.85347  21524104.033    21524114.5654
  23500380.828       64366.08518   -431936.30645  23500379.965    23500392.3784
  20377663.557     -470908.634 9   -589281.36147  20377663.037    20377672.8764
  20877197.980     -295729.009 9   -251157.66747  20877197.757    20877206.7374
  24379853.452     -916404.067 7   -715032.03245  24379852.619    24379864.4044
  20082501.105     -528607.010 9   -425350.03748  20082500.204    20082509.7164
  22960823.103     -949584.890 8   -739893.06946  22960822.823    22960838.6424
  23561436.806      158001.822 8     89877.88645  23561436.656    23561454.3334
 00  3  1 16 48  0.0000000  0 10 19 02 31 27 13 26 10 08 07 18
  21162476.252     -177368.223 9   -160131.80247  21162475.983    21162487.3284
  21519434.117     -592905.730 9   -474213.83047  21519433.296    21519443.8614
  23518407.267      159096.730 8   -358120.38345  23518406.286    23518419.0194
  20376573.652     -476636.265 9   -593744.49948  20376573.192    20376582.9464
  20882553.673     -267584.003 9   -229226.54948  20882553.669    20882562.6304
  24362826.720    -1005879.725 7   -784753.35345  24362826.816    24362837.9734
  24724665.253     -597976.865 7   -490046.26045  24724664.161    24724680.4604
  20079325.192     -545296.055 9   -438354.52448  20079324.393    20079333.9514
  22942445.554    -1046160.314 8   -815146.40746  22942445.095    22942460.8464
  23582909.404      270837.572 8    177801.46645  23582908.871    23582926.5444
 00  3  1 16 48 30.0000000  0 10 19 02 31 27 13 26 10 08 07 18
  21170538.620     -135000.253 9   -127117.90647  21170538.371    21170549.7864
  21514801.870     -617248.095 9   -493181.87647  21514801.093    21514811.6504
  23536491.025      254127.653 8   -284070.46445  23536490.376    23536502.9204
  20375552.316     -482003.532 9   -597926.83148  20375551.879    20375561.6154
  20888021.548     -238850.175 9   -206836.61948  20888021.593    20888030.5744
  24345844.105    -1095122.522 7   -854293.23845  24345844.022    24345855.3624
  24735060.552     -543360.571 7   -447488.29545  24735057.266    24735073.3624
  20076206.087     -561686.853 9   -451126.61348  20076205.342    20076214.9384
  22924107.219    -1142529.203 8   -890238.80746  22924106.601    22924122.3444
  23604402.755      383785.046 8    265812.12145  23604402.281    23604420.0334
 00  3  1 16 49  0.0000000  0 10 19 02 31 27 13 26 10 08 07 18
  21178672.833      -92255.008 9    -93810.01947  21178672.600    21178684.0164
  21510213.219     -641361.603 9   -511971.59047  21510212.460    21510223.0064
  23554638.868      349494.437 8   -209758.84645  23554638.213    23554650.9194
  20374603.659     -486988.876 9   -601811.55548  20374603.246    20374612.9904
  20893604.967     -209509.392 9   -183973.73948  20893605.028    20893614.0244
  24328913.552    -1184091.124 7   -923619.44745  24328913.923    24328925.2454
  24745506.276     -488465.414 7   -404713.02445  24745503.533    24745519.3994
  20073148.811     -577752.924 9   -463645.67148  20073148.109    20073157.7494
  22905813.049    -1238665.076 8   -965149.64046  22905812.437    22905828.1804
  23625926.597      496892.522 8    353947.44145  23625926.171    23625944.0744
 00  3  1 16 49 30.0000000  0 10 19 02 31 27 13 26 10 08 07 18
  21186879.350      -49129.659 9    -60205.95047  21186879.109    21186890.5404
  21505661.803     -665279.285 9   -530608.75547  21505661.091    21505671.6614
  23572850.386      445196.284 8   -135186.16845  23572849.875    23572862.6224
  20373723.507     -491614.442 9   -605415.93348  20373723.085    20373732.8124
  20899297.835     -179593.373 9   -160662.62348  20899297.937    20899306.8944
  24312034.189    -1272794.250 7   -992738.83845  24312034.439    24312045.6324
  24756000.792     -433313.771 7   -361737.91845  24755998.559    24756014.3444
  20070149.146     -593516.375 9   -475928.92548  20070148.485    20070158.1094
  22887561.981    -1334574.466 8  -1039883.99746  22887561.401    22887577.1414
  23647479.570      610151.910 8    442201.13245  23647479.000    23647497.0204
 00  3  1 16 50  0.0000000  0 10 19 02 31 27 13 26 10 08 07 18
  21195153.316       -5650.003 9    -26325.77747  21195153.131    21195164.5574
  21501142.214     -689029.890 9   -549115.71747  21501141.489    21501152.1024
  23591125.604      541232.723 7    -60352.73045  23591125.084    23591137.9574
  20372906.319     -495909.325 9   -608762.62848  20372905.851    20372915.5864
  20905094.505     -149132.031 9   -136926.57547  20905094.634    20905103.5534
  24295205.873    -1361230.234 7  -1061650.05945  24295205.649    24295216.8784
  24766540.750     -377925.731 7   -318578.61045  24766538.611    24766554.4914
  20067204.282     -608991.907 9   -487987.81348  20067203.654    20067213.2704
  22869352.271    -1430266.640 8  -1114449.10046  22869351.618    22869367.3604
  23669057.387      723542.595 8    530557.12345  23669056.803    23669074.8384
 00  3  1 16 50 30.0000000  0 10 19 02 31 27 13 26 10 08 07 18
  21203488.383       38150.888 9      7804.70647  21203488.180    21203499.7004
  21496650.686     -712632.965 9   -567507.75447  21496650.009    21496660.6284
  23609461.084      637585.443 8     14727.10045  23609460.580    23609473.4664
  20372148.450     -499891.765 9   -611865.86748  20372148.026    20372157.7874
  20910992.311     -118139.435 9   -112776.57548  20910992.431    20911001.3254
  24278427.601    -1449400.314 7  -1130354.05945  24278427.404    24278438.6624
  24777124.528     -322307.268 7   -275239.72745  24777122.545    24777138.4474
  20064312.281     -624189.695 9   -499830.27448  20064311.646    20064321.2774
  22851181.082    -1525756.327 8  -1188856.42746  22851180.367    22851196.1124
  23690654.120      837031.917 8    618989.97845  23690653.431    23690671.4264
 00  3  1 16 51  0.0000000  0 10 19 02 31 27 13 26 10 08 07 18
  21211886.031       82279.727 9     42190.74947  21211885.817    21211897.2414
  21492187.835     -736085.699 9   -585782.63047  21492187.098    21492197.7404
  23627852.759      734234.887 8     90038.20545  23627852.248    23627865.5904
  20371447.344     -503576.177 9   -614736.86848  20371446.990    20371456.7434
  20916988.553      -86629.304 9    -88223.29048  20916988.670    20916997.5804
  24261699.433    -1537306.678 7  -1198852.55945  24261699.246    24261710.6274
  24787747.732     -266483.133 7   -231740.60145  24787745.631    24787761.6194
  20061472.749     -639111.583 9   -511457.74748  20061472.182    20061481.8254
  22833047.165    -1621049.751 8  -1263110.82946  22833046.501    22833062.1894
  23712265.423      950597.753 8    707482.45545  23712264.581    23712282.7164
 00  3  1 16 51 30.0000000  0  9 19 02 31 27 13 26 08 07 18
  21220343.780      126725.429 9     76823.67747  21220343.601    21220355.0784
  21487753.910     -759385.870 9   -603938.59647  21487753.268    21487763.9154
  23646297.309      831159.277 8    165563.51445  23646296.729    23646309.8314
  20370802.194     -506967.012 9   -617379.11548  20370801.817    20370811.5704
  20923083.954      -54598.352 9    -63264.17748  20923084.040    20923092.9504
  24245018.192    -1624965.198 7  -1267157.93145  24245018.482    24245029.7624
  20058689.113     -653740.103 9   -522856.61748  20058688.499    20058698.1464
  22814952.748    -1716136.002 8  -1337203.80846  22814952.077    22814967.7074
  23733889.575     1064232.635 8    796028.71045  23733888.850    23733907.0714
 00  3  1 16 52  0.0000000  0  9 19 02 31 27 13 26 08 07 18
  21228858.714      171470.688 9    111690.04247  21228858.497    21228869.9534
  21483351.671     -782519.953 9   -621965.15447  21483351.006    21483361.6654
  23664790.578      928342.066 7    241290.16345  23664790.086    23664803.2804
  20370215.956     -510047.691 9   -619779.67648  20370215.603    20370225.3534
  20929281.277      -22031.401 9    -37887.39847  20929281.400    20929290.3324
  24228385.923    -1712367.420 7  -1335263.59645  24228386.607    24228397.8034
  20055963.277     -668064.650 9   -534018.62648  20055962.686    20055972.3354
  22796898.790    -1811010.028 8  -1411131.44046  22796898.046    22796913.6064
  23755527.433     1177938.964 8    884630.64845  23755526.759    23755545.1684
 00  3  1 16 52 30.0000000  0  9 19 02 31 27 13 26 08 07 18
  21237433.597      216531.829 9    146802.51747  21237433.411    21237444.9044
  21478984.695     -805468.373 9   -639847.02747  21478984.059    21478994.7374
  23683331.511     1025774.932 7    317211.69145  23683331.111    23683344.3844
  20369693.007     -512796.199 9   -621921.41547  20369692.655    20369702.3864
  20935582.941       11083.853 9    -12083.37747  20935583.107    20935592.0204
  24211803.678    -1799508.644 7  -1403165.89745  24211804.186    24211815.4274
  20053295.926     -682081.988 9   -544941.24748  20053295.332    20053304.9964
  22778888.582    -1905653.258 8  -1484879.20446  22778887.904    22778903.3994
  23777179.802     1291721.524 8    973291.95645  23777179.191    23777197.6764
 00  3  1 16 53  0.0000000  0  9 19 02 31 27 13 26 08 07 18
  21246071.486      261923.533 9    182172.59647  21246071.281    21246082.7734
  21474655.449     -828218.774 9   -657574.60247  21474654.836    21474665.4754
  23701919.917     1123458.185 7    393328.33845  23701919.542    23701933.0904
  20369235.860     -515198.855 9   -623793.65448  20369235.522    20369245.2704
  20941991.616       44761.183 9     14158.62947  20941991.781    20942000.7004
  24195271.921    -1886384.029 7  -1470861.04445  24195272.401    24195283.5784
  20050690.848     -695772.139 9   -555608.92248  20050690.256    20050699.9254
  22760924.292    -2000056.924 8  -1558440.31346  22760923.321    22760938.8214
  23798848.018     1405587.015 8   1062017.92345  23798847.301    23798865.9574
 00  3  1 16 53 30.0000000  0  9 19 02 31 27 13 26 08 07 18
  21254771.019      307639.333 9    217795.19447  21254770.828    21254782.3494
  21470365.853     -850761.164 9   -675140.08347  21470365.225    21470375.8484
  23720557.737     1221399.404 7    469645.99245  23720557.260    23720570.9554
  20368848.193     -517236.124 9   -625381.17748  20368847.880    20368857.6354
  20948508.640       79007.704 9     40844.15647  20948508.779    20948517.7054
  24178794.602    -1972973.801 7  -1538333.64545  24178794.939    24178806.0574
  20048152.068     -709113.656 9   -566004.93448  20048151.484    20048161.1414
  22743005.823    -2094218.134 8  -1631812.51546  22743004.886    22743020.3044
  23820533.516     1519542.400 8   1150813.90445  23820532.708    23820551.4284
 00  3  1 16 54  0.0000000  0  9 19 02 31 27 13 26 08 07 18
  21263533.267      353684.351 9    253674.33347  21263533.012    21263544.4704
  21466116.926     -873089.701 9   -692538.93447  21466116.277    21466126.8964
  23739248.306     1319617.918 8    546179.69845  23739247.939    23739261.4954
  20368533.621     -518889.596 9   -626669.63348  20368533.328    20368543.0854
  20955133.742      113822.731 9     67972.67247  20955133.952    20955142.9154
  24162376.433    -2059252.525 7  -1605563.87145  24162376.685    24162387.8464
  20045678.950     -722110.143 9   -576132.07648  20045678.395    20045688.0404
  22725133.160    -2188139.231 8  -1704997.61646  22725132.198    22725147.5614
  23842233.414     1633575.163 7   1239670.19345  23842232.705    23842251.6604
 00  3  1 16 54 30.0000000  0  9 19 02 31 27 13 26 08 07 18
  21272360.640      400071.992 9    289820.42647  21272360.371    21272371.9284
  21461907.050     -895212.774 9   -709777.70647  21461906.411    21461917.0524
  23757994.482     1418127.260 7    622940.03245  23757994.043    23758007.4174
  20368288.805     -520176.691 9   -627672.60548  20368288.497    20368298.2104
  20961866.745      149204.491 9     95542.79547  20961866.941    20961875.9244
  24146017.037    -2145222.291 7  -1672553.33545  24146017.250    24146028.3474
  20043275.699     -734739.673 9   -585973.29248  20043275.129    20043284.7884
  22707306.200    -2281819.132 8  -1777994.78446  22707305.420    22707320.7174
  23863945.258     1747672.955 8   1328577.13545  23863945.043    23863964.1374
 00  3  1 16 55  0.0000000  0  9 19 02 31 27 13 26 08 07 18
  21281251.297      446792.577 9    326225.95247  21281251.086    21281262.7554
  21457736.830     -917127.719 9   -726854.31647  21457736.178    21457746.8224
  23776798.913     1516946.694 8    699942.01445  23776798.724    23776812.0994
  20368112.119     -521105.617 9   -628396.49148  20368111.790    20368121.5214
  20968705.606      185142.373 9    123546.26147  20968705.807    20968714.7894
  24129716.062    -2230885.387 7  -1739303.86045  24129716.165    24129727.3814
  20040945.652     -746984.442 9   -595514.68748  20040945.092    20040954.7444
  22689525.028    -2375259.380 8  -1850805.20446  22689524.200    22689539.5034
  23885668.673     1861830.374 8   1417530.54845  23885668.785    23885688.0684
 00  3  1 16 55 30.0000000  0  9 19 02 31 27 13 26 08 07 18
  21290203.464      493836.226 8    362883.22647  21290203.239    21290215.0834
  21453603.901     -938846.338 9   -743777.92947  21453603.270    21453613.9354
  23795662.843     1616075.654 8    777185.18145  23795662.535    23795675.9964
  20368003.564     -521676.301 9   -628841.22848  20368003.235    20368013.0114
  20975649.350      221631.210 9    151979.04147  20975649.510    20975658.4884
  24113474.618    -2316236.661 7  -1805811.40045  24113474.489    24113485.7144
  20038684.723     -758865.846 9   -604772.95548  20038684.158    20038693.8454
  22671790.120    -2468456.104 8  -1923425.88046  22671789.367    22671804.6274
  23907403.872     1976048.113 8   1506530.93145  23907403.938    23907423.4844
 00  3  1 16 56  0.0000000  0  9 19 02 31 27 13 26 08 07 18
  21299217.516      541205.056 9    399793.87847  21299217.319    21299229.2214
  21449505.194     -960384.703 9   -760561.06847  21449504.627    21449515.3034
  23814585.391     1715513.499 7    854669.04145  23814584.996    23814598.8034
  20367959.643     -521907.133 9   -629021.15348  20367959.335    20367969.1724
  20982699.550      258680.177 9    180848.28847  20982699.749    20982708.7394
  24097287.509    -2401301.044 7  -1872095.39845  24097287.325    24097298.6224
  20036489.270     -770403.470 9   -613763.34648  20036488.697    20036498.3864
  22654103.266    -2561400.854 8  -1995850.19346  22654102.422    22654117.6574
  23929150.633     2090325.485 7   1595577.81745  23929150.572    23929170.1274
 00  3  1 16 56 30.0000000  0  9 19 02 31 27 13 26 08 07 18
  21308293.801      588900.941 9    436959.38447  21308293.585    21308305.5964
  21445440.594     -981744.476 9   -777205.00947  21445440.001    21445450.6694
  23833563.531     1815243.673 8    932380.65445  23833563.197    23833576.9634
  20367979.027     -521805.689 9   -628942.16748  20367978.712    20367988.5414
  20989855.383      296284.039 9    210149.92147  20989855.585    20989864.6114
  24081151.844    -2486094.133 7  -1938168.00545  24081151.736    24081163.1504
  20034356.233     -781612.353 9   -622497.57848  20034355.714    20034365.4034
  22636465.457    -2654087.218 8  -2068073.18446  22636464.712    22636479.9104
  23950910.133     2204670.429 8   1684677.36045  23950910.038    23950929.7224
 00  3  1 16 57  0.0000000  0  9 19 02 31 27 13 26 08 07 18
  21317431.222      636918.209 8    474375.32747  21317431.020    21317443.1034
  21441409.717    -1002927.139 9   -793710.98647  21441409.121    21441419.7814
  23852593.837     1915246.295 8   1010304.56845  23852593.304    23852607.0324
  20368066.216     -521348.050 9   -628585.62748  20368065.871    20368075.6984
  20997112.671      334421.169 9    239867.08747  20997112.891    20997121.9604
  24065069.495    -2570605.776 7  -2004021.28845  24065069.759    24065081.2074
  20032279.357     -792526.830 9   -631002.39448  20032278.802    20032288.5164
  22618877.191    -2746513.480 8  -2140093.49546  22618876.458    22618891.5884
  23972683.399     2319086.195 8   1773832.04245  23972683.076    23972702.8144
 00  3  1 16 57 30.0000000  0  9 19 02 31 27 13 26 08 07 18
  21326630.016      685258.109 9    512042.68247  21326629.831    21326641.9764
  21437409.232    -1023949.787 9   -810092.29947  21437408.621    21437419.2774
  23871668.717     2015485.891 8   1088413.15045  23871668.207    23871682.4474
  20368222.276     -520528.001 9   -627946.68448  20368221.953    20368231.8014
  21004472.674      373097.840 9    270004.67147  21004472.896    21004481.9974
  24049042.463    -2654829.566 8  -2069650.26645  24049042.674    24049053.9524
  20030256.203     -803158.512 9   -639286.86848  20030255.683    20030265.4034
  22601337.948    -2838682.284 8  -2211913.19046  22601337.230    22601352.3174
  23994469.658     2433570.383 8   1863040.06445  23994469.124    23994488.7714
 00  3  1 16 58  0.0000000  0  9 19 02 31 27 13 26 08 07 18
  21335891.212      733925.123 9    549964.92247  21335890.980    21335903.0904
  21433442.787    -1044793.573 9   -826334.22647  21433442.197    21433452.8714
  23890787.905     2115955.595 8   1166701.03345  23890787.422    23890801.3744
  20368448.384     -519339.823 9   -627020.88248  20368448.087    20368457.9774
  21011932.742      412300.549 9    300552.14447  21011932.991    21011942.1154
  24033070.092    -2738766.479 8  -2135055.70145  24033070.082    24033081.4934
  20028290.619     -813487.819 9   -647335.71448  20028290.123    20028299.8474
  22583847.072    -2930597.245 8  -2283535.07846  22583846.289    22583861.3674
  24016267.241     2548116.646 8   1952296.44745  24016266.923    24016286.5874
 00  3  1 16 58 30.0000000  0 10 19 02 31 27 13 26 11 08 07 18
  21345214.385      782918.578 9    588141.52947  21345214.215    21345226.4004
  21429513.003    -1065444.962 9   -842426.25247  21429512.437    21429523.0864
  23909948.501     2216644.667 8   1245159.88745  23909947.997    23909962.0104
  20368748.738     -517761.729 9   -625791.25548  20368748.449    20368758.3624
  21019489.618      452011.879 9    331495.95047  21019489.870    21019499.0154
  24017156.324    -2822394.292 8  -2200220.29945  24017156.278    24017167.6654
  24272182.768     -616957.68644                  24272180.269    24272201.4894
  20026385.255     -823500.698 9   -655138.00748  20026384.762    20026394.4774
  22566404.808    -3022256.017 8  -2354957.34746  22566404.054    22566419.1254
  24038075.697     2662719.316 7   2041596.78045  24038075.566    24038095.1444
 00  3  1 16 59  0.0000000  0 10 19 02 31 27 13 26 11 08 07 18
  21354599.530      832237.123 9    626571.45847  21354599.378    21354611.5064
  21425618.740    -1085909.728 9   -858372.83447  21425618.173    21425628.8064
  23929151.647     2317557.153 8   1323792.75845  23929151.123    23929165.4004
  20369124.775     -515785.671 9   -624251.52648  20369124.498    20369134.4494
  21027145.928      492245.570 9    362846.79147  21027146.169    21027155.3334
  24001302.750    -2905704.183 7  -2265137.12645  24001302.984    24001314.3404
  24263583.146     -835884.67017   -652165.66644  24263584.200    24263604.2564
  20024546.187     -833165.534 9   -662669.08448  20024545.675    20024555.4004
  22549011.783    -3113655.981 8  -2426177.94746  22549011.084    22549026.1394
  24059895.132     2777380.907 8   2130943.04145  24059895.191    24059914.9174
 00  3  1 16 59 30.0000000  0 10 19 02 31 27 13 26 11 08 07 18
  21364047.975      881888.271 8    665260.55347  21364047.807    21364059.9104
  21421761.473    -1106179.925 9   -874167.80647  21421760.894    21421771.5304
  23948401.050     2418713.363 8   1402615.56245  23948400.517    23948415.1434
  20369575.472     -513417.377 9   -622406.15448  20369575.207    20369585.2354
  21034907.479      533032.412 9    394628.66247  21034907.696    21034916.9024
  23985509.665    -2988695.876 7  -2329806.01945  23985510.266    23985521.5274
  24255053.147     -880713.716 7   -687097.14045  24255053.146    24255072.7754
  20022778.712     -842453.796 9   -669906.72548  20022778.199    20022787.9294
  22531669.144    -3204790.796 8  -2497191.93446  22531668.580    22531683.6154
  24081727.998     2892111.915 8   2220343.36645  24081727.996    24081747.8304
 00  3  1 17  0  0.0000000  0 10 19 02 31 27 13 26 11 08 07 18
  21373560.060      931874.375 8    704210.63647  21373559.952    21373572.0984
  21417942.051    -1126251.107 9   -889807.70647  21417941.488    21417952.1064
  23967700.576     2520132.938 8   1481643.60045  23967700.186    23967714.3684
  20370098.688     -510668.067 9   -620263.88048  20370098.434    20370108.5004
  21042773.355      574367.383 9    426837.63747  21042773.551    21042782.7804
  23969777.511    -3071370.334 8  -2394227.69245  23969777.878    23969789.1894
  24246589.245     -925192.000 7   -721755.35545  24246588.826    24246608.6144
  20021083.271     -851363.618 9   -676849.48548  20021082.783    20021092.4974
  22514378.033    -3295656.070 8  -2567995.89346  22514377.401    22514392.4294
  24103574.320     3006912.094 8   2309797.62145  24103574.162    24103593.9274
 00  3  1 17  0 30.0000000  0 10 19 02 31 27 13 26 11 08 07 18
  21383133.298      982181.203 9    743410.64647  21383133.155    21383145.2374
  21414154.218    -1146156.330 9   -905318.28947  21414153.660    21414164.2614
  23987048.457     2621804.671 8   1560868.09745  23987047.901    23987062.0184
  20370690.214     -507559.826 9   -617841.92648  20370689.975    20370700.0284
  21050743.328      616249.512 9    459472.96547  21050743.563    21050752.7964
  23954104.775    -3153733.033 8  -2458406.45545  23954104.758    23954116.2094
  24238187.725     -969342.688 7   -756158.33145  24238187.442    24238206.8924
  20019456.448     -859912.820 9   -683511.24048  20019455.979    20019465.7144
  22497139.034    -3386246.902 8  -2638586.00446  22497138.395    22497153.4354
  24125430.082     3121762.524 8   2399291.01645  24125429.861    24125449.4964
 00  3  1 17  1  0.0000000  0 10 19 02 31 27 13 26 11 08 07 18
  21392767.123     1032806.652 9    782858.92347  21392766.995    21392779.0644
  21410394.301    -1165915.078 9   -920714.71847  21410393.743    21410404.3404
  24006444.015     2723727.360 7   1640288.17345  24006443.415    24006457.5124
  20371347.762     -504104.947 9   -615149.85048  20371347.509    20371357.5294
  21058818.448      658684.000 9    492538.70347  21058818.673    21058827.9354
  23938490.612    -3235785.453 7  -2522343.42845  23938490.708    23938502.2034
  24229843.187    -1013193.676 7   -790327.73544  24229842.490    24229862.2124
  20017896.984     -868108.095 9   -689897.21248  20017896.518    20017906.2684
  22479951.680    -3476566.490 8  -2708964.76646  22479951.054    22479966.0554
  24147295.046     3236660.385 8   2488821.34645  24147294.664    24147314.3384
 00  3  1 17  1 30.0000000  0 10 19 02 31 27 13 26 11 08 07 18
  21402463.198     1083759.083 8    822562.00047  21402463.053    21402475.0264
  21406662.972    -1185523.627 9   -935994.12148  21406662.446    21406673.0444
  24025887.713     2825904.389 7   1719906.42445  24025887.095    24025901.4974
  20372070.867     -500305.203 9   -612189.04448  20372070.629    20372080.6744
  21066998.141      701668.115 9    526032.71647  21066998.360    21067007.6684
  23922937.445    -3317517.351 8  -2586030.65145  23922937.725    23922949.2254
  24221551.126    -1056769.177 7   -824282.48644  24221550.379    24221569.9134
  20016402.384     -875962.723 9   -696017.74248  20016401.893    20016411.6494
  22462817.112    -3566608.462 8  -2779127.20946  22462816.556    22462831.4994
  24169165.761     3351588.813 8   2578375.52245  24169165.284    24169185.0424
 00  3  1 17  2  0.0000000  0 10 19 02 31 27 13 26 11 08 07 18
  21412222.627     1135044.670 9    862524.68147  21412222.476    21412234.4954
  21402962.421    -1204970.685 9   -951147.70448  21402961.868    21402972.4704
  24045377.811     2928325.805 7   1799715.08145  24045377.241    24045391.5404
  20372860.198     -496157.197 9   -608956.87548  20372859.992    20372870.0844
  21075279.110      745184.606 9    559941.57347  21075279.347    21075288.6924
  23907446.633    -3398921.508 7  -2649462.48945  23907447.019    23907458.6014
  24213308.529    -1100083.735 7   -858033.91745  24213307.927    24213327.3254
  20014972.525     -883476.821 9   -701872.93448  20014972.033    20014981.7994
  22445736.797    -3656366.163 8  -2849068.13246  22445736.140    22445750.9994
  24191040.868     3466541.711 8   2667948.76845  24191040.570    24191060.3734
 00  3  1 17  2 30.0000000  0 10 19 02 31 27 13 26 11 08 07 18
  21422045.332     1186662.610 9    902746.30947  21422045.157    21422057.0964
  21399293.181    -1224253.004 9   -966172.94848  21399292.628    21399303.2204
  24064913.922     3030988.272 7   1879711.57745  24064913.426    24064927.7724
  20373718.737     -491645.916 9   -605441.63748  20373718.518    20373728.6594
  21083660.385      789228.380 9    594261.30147  21083660.665    21083670.0514
  23892018.971    -3479994.396 8  -2712636.19345  23892019.399    23892031.0474
  24205116.649    -1143131.795 7   -891577.64645  24205116.087    24205135.6564
  20013605.960     -890658.345 9   -707468.97548  20013605.489    20013615.2494
  22428709.930    -3745842.274 8  -2918789.65046  22428709.407    22428724.1614
  24212918.845     3581510.496 8   2757534.38245  24212918.784    24212938.6664
 00  3  1 17  3  0.0000000  0 10 19 02 31 27 13 26 11 08 07 18
  21431932.924     1238621.802 8    943233.86047  21431932.781    21431944.7364
  21395657.726    -1243357.745 9   -981059.75048  21395657.175    21395667.7484
  24084498.263     3133902.127 7   1959904.00145  24084497.818    24084512.1424
  20374646.994     -486768.279 9   -601640.92748  20374646.795    20374656.9554
  21092142.293      833800.618 9    628992.82447  21092142.593    21092152.0074
  23876654.258    -3560739.490 8  -2775554.47345  23876654.296    23876665.7894
  24196975.682    -1185912.981 7   -924913.46445  24196975.222    24196994.3874
  20012302.740     -897507.467 9   -712805.99848  20012302.231    20012311.9734
  22411732.530    -3835058.983 8  -2988309.03046  22411732.001    22411746.6844
  24234801.756     3696503.737 8   2847139.03545  24234801.575    24234821.6804
 00  3  1 17  3 30.0000000  0 10 19 02 31 27 13 26 11 08 07 18
  21441884.454     1290917.227 8    983983.37747  21441884.342    21441896.4394
  21392059.796    -1262265.177 9   -995792.83348  21392059.235    21392069.8284
  24104128.146     3237057.343 7   2040284.44945  24104127.729    24104142.3114
  20375645.019     -481523.952 9   -597554.49748  20375644.814    20375654.9564
  21100722.911      878891.453 9    664128.45347  21100723.193    21100732.6274
  23861351.366    -3641158.528 8  -2838218.68345  23861351.190    23861362.4904
  24188889.550    -1228405.400 7   -958024.23245  24188889.221    24188908.3214
  20011062.907     -904023.020 9   -717883.10048  20011062.400    20011072.1844
  22394804.014    -3924017.950 8  -3057627.58446  22394803.600    22394818.2334
  24256688.607     3811517.615 7   2936759.77745  24256688.284    24256708.5624
 00  3  1 17  4  0.0000000  0 10 19 02 31 27 13 26 11 08 07 18
  21451898.702     1343541.647 8   1024989.28247  21451898.589    21451910.7454
  21388500.160    -1280971.329 9  -1010369.05848  21388499.600    21388510.1844
  24123802.556     3340446.016 7   2120846.82045  24123802.229    24123816.6184
  20376712.108     -475916.679 9   -593185.24948  20376711.906    20376722.0104
  21109401.716      924498.516 9    699666.33147  21109402.025    21109411.4734
  23846109.553    -3721254.951 7  -2900631.50745  23846109.322    23846120.7184
  24180862.598    -1270586.829 7   -990892.71645  24180862.277    24180881.2994
  20009888.028     -910197.203 9   -722694.19648  20009887.563    20009897.3624
  22377925.758    -4012714.142 8  -3126741.37646  22377925.255    22377939.8224
  24278581.618     3926565.002 7   3026406.63845  24278581.358    24278601.6344
 00  3  1 17  4 30.0000000  0 10 19 02 31 27 13 26 11 08 07 18
  21461974.167     1396488.012 8   1066246.02447  21461974.064    21461986.2284
  21384974.289    -1299499.994 9  -1024806.96848  21384973.741    21384984.3444
  24143519.809     3444059.641 7   2201584.47145  24143519.349    24143533.7914
  20377847.390     -469951.173 9   -588536.86048  20377847.170    20377857.2334
  21118182.359      970640.622 9    735621.12847  21118182.666    21118192.1374
  23830928.358    -3801032.166 7  -2962795.57345  23830928.282    23830939.7804
  24172896.386    -1312448.836 8  -1023512.37345  24172895.943    24172914.9924
  20008778.026     -916030.532 9   -727239.68848  20008777.571    20008787.3474
  22361099.236    -4101138.332 8  -3195643.21546  22361098.614    22361113.1724
  24300479.458     4041637.479 8   3116073.04845  24300479.218    24300499.6694
 00  3  1 17  5  0.0000000  0 10 19 02 31 27 13 26 11 08 07 18
  21472111.868     1449761.028 8   1107757.31147  21472111.756    21472123.8914
  21381481.100    -1317856.869 9  -1039111.03548  21381480.559    21381491.1924
  24163276.487     3547880.661 7   2282483.72345  24163276.022    24163290.5194
  20379050.409     -463629.537 9   -583610.98348  20379050.197    20379060.2824
  21127066.189     1017325.193 9    771998.62347  21127066.536    21127076.0494
  23815806.837    -3880496.733 7  -3024716.03345  23815806.740    23815818.3454
  24164991.295    -1353989.995 7  -1055881.98145  24164990.856    24165009.6644
  20007735.935     -921507.370 9   -731507.40248  20007735.443    20007745.2174
  22344327.624    -4189273.862 8  -3264320.13246  22344326.835    22344341.3954
  24322382.391     4156733.981 8   3205758.15545  24322381.694    24322402.1354
 00  3  1 17  5 30.0000000  0 10 19 02 31 27 13 26 11 08 07 18
  21482310.746     1503355.656 9   1149519.20547  21482310.606    21482322.8124
  21378019.644    -1336046.917 9  -1053285.11248  21378019.115    21378029.7374
  24183069.437     3651891.501 7   2363530.90145  24183068.859    24183083.4224
  20380321.373     -456950.820 9   -578406.86048  20380321.147    20380331.2574
  21136054.080     1064556.492 9    808802.13247  21136054.424    21136063.9574
  23800746.576    -3959637.333 8  -3086384.04645  23800746.686    23800758.3824
  24157150.045    -1395194.498 7  -1087989.23645  24157149.624    24157168.4704
  20006761.763     -926626.890 9   -735496.66948  20006761.267    20006771.0444
  22327615.961    -4277093.270 8  -3332750.73246  22327615.264    22327629.8574
  24344288.125     4271844.736 8   3295454.36645  24344286.950    24344307.4154
 00  3  1 17  6  0.0000000  0 10 19 02 31 27 13 26 11 08 07 18
  21492572.768     1557282.376 8   1191539.87547  21492572.651    21492584.8534
  21374586.539    -1354088.033 9  -1067343.13448  21374586.022    21374596.6554
  24202899.627     3756099.146 7   2444731.43645  24202899.231    24202913.8314
  20381661.076     -449910.695 9   -572921.11248  20381660.880    20381671.0234
  21145145.793     1112333.606 9    846030.94947  21145146.190    21145155.7394
  23785749.812    -4038446.289 8  -3147793.64045  23785749.828    23785761.6324
  24149371.801    -1436067.768 7  -1119838.38345  24149371.358    24149390.5124
  20005855.745     -931388.140 9   -739206.76248  20005855.225    20005865.0124
  22310965.482    -4364591.402 8  -3400930.98046  22310964.820    22310979.4214
  24366194.889     4386964.979 7   3385157.99945  24366193.805    24366214.5454
 00  3  1 17  6 30.0000000  0 10 19 02 31 27 13 26 11 08 07 18
  21502899.749     1611549.711 8   1233825.97347  21502899.572    21502911.7384
  21371182.780    -1371975.136 9  -1081281.13848  21371182.258    21371192.8954
  24222767.452     3860505.529 7   2526086.81445  24222767.167    24222782.0794
  20383072.785     -442492.588 9   -567140.83348  20383072.572    20383082.7094
  21154338.286     1160639.890 9    883672.10047  21154338.646    21154348.2204
  23770817.465    -4116915.186 7  -3208938.24645  23770817.766    23770829.3984
  24141655.034    -1476619.114 8  -1151436.71545  24141654.690    24141673.6744
  20005017.363     -935793.661 9   -742639.67748  20005016.925    20005026.7134
  22294374.510    -4451776.745 8  -3468867.49946  22294373.956    22294388.5524
  24388102.060     4502088.569 7   3474864.23845  24388101.388    24388122.3024
 00  3  1 17  7  0.0000000  0 10 19 02 31 27 13 26 11 08 07 18
  21513291.879     1666160.073 8   1276379.35347  21513291.688    21513303.9144
  21367812.943    -1389683.874 9  -1095080.15148  21367812.421    21367823.0494
  24242674.643     3965116.466 8   2607601.56945  24242674.304    24242689.0074
  20384559.089     -434682.471 9   -561055.09648  20384558.873    20384568.9864
  21163627.195     1209452.879 9    921708.09147  21163627.555    21163637.1634
  23755953.164    -4195027.102 8  -3269804.71045  23755953.545    23755965.1714
  24133999.466    -1516849.277 8  -1182784.77945  24133999.170    24134018.0134
  20004245.833     -939848.660 9   -745799.45948  20004245.379    20004255.1274
  22277840.725    -4538662.042 8  -3536570.22847  22277840.152    22277854.7454
  24410010.302     4617217.012 8   3564574.23445  24410009.990    24410031.0984
 00  3  1 17  7 30.0000000  0 10 19 02 31 27 13 26 11 08 07 18
  21523746.752     1721100.562 8   1319189.97047  21523746.600    21523758.8734
  21364477.306    -1407212.783 9  -1108739.02548  21364476.770    21364487.4034
  24262621.642     4069935.441 8   2689278.45045  24262621.187    24262635.5754
  20386119.426     -426483.149 9   -554666.09148  20386119.203    20386129.3434
  21173008.201     1258750.265 9    960121.53247  21173008.611    21173018.2434
  23741159.578    -4272770.372 8  -3330383.90445  23741159.557    23741171.1654
  24126405.894    -1556754.009 7  -1213879.23545  24126405.597    24126424.4604
  20003539.532     -943560.615 9   -748691.93448  20003539.068    20003548.8074
  22261361.286    -4625261.989 8  -3604050.59847  22261360.631    22261375.1994
  24431919.510     4732348.500 7   3654286.58945  24431919.173    24431940.3354
 00  3  1 17  8  0.0000000  0 10 19 02 31 27 13 26 11 08 07 18
  21534265.045     1776373.533 8   1362259.68447  21534264.848    21534277.1584
  21361175.115    -1424566.021 9  -1122261.01348  21361174.586    21361185.2164
  24282607.046     4174959.212 7   2771114.93745  24282606.541    24282621.1874
  20387755.961     -417883.433 9   -547965.09548  20387755.740    20387765.9054
  21182477.077     1308508.776 9    998894.29247  21182477.436    21182487.0804
  23726434.541    -4350151.632 8  -3390681.01345  23726434.471    23726446.0564
  24118874.416    -1596331.751 7  -1244718.85445  24118874.081    24118892.7674
  20002900.054     -946921.155 9   -751310.57648  20002899.601    20002909.3584
  22244934.974    -4711582.291 8  -3671313.07147  22244934.382    22244948.8754
  24453828.857     4847479.837 7   3743998.82045  24453828.146    24453849.7244
 00  3  1 17  8 30.0000000  0 10 19 02 31 27 13 26 11 08 07 18
  21544844.531     1831969.011 8   1405580.69247  21544844.385    21544856.8144
  21357907.326    -1441738.379 9  -1135642.05948  21357906.789    21357917.4134
  24302627.987     4280170.398 7   2853097.46245  24302627.581    24302642.5864
  20389470.081     -408875.971 9   -540946.37748  20389469.874    20389480.0344
  21192036.220     1358741.874 9   1038036.85747  21192036.588    21192046.2584
  23711776.608    -4427179.575 8  -3450702.82045  23711776.549    23711788.1304
  24111407.100    -1635572.813 8  -1275296.17745  24111406.651    24111425.1794
  20002326.568     -949934.949 9   -753659.03648  20002326.108    20002335.9054
  22228564.052    -4797612.315 8  -3738349.34947  22228563.386    22228577.8104
  24475738.139     4962612.611 7   3833712.19545  24475737.658    24475759.2074
 00  3  1 17  9  0.0000000  0 10 19 02 31 27 13 26 11 08 07 18
  21555485.679     1887888.376 8   1449154.07647  21555485.548    21555498.1374
  21354673.279    -1458733.472 9  -1148884.97648  21354672.778    21354683.3904
  24322684.205     4385565.750 8   2935223.48245  24322683.776    24322698.8384
  20391262.504     -399457.306 9   -533607.23548  20391262.273    20391272.4104
  21201688.997     1409467.231 9   1077562.99647  21201689.386    21201699.0874
  23697186.463    -4503850.224 8  -3510446.20545  23697186.569    23697198.0924
  24104007.025    -1674459.559 8  -1305597.43245  24104006.574    24104024.9824
  20001821.321     -952590.279 9   -755728.16948  20001820.857    20001830.6754
  22212250.847    -4883338.794 8  -3805149.10747  22212250.149    22212264.4604
  24497648.926     5077757.137 7   3923434.71645  24497649.398    24497671.1234
 00  3  1 17  9 30.0000000  0 10 19 02 31 27 13 26 11 08 07 18
  21566188.896     1944133.768 8   1492981.50947  21566188.778    21566201.4004
  21351469.828    -1475568.023 9  -1162002.77948  21351469.296    21351479.9044
  24342772.905     4491130.616 8   3017481.56945  24342772.388    24342787.3154
  20393132.978     -389628.124 9   -525948.21148  20393132.758    20393142.8944
  21211437.008     1460692.701 9   1117478.83747  21211437.347    21211447.0804
  23682662.603    -4580173.664 8  -3569919.03845  23682662.764    23682674.3154
  24096676.420    -1712980.890 7  -1335613.94945  24096676.029    24096694.3324
  20001387.899     -954868.031 9   -757503.09148  20001387.457    20001397.2744
  22195996.484    -4968755.452 8  -3871707.45047  22195995.862    22196010.0934
  24519561.725     5192907.857 7   4013162.05245  24519562.309    24519584.2724
 00  3  1 17 10  0.0000000  0 10 19 02 31 27 13 26 11 08 07 18
  21576954.947     2000709.571 8   1537066.40347  21576954.885    21576967.5274
  21348297.256    -1492239.689 9  -1174993.66448  21348296.722    21348307.3494
  24362893.667     4596864.273 7   3099871.19145  24362893.190    24362908.0014
  20395083.659     -379377.451 9   -517960.75148  20395083.457    20395093.6204
  21221285.124     1512444.080 9   1157804.47547  21221285.390    21221295.1634
  23668205.471    -4656145.943 8  -3629118.23445  23668205.832    23668217.3614
  24089416.318    -1751132.330 8  -1365342.19845  24089416.045    24089434.3104
  20001028.382     -956757.435 9   -758975.40248  20001027.956    20001037.7914
  22179802.798    -5053853.599 8  -3938017.59747  22179802.222    22179816.3704
  24541476.411     5308062.879 8   4102892.75245  24541476.228    24541497.9594
 00  3  1 17 10 30.0000000  0 10 19 02 31 27 13 26 11 08 07 18
  21587782.801     2057610.117 8   1581404.36247  21587782.759    21587795.4434
  21345159.134    -1508730.468 9  -1187843.61548  21345158.634    21345169.2714
  24383049.016     4702781.727 7   3182404.07745  24383048.606    24383063.8014
  20397114.039     -368708.111 9   -509647.05548  20397113.832    20397123.9964
  21231237.471     1564743.843 9   1198557.42547  21231237.770    21231247.5634
  23653817.330    -4731756.809 8  -3688035.80345  23653817.623    23653829.1254
  24082226.896    -1788912.516 8  -1394781.18145  24082226.661    24082244.9434
  20000742.874     -958258.111 9   -760144.81448  20000742.454    20000752.2754
  22163670.584    -5138628.679 8  -4004075.99947  22163670.001    22163684.1114
  24563391.297     5423221.281 8   4192626.04745  24563390.487    24563412.6914
 00  3  1 17 11  0.0000000  0 10 19 02 31 27 13 26 11 08 07 18
  21598673.659     2114840.913 8   1625999.63547  21598673.569    21598686.2174
  21342056.385    -1525035.628 9  -1200548.94848  21342055.892    21342066.5004
  24403242.308     4808896.609 8   3265090.77845  24403241.817    24403256.9754
  20399221.497     -357633.850 9   -501017.82948  20399221.253    20399231.4644
  21241292.925     1617585.019 9   1239732.25947  21241293.218    21241303.0474
  23639499.943    -4806996.019 8  -3746663.79145  23639500.134    23639511.6424
  24075108.808    -1826318.183 8  -1423928.37445  24075108.579    24075126.8904
  20000533.281     -959359.725 9   -761003.26048  20000532.869    20000542.7124
  22147599.709    -5223081.887 8  -4069883.59447  22147599.056    22147613.1104
  24585304.120     5538370.757 7   4282352.43645  24585303.088    24585325.3844
 00  3  1 17 11 30.0000000  0 10 19 02 31 27 13 26 11 08 07 18
  21609625.534     2172393.138 8   1670845.37447  21609625.457    21609638.2034
  21338989.343    -1541153.165 9  -1213108.07748  21338988.835    21338999.4424
  24423474.774     4915216.804 7   3347937.48545  24423474.240    24423489.2014
  20401403.792     -346166.020 9   -492081.92148  20401403.552    20401413.8414
  21251451.584     1670968.647 9   1281329.77947  21251451.876    21251461.7364
  23625253.935    -4881858.077 8  -3804997.87445  23625254.407    23625265.8754
  24068061.363    -1863352.557 8  -1452786.23145  24068061.188    24068079.2534
  20000398.265     -960069.573 9   -761556.43648  20000397.862    20000407.7164
  22131591.284    -5307205.592 8  -4135434.44347  22131590.789    22131604.7974
  24607211.858     5653497.087 7   4372060.77145  24607211.381    24607233.6294
 00  3  1 17 12  0.0000000  0 10 19 02 31 27 13 26 11 08 07 18
  21620638.213     2230264.489 8   1715939.78347  21620638.143    21620650.9844
  21335957.334    -1557086.519 9  -1225523.69848  21335956.814    21335967.4164
  24443748.270     5021754.932 7   3430953.98745  24443747.836    24443762.7614
  20403657.789     -334321.237 9   -482852.28948  20403657.582    20403667.9254
  21261710.397     1724879.036 9   1323337.75447  21261710.774    21261720.6544
  23611079.976    -4956342.747 8  -3863037.89045  23611080.459    23611092.0144
  24061083.224    -1900022.546 7  -1481360.09045  24061083.079    24061101.1234
  20000332.520     -960415.617 9   -761826.13148  20000332.068    20000341.9634
  22115644.928    -5391003.395 8  -4200731.33347  22115644.448    22115658.4944
  24629117.093     5768612.555 7   4461760.66945  24629117.276    24629139.7294
 00  3  1 17 12 30.0000000  0 10 19 02 31 27 13 26 11 08 07 18
  21631711.818     2288455.806 8   1761283.51647  21631711.727    21631724.5404
  21332958.860    -1572843.468 9  -1237801.84348  21332958.360    21332968.9764
  24464060.846     5128498.077 7   3514130.28245  24464060.454    24464075.5854
  20405979.624     -322120.139 9   -473344.99848  20405979.434    20405989.7744
  21272062.991     1779281.688 9   1365729.31147  21272063.367    21272073.2884
  23596975.308    -5030463.972 8  -3920794.71345  23596975.673    23596987.2614
  24054173.278    -1936333.762 8  -1509654.41145  24054173.142    24054191.2724
  20000333.090     -960412.769 9   -761823.95848  20000332.658    20000342.5834
  22099756.999    -5474493.820 8  -4265788.71147  22099756.627    22099770.6924
  24651019.802     5883712.704 7   4551448.60345  24651020.283    24651043.0464
 00  3  1 17 13  0.0000000  0 10 19 02 31 27 13 26 11 08 07 18
  21642847.273     2346972.201 8   1806880.54847  21642847.178    21642859.9154
  21329989.025    -1588449.808 9  -1249962.63348  21329988.546    21329999.1854
  24484407.510     5235419.573 8   3597445.53445  24484407.177    24484422.2704
  20408370.322     -309557.303 9   -463555.83048  20408370.149    20408380.5074
  21282504.263     1834150.147 9   1408483.82947  21282504.588    21282514.5084
  23582939.685    -5104222.713 8  -3978269.07845  23582939.891    23582951.4944
  24047329.553    -1972297.217 8  -1537677.75345  24047329.361    24047347.5324
  20000398.455     -960069.846 9   -761556.79548  20000398.002    20000407.9154
  22083924.860    -5557691.995 8  -4330618.35747  22083924.447    22083938.5604
  24672922.740     5998808.856 7   4641133.41945  24672922.810    24672945.6504
 00  3  1 17 13 30.0000000  0 10 19 02 31 27 13 26 11 08 07 18
  21654044.617     2405813.822 8   1852731.01247  21654044.537    21654057.2774
  21327044.272    -1603924.682 9  -1262020.99948  21327043.785    21327054.4484
  24504785.218     5342503.145 7   3680887.09345  24504784.810    24504800.0604
  20410832.933     -296616.296 9   -453472.00048  20410832.754    20410843.1554
  21293031.690     1889471.396 9   1451591.17447  21293031.980    21293041.8884
  23568973.917    -5177614.075 8  -4035457.18845  23568973.979    23568985.5364
  24040550.001    -2007923.228 8  -1565438.19445  24040549.864    24040567.8294
  20000528.799     -959385.118 9   -761023.29748  20000528.362    20000538.2764
  22068146.749    -5640605.922 8  -4395226.50447  22068146.320    22068160.4944
  24694827.488     6113913.772 8   4730825.05645  24694827.146    24694849.8014
 00  3  1 17 14  0.0000000  0 10 19 02 31 27 13 26 11 08 07 18
  21665304.456     2464984.040 8   1898837.52247  21665304.442    21665317.2504
  21324125.164    -1619264.700 9  -1273974.29948  21324124.716    21324135.3854
  24525191.232     5449737.222 7   3764445.91445  24525190.793    24525206.0904
  20413370.828     -283279.961 9   -443080.11247  20413370.648    20413381.0864
  21303643.770     1945237.858 9   1495045.43547  21303644.094    21303654.0094
  23555076.708    -5250643.012 8  -4092362.87945  23555077.069    23555088.5534
  24033835.878    -2043205.612 8  -1592930.88145  24033835.781    24033853.7154
  20000725.086     -958353.588 9   -760219.57448  20000724.676    20000734.6114
  22052422.898    -5723234.454 8  -4459612.26547  22052422.486    22052436.7214
  24716733.406     6229026.937 7   4820523.12545  24716732.791    24716755.6114
 00  3  1 17 14 30.0000000  0  9 19 02 27 13 26 11 08 07 18
  21676627.953     2524488.607 8   1945204.56247  21676627.903    21676640.7594
  21321234.750    -1634454.194 9  -1285810.31348  21321234.297    21321244.9574
  20415988.775     -269522.715 9   -432360.25047  20415988.625    20415999.0494
  21314343.874     2001466.569 9   1538859.88547  21314344.156    21314354.0924
  23541251.139    -5323295.662 8  -4148975.36345  23541251.701    23541263.2584
  24027188.086    -2078140.501 8  -1620152.79245  24027187.924    24027205.6954
  20000992.121     -956950.684 9   -759126.45148  20000991.711    20001001.6394
  22036760.190    -5805541.681 8  -4523747.66347  22036759.889    22036774.1254
  24738637.464     6344130.254 7   4910213.53845  24738636.528    24738659.4934
 00  3  1 17 15  0.0000000  0  9 19 02 27 13 26 11 08 07 18
  21688012.611     2584315.165 8   1991822.51747  21688012.621    21688025.4694
  21318369.686    -1649510.395 9  -1297542.45248  21318369.240    21318379.9174
  20418686.170     -255348.188 9   -421315.24047  20418685.998    20418696.4494
  21325132.525     2058160.739 9   1583037.03247  21325132.837    21325142.7914
  23527497.519    -5395572.520 8  -4205295.01645  23527497.892    23527509.4564
  24020603.688    -2112741.620 7  -1647114.57945  24020603.503    24020621.2404
  20001328.940     -955180.741 9   -757747.32648  20001328.528    20001338.4674
  22021160.231    -5887519.334 8  -4587626.24647  22021159.968    22021174.1944
  24760533.920     6459194.778 7   4999873.71345  24760533.048    24760556.2894
 00  3  1 17 15 30.0000000  0  8 19 02 27 13 26 11 08 07
  21699468.261     2644513.828 8   2038730.40847  21699468.201    21699481.0764
  21315541.501    -1664372.732 9  -1309123.52548  21315541.048    21315551.7344
  20421469.872     -240720.315 9   -409916.96047  20421469.691    20421480.1144
  21336021.981     2115384.697 9   1627627.00447  21336022.319    21336032.3004
  23513823.890    -5467428.984 8  -4261287.09845  23513824.088    23513835.7374
  24014094.276    -2146948.446 7  -1673769.14845  24014094.059    24014111.7384
  20001745.380     -952992.306 9   -756042.11048  20001745.000    20001754.9764
  22005635.321    -5969102.918 8  -4651197.75747  22005635.106    22005649.2914
 00  3  1 17 16  0.0000000  0  8 19 02 27 13 26 11 08 07
  21710988.655     2705053.404 8   2085903.93947  21710988.595    21711001.5434
  21312747.197    -1679056.978 9  -1320565.81447  21312746.762    21312757.4184
  20424329.937     -225691.003 9   -398205.87247  20424329.741    20424340.1934
  21347007.054     2173110.757 9   1672608.22547  21347007.344    21347017.3534
  23500221.975    -5538908.596 8  -4316985.53345  23500222.065    23500233.6644
  24007656.114    -2180780.804 8  -1700131.94245  24007655.955    24007673.6024
  20002233.163     -950429.391 9   -754045.08648  20002232.782    20002242.7664
  21990180.141    -6050321.411 8  -4714484.77847  21990179.706    21990193.8434
 00  3  1 17 16 30.0000000  0  8 19 02 27 13 26 11 08 07
  21722571.736     2765922.275 8   2133334.04247  21722571.716    21722584.6124
  21309980.947    -1693593.924 9  -1331893.34347  21309980.517    21309991.1674
  20427262.234     -210281.882 9   -386198.84047  20427262.051    20427272.5424
  21358085.711     2231329.357 9   1717973.23847  21358086.074    21358096.1404
  23486690.811    -5610015.529 8  -4372393.57045  23486690.892    23486702.5144
  24001284.626    -2214263.339 7  -1726222.12145  24001284.418    24001302.1314
  20002789.631     -947505.613 9   -751766.88248  20002789.227    20002799.1984
  21974789.220    -6131201.503 8  -4777508.11747  21974788.690    21974802.7594
 00  3  1 17 17  0.0000000  0  8 19 02 27 13 26 11 08 07
  21734218.232     2827123.993 8   2181023.50747  21734218.193    21734231.0524
  21307241.706    -1707988.911 9  -1343110.24947  21307241.264    21307251.9324
  20430265.812     -194498.309 9   -373900.02047  20430265.631    20430276.1364
  21369259.105     2290045.399 9   1763725.87447  21369259.479    21369269.5704
  23473232.949    -5680736.355 8  -4427500.72545  23473233.169    23473244.8374
  23994982.602    -2247380.086 8  -1752027.26445  23994982.329    23995000.2334
  20003416.404     -944211.954 9   -749200.44448  20003416.013    20003426.0334
  21959458.020    -6211767.241 8  -4840286.49747  21959457.494    21959471.5154
 00  3  1 17 17 30.0000000  0  8 19 02 27 13 26 11 08 07
  21745925.795     2888646.655 8   2228963.06747  21745925.729    21745938.6824
  21304529.594    -1722241.225 9  -1354215.97847  21304529.151    21304539.8464
  20433340.062     -178343.315 9   -361311.78247  20433339.873    20433350.3994
  21380525.382     2349249.499 9   1809858.81247  21380525.740    21380535.8814
  23459848.908    -5751070.401 8  -4482306.50245  23459849.014    23459860.7794
  23988751.861    -2280122.270 8  -1777540.60345  23988751.683    23988769.4854
  20004113.542     -940548.579 9   -746345.92248  20004113.171    20004123.2194
  21944185.938    -6292021.574 8  -4902822.23647  21944185.507    21944199.4744
 00  3  1 17 18  0.0000000  0  8 19 02 27 13 26 11 08 07
  21757691.926     2950477.166 8   2277142.49647  21757691.883    21757704.8424
  21301844.810    -1736349.946 9  -1365209.82248  21301844.360    21301855.0794
  20436486.419     -161809.332 9   -348428.23647  20436486.255    20436496.8104
  21391881.669     2408926.430 9   1856360.18447  21391881.998    21391892.1734
  23446539.985    -5821009.202 8  -4536804.30245  23446540.168    23446551.9314
  23982593.011    -2312487.078 8  -1802759.91745  23982592.876    23982610.5634
  20004881.780     -936511.796 9   -743200.43148  20004881.419    20004891.4454
  21928972.626    -6371967.389 8  -4965117.57047  21928972.219    21928986.1604
 00  3  1 17 18 30.0000000  0  8 19 02 27 13 26 11 08 07
  21769516.439     3012614.536 8   2325561.04747  21769516.377    21769529.3614
  21299186.187    -1750321.316 9  -1376096.63547  21299185.741    21299196.4694
  20439706.746     -144886.916 9   -335242.01747  20439706.565    20439717.1204
  21403325.927     2469065.789 9   1903221.90047  21403326.245    21403336.4464
  23433307.954    -5890543.932 8  -4590987.25245  23433308.258    23433319.9334
  23976506.292    -2344472.447 7  -1827683.50245  23976506.230    23976524.0894
  20005723.355     -932089.620 9   -739754.63548  20005722.986    20005733.0504
  21913818.529    -6451602.929 8  -5027171.13347  21913818.029    21913831.9144
 00  3  1 17 19  0.0000000  0  8 19 02 27 13 26 11 08 07
  21781399.635     3075060.362 8   2374219.94747  21781399.610    21781412.6744
  21296557.717    -1764134.051 9  -1386859.84647  21296557.270    21296568.0194
  20443000.833     -127576.508 9   -321753.47547  20443000.665    20443011.2584
  21414855.950     2529655.658 9   1950434.65747  21414856.273    21414866.4624
  23420151.029    -5959684.688 8  -4644863.18845  23420151.306    23420162.9434
  23970493.707    -2376067.854 8  -1852303.20545  23970493.613    23970511.6904
  20006637.965     -927283.711 9   -736009.82248  20006637.593    20006647.6844
  21898725.536    -6530916.950 8  -5088974.16247  21898725.068    21898738.9164
 00  3  1 17 19 30.0000000  0  8 19 02 27 13 26 11 08 07
  21793342.308     3137818.936 8   2423122.55647  21793342.313    21793355.4524
  21293962.870    -1777770.320 9  -1397485.54647  21293962.407    21293973.1654
  20446371.229     -109865.299 9   -307952.63247  20446371.082    20446381.7204
  21426470.904     2590692.114 9   1997995.40547  21426471.232    21426481.4354
  23407067.231    -6028442.175 8  -4698440.49045  23407067.224    23407078.8634
  23964554.532    -2407278.692 8  -1876623.28945  23964554.415    23964572.4684
  20007624.095     -922101.877 9   -731972.07948  20007623.710    20007633.8444
  21883697.612    -6609888.518 9  -5150510.34447  21883697.272    21883711.0494
 00  3  1 17 20  0.0000000  0  8 19 02 27 13 26 11 08 07
  21805346.824     3200902.522 8   2472278.41246  21805346.822    21805360.0194
  21291403.195    -1791221.848 9  -1407967.29247  21291402.738    21291413.4804
  20449820.321      -91740.546 9   -293829.53047  20449820.194    20449830.8334
  21438171.537     2652178.808 9   2045906.99247  21438171.892    21438182.1204
  23394058.094    -6096804.906 8  -4751710.17345  23394058.221    23394069.9464
  23958688.040    -2438106.539 7  -1900644.93345  23958687.906    23958706.0374
  20008683.220     -916536.498 9   -727635.47148  20008682.827    20008692.9614
  21868737.764    -6688503.142 9  -5211768.39147  21868737.328    21868751.0564
 00  3  1 17 20 30.0000000  0  8 19 02 27 13 26 11 08 07
  21817414.663     3264318.800 8   2521693.52146  21817414.698    21817427.9014
  21288878.354    -1804490.270 9  -1418306.33348  21288877.877    21288888.6144
  20453349.049      -73197.163 9   -279380.23247  20453348.931    20453359.6114
  21449959.840     2714125.721 9   2094177.19247  21449960.092    21449970.3784
  23381125.248    -6164767.724 8  -4804668.25445  23381125.274    23381137.0814
  23952894.428    -2468551.076 7  -1924367.86845  23952894.446    23952912.5994
  20009817.854     -910574.421 9   -722989.75348  20009817.431    20009827.5784
  21853847.978    -6766749.201 9  -5272739.25247  21853847.496    21853861.2114
 00  3  1 17 21  0.0000000  0  8 19 02 27 13 26 11 08 07
  21829544.137     3328058.840 8   2571360.91747  21829544.171    21829557.4194
  21286388.445    -1817574.864 9  -1428502.13248  21286387.990    21286398.7454
  20456958.949      -54227.349 9   -264598.64947  20456958.842    20456969.5704
  21461838.724     2776549.544 9   2142819.01147  21461839.038    21461849.3534
  23368270.022    -6232322.888 8  -4857308.69245  23368270.003    23368281.7564
  23947173.901    -2498613.732 8  -1947793.31245  23947173.836    23947191.8014
  20011028.965     -904210.064 9   -718030.57448  20011028.563    20011038.6884
  21839031.503    -6844609.537 9  -5333409.54847  21839031.103    21839044.8034
 00  3  1 17 21 30.0000000  0  8 19 02 27 13 26 11 08 07
  21841734.606     3392119.198 8   2621277.90847  21841734.631    21841747.9164
  21283930.327    -1830492.280 9  -1438567.67048  21283929.912    21283940.6954
  20460652.223      -34819.359 9   -249475.62847  20460652.115    20460662.8984
  21473808.886     2839452.198 9   2191833.95447  21473809.131    21473819.4684
  23355495.975    -6299451.234 8  -4909616.52945  23355496.026    23355507.7014
  23941528.002    -2528283.033 8  -1970912.20245  23941527.954    23941545.7554
  20012320.536     -897422.965 9   -712741.98348  20012320.159    20012330.2674
  21824290.891    -6922071.600 9  -5393769.49947  21824290.488    21824304.1484
 00  3  1 17 22  0.0000000  0  8 19 02 27 13 26 11 08 07
  21853986.298     3456501.310 8   2671445.61246  21853986.350    21853999.6334
  21281501.083    -1843258.161 9  -1448515.14748  21281500.654    21281511.4524
  20464429.884      -14967.848 9   -234007.01147  20464429.800    20464440.6074
  21485870.409     2902835.961 9   2241223.76947  21485870.741    21485881.1034
  23342805.495    -6366139.338 8  -4961581.31945  23342805.672    23342817.3924
  23935959.730    -2557544.635 7  -1993713.42945  23935959.610    23935977.3774
  20013695.150     -890199.917 9   -707113.68848  20013694.757    20013704.8754
  21809623.909    -6999146.737 9  -5453827.95847  21809623.572    21809637.1474
 00  3  1 17 22 30.0000000  0  8 19 02 27 13 26 11 08 07
  21866300.310     3521211.073 8   2721868.62346  21866300.295    21866313.6774
  21279101.006    -1855870.874 9  -1458343.27048  21279100.575    21279111.3874
  20468293.285        5333.874 9   -218187.57147  20468293.195    20468304.0334
  21498024.960     2966708.001 9   2290994.06147  21498025.306    21498035.6874
  23330198.090    -6432391.720 8  -5013206.57845  23330198.290    23330209.9744
  23930469.958    -2586393.675 8  -2016193.20645  23930469.830    23930487.4734
  20015152.171     -882543.199 9   -701147.46448  20015151.799    20015161.9674
  21795029.073    -7075843.371 9  -5513591.46947  21795028.666    21795042.1974
 00  3  1 17 23  0.0000000  0  8 19 02 27 13 26 11 08 07
  21878678.859     3586260.529 8   2772556.33446  21878678.866    21878692.3934
  21276729.694    -1868332.482 9  -1468053.63848  21276729.267    21276740.0544
  20472242.979       26089.114 9   -202014.73647  20472242.881    20472253.6884
  21510271.198     3031061.894 9   2341139.82747  21510271.589    21510281.9784
  23317674.775    -6498203.041 8  -5064488.16745  23317674.860    23317686.5394
  23925059.156    -2614828.010 7  -2038349.80545  23925058.977    23925076.5084
  20016688.658     -874469.098 9   -694856.01748  20016688.305    20016698.5004
  21780504.864    -7152168.401 9  -5573065.42447  21780504.391    21780517.8674
 00  3  1 17 23 30.0000000  0  8 19 02 27 13 26 11 08 07
  21891124.016     3651659.412 8   2823516.32646  21891124.040    21891137.5354
  21274387.840    -1880639.539 9  -1477643.56648  21274387.388    21274398.1684
  20476277.650       47290.968 9   -185493.89747  20476277.548    20476288.3644
  21522604.652     3095873.934 9   2391642.59347  21522604.980    21522615.4274
  23305235.888    -6563570.000 8  -5115423.50146  23305236.011    23305247.6454
  23919727.659    -2642845.165 8  -2060181.39645  23919727.447    23919745.0404
  20018301.408     -865994.613 9   -688252.57848  20018301.048    20018311.2524
  21766046.922    -7228144.983 9  -5632267.85647  21766046.490    21766059.9344
 00  3  1 17 24  0.0000000  0  8 19 02 27 13 26 11 08 07
  21903636.161     3717410.172 8   2874750.51846  21903636.138    21903649.6524
  21272075.539    -1892790.772 9  -1487112.07948  21272075.079    21272085.8894
  20480393.578       68919.601 9   -168640.49547  20480393.459    20480404.2424
  21535024.419     3161139.899 9   2442499.05647  21535024.772    21535035.2854
  23292879.137    -6628505.059 8  -5166022.28746  23292879.355    23292890.9514
  23914474.005    -2670454.159 7  -2081694.89745  23914473.655    23914491.2834
  20019984.928     -857148.152 9   -681359.28448  20019984.553    20019994.7224
  21751651.407    -7303793.548 9  -5691214.69247  21751650.976    21751664.3904
 00  3  1 17 24 30.0000000  0  8 19 02 27 13 26 11 08 07
  21916213.315     3783502.763 8   2926251.07046  21916213.311    21916226.8414
  21269792.170    -1904789.874 9  -1496462.04748  21269791.770    21269802.5834
  20484585.298       90947.038 9   -151476.33947  20484585.207    20484595.9954
  21547527.897     3226845.104 9   2493697.78347  21547528.157    21547538.7134
  23280602.238    -6693020.793 8  -5216294.30846  23280602.454    23280614.0974
  23909295.739    -2697664.920 7  -2102898.02545  23909295.409    23909313.2744
  20021734.800     -847952.459 9   -674193.85348  20021734.452    20021744.6424
  21737319.092    -7379110.130 9  -5749902.83647  21737318.678    21737332.0464
 00  3  1 17 25  0.0000000  0  8 19 02 27 13 26 11 08 07
  21928853.208     3849924.708 8   2978008.25746  21928853.200    21928866.6764
  21267533.887    -1916657.647 9  -1505709.69748  21267533.463    21267544.2634
  20488848.542      113350.234 9   -134019.38647  20488848.435    20488859.2344
  21560110.841     3292968.341 9   2545222.24947  21560111.056    21560121.6634
  23268403.392    -6757126.379 8  -5266246.75846  23268403.539    23268415.3094
  23904192.424    -2724482.737 8  -2123795.05245  23904192.272    23904210.0594
  20023549.616     -838415.652 9   -666762.63348  20023549.285    20023559.5354
  21723048.689    -7454101.373 9  -5808337.47147  21723048.267    21723061.5914
 00  3  1 17 25 30.0000000  0  8 19 02 27 13 26 11 08 07
  21941552.096     3916657.027 8   3030007.30546  21941552.069    21941565.5914
  21265298.753    -1928403.733 9  -1514862.52148  21265298.320    21265309.1364
  20493180.305      136113.718 9   -116281.69047  20493180.236    20493191.0434
  21572772.393     3359505.276 9   2597069.08747  21572772.700    21572783.3774
  23256279.551    -6820837.546 8  -5315891.85146  23256279.752    23256291.6114
  23899163.331    -2750911.345 7  -2144388.81245  23899163.184    23899180.8274
  20025430.517     -828531.793 9   -659060.98348  20025430.193    20025440.4544
  21708839.938    -7528768.946 9  -5866519.89247  21708839.453    21708852.7474
 00  3  1 17 26  0.0000000  0  8 19 02 27 13 26 11 08 07
  21954309.246     3983695.456 8   3082244.87246  21954309.198    21954322.8484
  21263084.422    -1940040.058 9  -1523929.81748  21263084.003    21263094.8214
  20497579.120      159228.978 9    -98269.88347  20497579.031    20497589.8524
  21585513.840     3426461.724 9   2649242.82247  21585514.169    21585524.9244
  23244229.760    -6884158.983 8  -5365233.25646  23244230.095    23244241.9984
  23894206.952    -2776956.987 8  -2164684.03645  23894206.874    23894224.5084
  20027379.988     -818287.280 9   -651078.29948  20027379.684    20027389.9454
  21694696.506    -7603092.628 9  -5924434.34947  21694696.045    21694709.3214
 00  3  1 17 26 30.0000000  0  8 19 02 27 13 26 11 08 07
  21967124.143     4051037.254 8   3134718.83746  21967124.086    21967137.8674
  21260891.951    -1951561.664 9  -1532907.71648  21260891.561    21260902.3924
  20502046.162      182703.258 9    -79978.31447  20502046.109    20502056.9584
  21598332.993     3493826.325 9   2701734.60447  21598333.295    21598344.1164
  23232254.400    -6947090.417 8  -5414270.78846  23232254.675    23232266.5404
  23889324.097    -2802616.617 8  -2184678.53845  23889323.945    23889341.6474
  20029402.649     -807658.659 9   -642796.31248  20029402.313    20029412.5704
  21680622.989    -7677049.505 9  -5982062.98447  21680622.458    21680635.7374
 00  3  1 17 27  0.0000000  0  8 19 02 27 13 26 11 08 07
  21979996.689     4118682.516 8   3187429.27146  21979996.635    21980010.5074
  21258721.880    -1962965.687 9  -1541794.00148  21258721.493    21258732.2974
  20506586.201      206560.676 9    -61388.20047  20506586.126    20506596.9644
  21611231.114     3561606.098 9   2754549.89047  21611231.476    21611242.3144
  23220356.091    -7009617.043 8  -5462992.86546  23220356.292    23220368.1434
  23884517.448    -2827875.904 8  -2204361.07945  23884517.243    23884534.8384
  20031502.066     -796626.486 9   -634199.87148  20031501.730    20031511.9984
  21666620.307    -7750633.685 9  -6039401.20847  21666619.811    21666633.0734
 00  3  1 17 27 30.0000000  0  8 19 02 27 13 26 11 08 07
  21992925.639     4186624.129 8   3240370.62446  21992925.604    21992939.5254
  21256578.691    -1974228.373 9  -1550570.14048  21256578.287    21256589.1094
  20511202.069      230816.688 9    -42487.49847  20511201.970    20511212.8934
  21624209.588     3629807.928 9   2807694.05047  21624209.961    21624220.7914
  23208538.340    -7071720.548 8  -5511385.23846  23208538.434    23208550.2654
  23879789.444    -2852721.856 7  -2223721.50445  23879789.366    23879806.7424
  20033680.279     -785180.147 9   -625280.70148  20033679.952    20033690.2824
  21652690.617    -7823834.357 9  -6096440.58747  21652690.125    21652703.3794
 00  3  1 17 28  0.0000000  0  8 19 02 27 13 26 11 08 07
  22005912.024     4254867.134 8   3293546.82746  22005911.993    22005925.9594
  21254464.335    -1985339.518 9  -1559228.18148  21254463.951    21254474.7514
  20515896.797      255487.353 9    -23263.67247  20515896.710    20515907.6304
  21637268.941     3698434.345 9   2861169.04947  21637269.270    21637280.1054
  23196803.657    -7133387.613 8  -5559437.52046  23196803.607    23196815.4344
  23875141.314    -2877147.198 7  -2242754.18345  23875141.275    23875158.7064
  20035937.338     -773319.545 9   -616038.72748  20035937.019    20035947.3544
  21638835.537    -7896642.820 9  -6153174.35747  21638835.086    21638848.3004
 00  3  1 17 28 30.0000000  0  8 19 02 27 13 26 11 08 07
  22018954.324     4323404.520 8   3346952.40646  22018954.285    22018968.3924
  21252378.443    -1996301.084 9  -1567769.67148  21252378.065    21252388.8394
  20520675.400      280598.872 9     -3696.33847  20520675.332    20520686.2924
  21650410.530     3767493.625 9   2914981.34347  21650410.922    21650421.7954
  23185152.791    -7194613.495 8  -5607146.04446  23185152.712    23185164.5374
  23870577.189    -2901132.308 8  -2261443.83445  23870577.134    23870594.5914
  20038273.011     -761045.821 9   -606474.85048  20038272.702    20038283.0054
  21625055.108    -7969059.243 9  -6209602.63747  21625054.637    21625067.8274
 00  3  1 17 29  0.0000000  0  8 19 02 27 13 26 11 08 07
  22032050.656     4392226.514 8   3400579.78046  22032050.689    22032064.9804
  21250320.447    -2007116.133 9  -1576196.98248  21250320.069    21250330.8334
  20525539.242      306157.977 9     16219.77347  20525539.165    20525550.1554
  21663637.303     3837000.315 9   2969142.26047  21663637.675    21663648.5714
  23173589.535    -7255378.058 8  -5654495.08246  23173589.608    23173601.5344
  23866096.094    -2924679.814 7  -2279792.44145  23866096.096    23866113.6404
  20040685.150     -748370.046 9   -596597.68248  20040684.842    20040695.1414
  21611347.250    -8041093.819 9  -6265733.37847  21611346.836    21611359.9954
 00  3  1 17 29 30.0000000  0  8 19 02 27 13 26 11 08 07
  22045202.034     4461337.286 8   3454432.17146  22045202.134    22045216.4474
  21248292.946    -2017770.879 9  -1584499.37048  21248292.573    21248303.3634
  20530488.202      332164.597 9     36484.59947  20530488.119    20530499.0524
  21676947.192     3906943.755 9   3023643.49547  21676947.551    21676958.5014
  23162113.830    -7315683.658 8  -5701486.50946  23162113.962    23162125.8874
  23861696.039    -2947800.917 8  -2297808.83045  23861696.131    23861713.7714
  20043174.714     -735287.429 9   -586403.50548  20043174.419    20043184.7454
  21597712.346    -8112745.477 9  -6321565.74147  21597711.865    21597724.9884
 00  3  1 17 30  0.0000000  0  8 19 02 27 13 26 11 08 07
  22058411.781     4530754.054 8   3508522.98046  22058411.869    22058426.1584
  21246294.494    -2028272.860 9  -1592682.72648  21246294.127    21246304.8994
  20535524.159      358628.543 9     57105.78247  20535524.082    20535535.1304
  21690339.829     3977321.890 9   3078483.45647  21690340.160    21690351.1904
  23150725.035    -7375531.716 8  -5748121.39146  23150725.316    23150737.2234
  23857378.905    -2970488.204 8  -2315487.15745  23857378.960    23857396.4064
  20045742.155     -721795.698 9   -575890.52948  20045741.871    20045752.2054
  21584151.355    -8184008.419 9  -6377095.21647  21584150.903    21584163.9944
 00  3  1 17 30 30.0000000  0  8 19 02 27 13 26 11 08 07
  22071679.860     4600477.368 8   3562852.65046  22071679.933    22071694.2024
  21244325.704    -2038619.308 9  -1600744.89648  21244325.300    21244336.0864
  20540646.116      385544.513 9     78079.18647  20540646.047    20540657.0854
  21703813.198     4048124.481 9   3133654.15747  21703813.552    21703824.6124
  23139424.271    -7434918.431 8  -5794396.79546  23139424.450    23139436.4164
  23853145.417    -2992735.167 7  -2332822.30545  23853145.262    23853163.0464
  20048388.122     -707891.602 9   -565056.22548  20048387.830    20048398.1404
  21570664.269    -8254883.188 9  -6432322.22047  21570663.820    21570676.8944
 00  3  1 17 31  0.0000000  0  8 19 02 27 13 26 11 08 07
  22085009.944     4670526.081 8   3617435.89146  22085009.945    22085024.2044
  21242389.871    -2048792.120 9  -1608671.77548  21242389.460    21242400.2734
  20545852.340      412903.097 9     99397.48847  20545852.272    20545863.3814
  21717365.816     4119343.549 9   3189149.38247  21717366.230    21717377.2784
  23128210.751    -7493845.365 8  -5840313.91546  23128210.992    23128222.9364
  23848993.942    -3014551.127 8  -2349821.67745  23848993.766    23849011.4054
  20051112.845     -693573.498 9   -553899.32448  20051112.534    20051122.8384
  21557249.074    -8325380.298 9  -6487254.94747  21557248.647    21557261.6884
 00  3  1 17 31 30.0000000  0  8 19 02 27 13 26 11 08 07
  22098405.688     4740920.658 8   3672288.62746  22098405.722    22098420.0104
  21240487.530    -2058788.943 9  -1616461.51648  21240487.137    21240497.9514
  20551141.655      440698.302 9    121056.01647  20551141.590    20551152.7014
  21730996.800     4190973.836 9   3244965.03747  21730997.163    21731008.2134
  23117083.044    -7552321.976 8  -5885880.14946  23117083.396    23117095.2054
  23844926.239    -3035927.008 8  -2366478.07545  23844926.142    23844943.6524
  20053917.643     -678834.332 9   -542414.32948  20053917.352    20053927.7024
  21543908.034    -8395487.776 9  -6541884.06947  21543907.603    21543920.6064
 00  3  1 17 32  0.0000000  0  8 19 02 27 13 26 11 08 07
  22111867.998     4811665.218 8   3727414.06646  22111868.032    22111882.4054
  21238614.608    -2068631.342 9  -1624130.94748  21238614.233    21238625.0114
  20556511.852      468918.074 9    143045.36447  20556511.763    20556522.8464
  21744707.333     4263022.213 9   3301106.48147  21744707.652    21744718.6964
  23106040.529    -7610350.696 8  -5931097.37346  23106040.921    23106052.7374
  23840942.319    -3056861.607 8  -2382790.64145  23840942.240    23840960.0094
  20056800.266     -663686.247 9   -530610.69548  20056799.976    20056810.3454
  21530641.156    -8465205.086 9  -6596209.15547  21530640.748    21530653.7534
 00  3  1 17 32 30.0000000  0  8 19 02 27 13 26 11 08 07
  22125395.487     4882751.242 8   3782805.56946  22125395.477    22125409.8644
  21236768.101    -2078334.801 9  -1631692.10648  21236767.732    21236778.4884
  20561960.422      497550.338 9    165356.12847  20561960.361    20561971.4834
  21758498.504     4335494.470 9   3357578.21847  21758498.775    21758509.8424
  23095081.812    -7667939.340 8  -5975971.68146  23095082.157    23095094.0644
  23837038.324    -3077376.969 8  -2398776.58245  23837038.192    23837055.8364
  20059759.942     -648133.164 9   -518491.47548  20059759.637    20059770.0154
  21517448.113    -8534534.360 9  -6650231.88347  21517447.741    21517460.7584
 00  3  1 17 33  0.0000000  0  8 19 02 27 13 26 11 08 07
  22138988.062     4954179.255 8   3838463.56246  22138987.967    22139002.3924
  21234947.081    -2087904.627 9  -1639149.13448  21234946.712    21234957.4444
  20567488.136      526597.798 9    187990.42747  20567487.994    20567499.1024
  21772370.732     4408393.175 9   3414382.25947  21772371.041    21772382.1734
  23084205.317    -7725096.293 8  -6020509.59946  23084205.637    23084217.5504
  23833212.302    -3097482.936 8  -2414443.43345  23833212.141    23833229.8964
  20062796.592     -632175.654 9   -506057.11648  20062796.315    20062806.6784
  21504329.878    -8603470.719 9  -6703948.45447  21504329.562    21504342.5584
 00  3  1 17 33 30.0000000  0  8 19 02 27 13 26 11 08 07
  22152643.654     5025939.751 8   3894380.62246  22152643.624    22152658.1674
  21233150.713    -2097344.879 9  -1646505.19848  21233150.306    21233161.0234
  20573095.071      556062.324 9    210949.70947  20573095.022    20573106.0684
  21786323.770     4481716.334 9   3471517.04147  21786324.101    21786335.2694
  23073412.707    -7781811.787 8  -6064703.53346  23073413.068    23073424.9724
  23829466.288    -3117167.663 8  -2429782.08745  23829466.154    23829483.9744
  20065910.742     -615811.047 9   -493305.53548  20065910.479    20065920.8434
  21491288.040    -8672006.090 9  -6757352.56347  21491287.691    21491300.6674
 00  3  1 17 34  0.0000000  0  8 19 02 27 13 26 11 08 07
  22166360.616     5098022.362 8   3950548.68046  22166360.628    22166375.1934
  21231378.595    -2106657.394 9  -1653761.72848  21231378.203    21231388.9324
  20578785.162      585963.744 9    234249.41947  20578785.083    20578796.1984
  21800356.452     4555457.707 9   3528977.71147  21800356.767    21800367.9334
  23062704.865    -7838081.914 8  -6108550.42446  23062705.291    23062717.2484
  23825800.919    -3136429.519 8  -2444791.23245  23825800.721    23825818.4024
  20069102.101     -599040.900 9   -480237.95048  20069101.810    20069112.1934
  21478319.468    -8740156.259 9  -6810456.51847  21478319.079    21478332.0294
 00  3  1 17 34 30.0000000  0  8 19 02 27 13 26 11 08 07
  22180137.634     5170420.336 8   4006962.48146  22180137.640    22180152.1584
  21229634.256    -2115824.098 9  -1660904.64448  21229633.870    21229644.6184
  20584561.222      616316.846 9    257901.10347  20584561.165    20584572.2874
  21814467.062     4629608.816 9   3586757.64147  21814467.358    21814478.5924
  23052083.487    -7893898.103 8  -6152043.58246  23052083.854    23052095.8144
  23822218.135    -3155256.535 8  -2459461.51545  23822217.922    23822235.6114
  20072373.525     -581849.846 9   -466842.38748  20072373.235    20072383.6414
  21465424.174    -8807920.521 9  -6863259.77147  21465423.876    21465436.8174
 00  3  1 17 35  0.0000000  0  8 19 02 27 13 26 11 08 07
  22193974.602     5243133.571 8   4063621.92546  22193974.621    22193989.0764
  21227921.950    -2124822.594 9  -1667916.48448  21227921.566    21227932.3144
  20590424.752      647129.701 9    281911.02947  20590424.695    20590435.8934
  21828652.345     4704152.650 9   3644843.58947  21828652.698    21828663.9854
  23041551.793    -7949242.088 8  -6195168.80446  23041552.225    23041564.2084
  23818723.568    -3173620.218 8  -2473770.79045  23818723.381    23818741.0264
  20075725.627     -564234.895 9   -453116.51548  20075725.324    20075735.7064
  21452602.707    -8875297.627 9  -6915761.33847  21452602.412    21452615.3054
 00  3  1 17 35 30.0000000  0  8 19 02 27 13 26 11 08 07
  22207869.866     5316152.627 8   4120519.66346  22207869.921    22207884.2264
  21226240.848    -2133656.922 9  -1674800.39848  21226240.479    21226251.2394
  20596374.555      678395.844 9    306274.17147  20596374.487    20596385.7244
  21842911.980     4779087.253 9   3703234.03547  21842912.376    21842923.7234
  23031111.747    -8004104.234 8  -6237918.57546  23031112.303    23031124.3134
  23815318.302    -3191515.231 8  -2487714.87645  23815318.088    23815335.5274
  20079157.826     -546198.909 9   -439062.57248  20079157.518    20079167.9094
  21439854.365    -8942290.580 9  -6967963.57147  21439854.028    21439866.8974
 00  3  1 17 36  0.0000000  0  8 19 02 27 13 26 11 08 07
  22221822.226     5389471.571 8   4177651.07746  22221822.252    22221836.6254
  21224588.271    -2142341.487 9  -1681567.61348  21224587.903    21224598.6614
  20602408.205      710102.743 9    330980.75547  20602408.179    20602419.4814
  21857245.656     4854410.187 9   3761927.07847  21857245.993    21857257.3774
  23020762.503    -8058489.768 8  -6280296.94846  23020763.097    23020775.1574
  23812000.021    -3208951.692 8  -2501301.62645  23811999.966    23812017.4624
  20082670.774     -527738.633 9   -424678.00248  20082670.476    20082680.8684
  21427182.611    -9008881.091 9  -7019852.20347  21427182.241    21427195.0874
 00  3  1 17 36 30.0000000  0  8 19 02 27 13 26 11 08 07
  22235830.691     5463085.137 8   4235012.08446  22235830.675    22235845.1624
  21222963.541    -2150879.624 9  -1688220.73548  21222963.178    21222973.9444
  20608520.878      742224.441 9    356010.55747  20608520.808    20608532.1554
  21871652.687     4930118.921 9   3820920.73847  21871652.999    21871664.4184
  23010504.945    -8112394.768 8  -6322300.89346  23010505.358    23010517.4234
  23808769.705    -3225927.315 8  -2514529.32545  23808769.533    23808786.8464
  20086263.718     -508857.698 9   -409965.64648  20086263.399    20086273.8294
  21414591.081    -9075049.565 9  -7071411.97747  21414590.667    21414603.5164
 00  3  1 17 37  0.0000000  0  8 19 02 27 13 26 11 08 07
  22249894.847     5536991.771 8   4292601.45146  22249894.808    22249909.4224
  21221363.487    -2159287.981 9  -1694772.72248  21221363.126    21221373.9094
  20614709.497      774745.419 9    381351.49647  20614709.473    20614720.8174
  21886131.468     5006204.475 9   3880208.01847  21886131.766    21886143.1724
  23000337.181    -8165827.749 8  -6363937.02146  23000337.488    23000349.6074
  23805625.317    -3242450.557 8  -2527404.52645  23805625.259    23805642.4374
  20089932.487     -489578.258 9   -394942.76248  20089932.209    20089942.6734
  21402079.325    -9140799.114 9  -7122645.31147  21402078.859    21402091.7364
 00  3  1 17 37 30.0000000  0  8 19 02 27 13 26 11 08 07
  22264015.404     5611194.635 8   4350421.63746  22264015.362    22264030.0834
  21219785.550    -2167580.261 9  -1701234.26348  21219785.179    21219796.0184
  20620972.322      807656.605 9    406996.48147  20620972.278    20620983.7184
  21900680.800     5082661.072 9   3939784.42447  21900681.154    21900692.5654
  22990257.125    -8218799.472 8  -6405213.74046  22990257.356    22990269.4174
  23802563.297    -3258542.156 8  -2539943.40045  23802563.118    23802580.2204
  20093676.981     -469901.008 9   -379609.89848  20093676.707    20093687.2144
  21389646.023    -9206135.702 9  -7173556.87047  21389645.607    21389658.4714
 00  3  1 17 38  0.0000000  0  8 19 02 27 13 26 11 08 07
  22278191.968     5685691.861 8   4408471.18646  22278191.958    22278206.7254
  21218229.701    -2175756.441 9  -1707605.33948  21218229.345    21218240.1644
  20627312.200      840972.711 9    432956.99747  20627312.189    20627323.6314
  21915298.418     5159476.509 9   3999640.43947  21915298.784    21915310.2034
  22980264.917    -8271308.133 8  -6446129.64046  22980265.393    22980277.3914
  23799584.161    -3274197.328 8  -2552142.17345  23799583.931    23799601.1254
  20097497.386     -449824.920 9   -363966.24248  20097497.122    20097507.6604
  21377289.488    -9271069.293 9  -7224154.40147  21377289.101    21377301.9324
 00  3  1 17 38 30.0000000  0  8 19 02 27 13 26 11 08 07
  22292425.888     5760490.764 8   4466755.81046  22292425.914    22292440.7014
  21216699.772    -2183796.277 9  -1713870.17548  21216699.405    21216710.2104
  20633734.004      874719.350 9    459252.99347  20633734.003    20633745.5004
  21929981.810     5236637.748 9   4059765.91547  21929982.219    21929993.6724
  22970362.413    -8323346.112 8  -6486678.76946  22970363.018    22970374.8974
  23796689.036    -3289411.103 8  -2563997.01645  23796688.825    23796705.9314
  20101393.296     -429351.827 9   -348013.22648  20101393.015    20101403.5794
  21365006.670    -9335615.671 9  -7274450.20847  21365006.304    21365019.1074
 00  3  1 17 39  0.0000000  0  8 19 02 27 13 26 11 08 07
  22306717.992     5835595.035 8   4525278.37846  22306717.990    22306732.8544
  21215197.089    -2191692.978 9  -1720023.47548  21215196.745    21215207.5524
  20640240.753      908912.098 9    485896.60847  20640240.768    20640252.2704
  21944729.462     5314136.674 9   4120154.52447  21944729.899    21944741.3974
  22960551.950    -8374900.821 8  -6526851.30946  22960552.480    22960564.4244
  23793878.053    -3304182.803 8  -2575507.33845  23793877.842    23793894.8024
  20105367.064     -408469.518 9   -331741.34648  20105366.794    20105377.3894
  21352796.239    -9399781.380 9  -7324449.39647  21352795.917    21352808.6854
 00  3  1 17 39 30.0000000  0  8 19 02 27 13 26 11 08 07
  22321067.545     5911001.316 8   4584036.27146  22321067.576    22321082.4984
  21213722.646    -2199441.309 9  -1726061.16448  21213722.306    21213733.1354
  20646833.321      943555.471 9    512891.36747  20646833.295    20646844.7484
  21959542.286     5391978.011 9   4180809.94247  21959542.745    21959554.2654
  22950836.976    -8425954.051 8  -6566633.08246  22950837.376    22950849.4034
  23791152.607    -3318504.967 8  -2586667.39145  23791152.478    23791169.3604
  20109422.069     -387160.638 9   -315137.07948  20109421.817    20109432.4504
  21340659.964    -9463557.776 9  -7374145.21947  21340659.639    21340672.3644
 00  3  1 17 40  0.0000000  0  8 19 02 27 13 26 11 08 07
  22335472.475     5986698.947 8   4643021.19946  22335472.494    22335487.5144
  21212274.629    -2207050.870 9  -1731990.71948  21212274.268    21212285.0874
  20653511.936      978651.463 9    540238.80947  20653511.951    20653523.3874
  21974422.424     5470172.995 9   4241740.93347  21974422.913    21974434.4484
  22941217.941    -8476502.574 8  -6606021.58446  22941218.355    22941230.4004
  23788515.108    -3332364.779 8  -2597467.20045  23788515.003    23788531.8784
  20113557.826     -365427.250 9   -298202.02548  20113557.574    20113568.2124
  21328602.095    -9526922.323 9  -7423520.11847  21328601.766    21328614.4544
 00  3  1 17 40 30.0000000  0  8 19 02 27 13 26 11 08 07
  22349934.847     6062698.423 8   4702241.33246  22349934.891    22349950.0244
  21210849.473    -2214540.273 9  -1737826.65048  21210849.135    21210859.9474
  20660271.521     1014172.786 9    567917.68147  20660271.531    20660282.9404
  21989370.686     5548725.783 9   4302950.73147  21989371.155    21989382.7174
  22931693.829    -8526551.796 8  -6645021.01446  22931694.338    22931706.3144
  23785965.287    -3345764.482 8  -2607908.50945  23785965.140    23785982.0574
  20117772.101     -343281.301 9   -280945.48848  20117771.836    20117782.4624
  21316624.695    -9589863.817 9  -7472565.37047  21316624.378    21316637.0474
 00  3  1 17 41  0.0000000  0  8 19 02 27 13 26 11 08 07
  22364451.403     6138982.717 8   4761683.39946  22364451.512    22364466.6824
  21209440.831    -2221942.897 9  -1743594.96148  21209440.480    21209451.3234
  20667106.533     1050090.424 9    595905.37847  20667106.510    20667117.9424
  22004388.013     5627641.809 9   4364443.57647  22004388.488    22004400.0544
  22922261.828    -8576118.157 8  -6683644.19146  22922262.258    22922274.1854
  23783500.969    -3358714.337 8  -2617999.28245  23783500.875    23783517.6854
  20122061.293     -320741.577 9   -263382.11748  20122061.057    20122071.6784
  21304726.991    -9652386.802 9  -7521284.51647  21304726.645    21304739.3324
 00  3  1 17 41 30.0000000  0  8 19 02 27 13 26 11 08 07
  22379021.690     6215549.017 8   4821345.21246  22379021.765    22379037.0334
  21208044.558    -2229280.396 9  -1749312.52548  21208044.216    21208055.0714
  20674016.735     1086403.364 9    624201.10347  20674016.716    20674028.1854
  22019475.186     5706925.502 9   4426222.90747  22019475.814    22019487.4234
  22912915.683    -8625233.644 8  -6721916.04346  22912916.018    22912927.9054
  23781119.492    -3371228.649 8  -2627750.66945  23781119.503    23781136.2284
  20126423.491     -297818.394 9   -245519.94148  20126423.247    20126433.8214
  21292907.500    -9714497.966 9  -7569682.75947  21292907.207    21292919.9294
 00  3  1 17 42  0.0000000  0  8 19 02 27 13 26 11 08 07
  22393647.617     6292407.914 8   4881235.02646  22393647.670    22393663.0394
  21206660.485    -2236553.924 9  -1754980.23448  21206660.154    21206671.0074
  20681003.288     1123117.460 9    652809.41047  20681003.269    20681014.7654
  22034633.393     5786581.697 9   4488292.49847  22034634.020    22034645.6664
  22903652.903    -8673909.377 8  -6759845.21846  22903653.291    22903665.2814
  23778819.723    -3383314.581 8  -2637168.26045  23778819.616    23778836.4654
  20130858.601     -274512.378 9   -227359.45948  20130858.327    20130868.8704
  21281164.200    -9776209.241 9  -7617769.40747  21281163.897    21281176.6204
 00  3  1 17 42 30.0000000  0  8 19 02 27 13 26 11 08 07
  22408330.194     6369564.598 8   4941356.88646  22408330.255    22408345.7454
  21205294.604    -2243731.885 9  -1760573.47848  21205294.260    21205305.1334
  20688067.496     1160239.609 9    681735.67647  20688067.499    20688078.9684
  22049860.210     5866597.958 9   4550642.66547  22049860.729    22049872.3944
  22894474.513    -8722142.410 8  -6797429.43346  22894474.865    22894486.9544
  23776599.689    -3394979.896 8  -2646258.08345  23776599.613    23776616.5484
  20135367.859     -250816.062 9   -208894.84448  20135367.585    20135378.2024
  21269492.732    -9837543.354 9  -7665562.15847  21269492.337    21269505.0624
 00  3  1 17 43  0.0000000  0  8 19 02 27 13 26 11 08 07
  22423068.098     6447012.539 8   5001705.71246  22423068.183    22423083.8684
  21203955.959    -2250766.646 9  -1766055.13248  21203955.617    21203966.5264
  20695214.654     1197797.869 9    711001.75847  20695214.651    20695226.1534
  22065157.104     5946982.793 8   4613280.02147  22065157.549    22065169.3094
  22885381.187    -8769928.330 8  -6834665.24146  22885381.500    22885393.6374
  23774461.068    -3406217.723 7  -2655014.79245  23774460.984    23774478.1594
  20139959.616     -226686.102 9   -190092.33148  20139959.376    20139970.0304
  21257895.042    -9898489.454 9  -7713052.55447  21257894.666    21257907.3534
 00  3  1 17 43 30.0000000  0  8 19 02 27 13 26 11 08 07
  22437866.284     6524776.696 8   5062300.92746  22437866.338    22437882.1444
  21202652.635    -2257615.797 9  -1771392.16648  21202652.269    21202663.1814
  20702450.313     1235821.079 9    740630.15347  20702450.322    20702461.7694
  22080526.106     6027747.022 9   4676213.01147  22080526.619    22080538.4254
  22876379.090    -8817234.284 8  -6871527.04346  22876379.442    22876391.5794
  23772412.217    -3416984.371 8  -2663404.34745  23772412.122    23772429.3474
  20144641.049     -202085.374 9   -170922.98648  20144640.805    20144651.5114
  21246377.331    -9959015.508 9  -7760215.64747  21246376.939    21246389.5914
 00  3  1 17 44  0.0000000  0  8 19 02 27 13 26 11 08 07
  22452724.827     6602857.876 8   5123143.16846  22452724.851    22452740.6424
  21201391.459    -2264243.320 9  -1776556.51448  21201391.132    21201402.0104
  20709773.550     1274304.596 9    770617.22547  20709773.522    20709785.0664
  22095966.459     6108886.008 9   4739438.01547  22095966.990    22095978.8154
  22867473.692    -8864032.021 8  -6907992.84246  22867474.177    22867486.3174
  23770457.920    -3427254.445 7  -2671406.95945  23770457.735    23770475.1114
  20149410.485     -177022.301 9   -151393.37048  20149410.223    20149420.9574
  21234942.972   -10019103.182 9  -7807037.13947  21234942.615    21234955.2464
 00  3  1 17 44 30.0000000  0  8 19 02 27 13 26 11 08 07
  22467642.357     6681249.165 8   5184227.04246  22467642.395    22467658.1524
  21200173.507    -2270643.930 9  -1781544.04848  21200173.195    21200184.0574
  20717185.072     1313251.681 9    800965.51547  20717185.041    20717196.6034
  22111475.645     6190385.946 9   4802944.28647  22111476.043    22111487.9274
  22858665.462    -8910320.477 8  -6944061.81546  22858665.825    22858677.9974
  23768600.501    -3437014.820 7  -2679012.46745  23768600.371    23768617.6804
  20154266.741     -151502.546 9   -131507.90248  20154266.491    20154277.2934
  21223595.999   -10078731.692 9  -7853500.84147  21223595.621    21223608.2874
 00  3  1 17 45  0.0000000  0  8 19 02 27 13 26 11 08 07
  22482618.942     6759951.329 8   5245553.16946  22482619.056    22482634.8574
  21198992.998    -2276847.853 9  -1786378.31048  21198992.693    21199003.5554
  20724684.129     1352659.540 9    831672.84147  20724684.120    20724695.7304
  22127052.585     6272242.082 9   4866728.11447  22127052.900    22127064.8174
  22849956.623    -8956086.664 8  -6979723.81746  22849956.894    22849969.0754
  23766842.882    -3446250.643 8  -2686209.14245  23766842.877    23766860.3244
  20159208.720     -125532.698 9   -111271.71948  20159208.410    20159219.2444
  21212340.910   -10137877.036 9  -7899588.05247  21212340.602    21212353.2614
 00  3  1 17 45 30.0000000  0  8 19 02 27 13 26 11 08 07
  22497655.077     6838966.084 8   5307122.87646  22497655.227    22497671.0354
  21197841.330    -2282900.115 9  -1791094.38648  21197841.030    21197851.8944
  20732268.251     1392513.849 9    862728.06447  20732268.219    20732279.8614
  22142692.379     6354428.666 8   4930769.42947  22142692.603    22142704.5754
  22841347.438    -9001327.930 8  -7014976.79446  22841347.714    22841359.9264
  23765183.514    -3454970.924 7  -2693004.14945  23765183.426    23765200.7744
  20164226.830      -99162.524 9    -90723.59748  20164226.576    20164237.4254
  21201173.365   -10196562.820 9  -7945317.16947  21201172.993    21201185.6204
 00  3  1 17 46  0.0000000  0  8 19 02 27 13 26 11 08 07
  22512746.656     6918272.372 8   5368919.77646  22512746.719    22512762.7094
  21196711.982    -2288835.062 9  -1795719.03848  21196711.662    21196722.5464
  20739933.602     1432795.433 9    894116.21047  20739933.603    20739945.2404
  22158390.906     6436923.796 9   4995051.18247  22158391.075    22158403.0744
  22832834.660    -9046062.667 8  -7049835.06146  22832834.977    22832847.2684
  23763613.690    -3463220.577 8  -2699432.41245  23763613.613    23763630.8844
  20169317.889      -72408.950 9    -69876.73148  20169317.642    20169328.5334
  21190087.022   -10254822.027 9  -7990713.88647  21190086.588    21190099.1834
 00  3  1 17 46 30.0000000  0  8 19 02 27 13 26 11 08 07
  22527890.972     6997854.849 8   5430931.86046  22527891.035    22527907.0264
  21195597.854    -2294689.780 9  -1800281.18248  21195597.543    21195608.4604
  20747680.772     1473506.507 9    925839.03247  20747680.730    20747692.3764
  22174147.221     6519723.263 8   5059570.06847  22174147.437    22174159.4774
  22824417.168    -9090297.398 8  -7084303.72246  22824417.484    22824429.7694
  23762131.465    -3471010.068 7  -2705502.10745  23762131.348    23762148.5264
  20174486.870      -45246.071 9    -48710.92948  20174486.643    20174497.5234
  21179077.925   -10312674.897 9  -8035793.98047  21179077.510    21179090.0824
 00  3  1 17 47  0.0000000  0  8 19 02 27 13 26 11 08 07
  22543086.660     7077707.212 8   5493154.23446  22543086.686    22543102.6644
  21194498.121    -2300469.355 9  -1804784.77548  21194497.785    21194508.6824
  20755508.447     1514641.242 9    957891.97847  20755508.460    20755520.1934
  22189962.508     6602832.183 9   5124330.07547  22189962.718    22189974.7744
  22816095.449    -9134028.725 8  -7118380.11746  22816095.726    22816107.9724
  23760737.151    -3478337.192 7  -2711211.54645  23760737.014    23760754.1414
  20179736.238      -17660.968 9    -27216.12448  20179735.969    20179746.8584
  21168143.670   -10370134.198 9  -8080567.39747  21168143.269    21168155.8134
 00  3  1 17 47 30.0000000  0  8 19 02 27 13 26 11 08 07
  22558333.324     7157828.058 8   5555585.81446  22558333.400    22558349.4454
  21193414.945    -2306161.347 9  -1809220.12648  21193414.624    21193425.5474
  20763416.551     1556198.259 9    990273.97847  20763416.566    20763428.2814
  22205838.830     6686262.373 9   5189340.42747  22205839.097    22205851.1354
  22807867.282    -9177267.684 8  -7152072.83346  22807867.632    22807879.9064
  23759429.981    -3485206.152 8  -2716563.91745  23759429.949    23759447.0124
  20185067.263       10352.976 9     -5387.15348  20185066.969    20185077.8264
  21157281.502   -10427214.861 9  -8125045.77147  21157281.169    21157293.6564
 00  3  1 17 48  0.0000000  0  8 19 02 27 13 26 11 08 07
  22573629.573     7238208.334 8   5618219.55046  22573629.591    22573645.5264
  21192351.155    -2311751.751 9  -1813576.30548  21192350.831    21192361.8034
  20771405.798     1598181.460 9   1022988.05847  20771405.785    20771417.5474
  22221778.168     6770023.256 8   5254608.46947  22221778.433    22221790.4724
  22799732.161    -9220017.759 8  -7185384.60446  22799732.583    22799744.8684
  23758210.949    -3491612.237 7  -2721555.58445  23758210.783    23758227.9054
  20190484.206       38818.885 9     16793.98948  20190483.929    20190494.7594
  21146496.512   -10483890.430 9  -8169208.48747  21146496.145    21146508.5684
 00  3  1 17 48 30.0000000  0  8 19 02 27 13 26 11 08 07
  22588979.020     7318869.037 8   5681071.80446  22588978.995    22588994.9634
  21191310.755    -2317219.492 9  -1817836.90448  21191310.421    21191321.3874
  20779479.086     1640606.664 9   1056046.54947  20779479.086    20779490.9584
  22237781.086     6854118.622 8   5320137.13647  22237781.374    22237793.4284
  22791690.956    -9262275.136 8  -7218312.46346  22791691.301    22791703.5734
  23757083.698    -3497536.139 7  -2726171.59845  23757083.603    23757100.7054
  20195987.970       67741.203 9     39330.77648  20195987.709    20195998.5424
  21135794.196   -10540131.436 9  -8213032.58647  21135793.794    21135806.1734
 00  3  1 17 49  0.0000000  0  8 19 02 27 13 26 11 08 07
  22604387.023     7399837.355 8   5744163.74346  22604386.978    22604403.0574
  21190297.838    -2322542.519 9  -1821984.74348  21190297.502    21190308.4824
  20787636.994     1683476.380 9   1089451.42447  20787636.988    20787648.8364
  22253847.583     6938547.874 8   5385925.97947  22253847.881    22253859.9954
  22783744.276    -9304035.281 8  -7250852.86546  22783744.691    22783756.9374
  23756048.099    -3502978.179 7  -2730412.07545  23756047.951    23756065.0744
  20201574.697       97099.372 9     62207.18348  20201574.411    20201585.2764
  21125178.390   -10595917.743 9  -8256502.37647  21125178.014    21125190.3684
 00  3  1 17 49 30.0000000  0  8 19 02 27 13 26 11 08 07
  22619854.731     7481119.781 8   5807500.43846  22619854.690    22619870.9134
  21189312.774    -2327719.227 9  -1826018.56148  21189312.434    21189323.4304
  20795879.520     1726790.516 9   1123202.58447  20795879.452    20795891.3084
  22269976.376     7023304.510 8   5451969.93347  22269976.696    22269988.8674
  22775893.640    -9345290.364 8  -7282999.72346  22775894.166    22775906.3944
  23755101.535    -3507952.065 8  -2734287.81345  23755101.316    23755118.4994
  20207242.658      126884.441 9     85416.25048  20207242.377    20207253.2944
  21114649.773   -10651245.754 9  -8299615.05347  21114649.393    21114661.7654
 00  3  1 17 50  0.0000000  0  8 19 02 27 13 26 11 08 07
  22635381.514     7562712.941 8   5871079.25446  22635381.531    22635397.8834
  21188356.529    -2332744.450 9  -1829934.34048  21188356.186    21188367.1854
  20804206.544     1770548.946 9   1157299.94747  20804206.487    20804218.3944
  22286166.350     7108382.308 8   5518264.13747  22286166.608    22286178.8394
  22768139.644    -9386036.941 8  -7314750.35146  22768140.324    22768152.5934
  23754244.474    -3512455.368 8  -2737796.82745  23754244.309    23754261.6074
  20212993.300      157103.851 9    108963.75948  20212993.026    20213003.9724
  21104208.225   -10706116.070 9  -8342371.08947  21104207.881    21104220.2674
 00  3  1 17 50 30.0000000  0  8 19 02 27 13 26 11 08 07
  22650968.613     7644622.237 8   5934904.39946  22650968.590    22650984.9784
  21187430.131    -2337612.493 9  -1833727.64448  21187429.797    21187440.8424
  20812617.283     1814747.090 9   1191739.94447  20812617.245    20812629.1064
  22302417.062     7193779.647 8   5584807.33646  22302417.308    22302429.6474
  22760484.468    -9426265.592 8  -7346097.39546  22760485.124    22760497.3864
  23753479.122    -3516477.601 8  -2740930.96645  23753478.989    23753496.2194
  20218825.743      187753.359 9    132846.40848  20218825.478    20218836.4444
  21093849.539   -10760551.101 9  -8384787.94347  21093849.222    21093861.5614
 00  3  1 17 51  0.0000000  0  8 19 02 27 13 26 11 08 07
  22666610.435     7726819.309 8   5998953.78346  22666610.382    22666626.7824
  21186531.146    -2342336.995 9  -1837409.09948  21186530.820    21186541.8424
  20821107.021     1859360.316 9   1226503.36847  20821106.967    20821118.8144
  22318728.665     7279497.008 8   5651599.89146  22318728.925    22318741.3454
  22752928.797    -9465971.963 8  -7377037.47346  22752929.275    22752941.5584
  23752804.617    -3520021.694 8  -2743692.58745  23752804.466    23752821.7104
  20224736.998      218817.003 9    157051.76348  20224736.766    20224747.7424
  21083568.381   -10814579.037 9  -8426887.57647  21083568.020    21083580.2984
 00  3  1 17 51 30.0000000  0  8 19 02 27 13 26 11 08 07
  22682301.891     7809278.363 8   6063207.33146  22682301.909    22682318.4624
  21185656.272    -2346934.475 9  -1840991.59048  21185655.956    21185666.9384
  20829674.566     1904382.677 9   1261585.60347  20829674.486    20829686.3954
  22335097.851     7365516.825 8   5718628.12946  22335098.133    22335110.5914
  22745469.755    -9505169.971 8  -7407581.42046  22745470.168    22745482.4764
  23752221.732    -3523084.424 8  -2746079.09245  23752221.749    23752238.9754
  20230726.409      250291.224 9    181577.04448  20230726.179    20230737.1964
  21073361.323   -10868217.466 9  -8468683.70047  21073360.936    21073373.1744
 00  3  1 17 52  0.0000000  0  8 19 02 27 13 26 11 08 07
  22698042.317     7891993.258 8   6127660.17746  22698042.382    22698058.7534
  21184804.351    -2351411.586 9  -1844480.29048  21184804.015    21184814.9964
  20838321.294     1949821.352 9   1296992.22547  20838321.240    20838333.1924
  22351522.228     7451827.188 8   5785882.77046  22351522.592    22351535.1134
  22738105.137    -9543871.516 8  -7437738.51446  22738105.527    22738117.8194
  23751731.216    -3525661.945 8  -2748087.51245  23751731.198    23751748.3904
  20236792.022      282165.789 9    206414.28648  20236791.820    20236802.8024
  21063229.592   -10921459.950 9  -8510171.30147  21063229.210    21063241.4414
 00  3  1 17 52 30.0000000  0  8 19 02 27 13 26 11 08 07
  22713833.186     7974973.647 8   6192319.93546  22713833.220    22713849.6964
  21183971.884    -2355786.511 9  -1847889.36348  21183971.552    21183982.5324
  20847049.968     1995690.002 9   1332733.90047  20847049.917    20847061.8584
  22367999.685     7538416.354 8   5853354.64546  22368000.105    22368012.7094
  22730835.017    -9582076.504 8  -7467508.67846  22730835.390    22730847.6674
  23751331.441    -3527762.984 8  -2749724.67145  23751331.446    23751348.4614
  20242930.155      314421.229 9    231548.31048  20242929.921    20242940.9194
  21053173.942   -10974302.312 9  -8551347.12147  21053173.601    21053185.8284
 00  3  1 17 53  0.0000000  0  8 19 02 27 13 26 11 08 07
  22729672.009     8058206.086 8   6257176.08746  22729671.995    22729688.6504
  21183156.367    -2360072.380 9  -1851229.02848  21183156.026    21183166.9864
  20855862.998     2042002.270 9   1368821.23847  20855862.936    20855874.9404
  22384528.960     7625277.585 8   5921038.51546  22384529.363    22384542.0264
  22723656.599    -9619799.075 8  -7496902.92746  22723657.049    22723669.3004
  23751020.082    -3529398.951 8  -2750999.45845  23751020.160    23751037.1584
  20249141.702      347062.795 9    256983.22048  20249141.461    20249152.4624
  21043198.779   -11026721.771 9  -8592193.40448  21043198.457    21043210.6914
 00  3  1 17 53 30.0000000  0  8 19 02 27 13 26 11 08 07
  22745562.080     8141707.429 8   6322241.75846  22745561.995    22745578.7224
  21182361.063    -2364252.094 9  -1854485.96848  21182360.717    21182371.6294
  20864766.011     2088787.388 9   1405277.03947  20864765.993    20864778.0074
  22401110.433     7712413.048 8   5988936.07146  22401110.873    22401123.5714
  22716571.269    -9657032.745 8  -7525916.20746  22716571.745    22716583.9604
  23750796.477    -3530574.548 7  -2751915.50745  23750796.397    23750813.3684
  20255432.174      380119.062 9    282741.26948  20255431.936    20255442.9904
  21033310.610   -11078684.578 9  -8632683.85648  21033310.252    21033322.4604
 00  3  1 17 54  0.0000000  0  8 19 02 27 13 26 11 08 07
  22761507.588     8225500.932 8   6387535.09846  22761507.546    22761524.4254
  21181591.160    -2368298.140 9  -1857638.75548  21181590.800    21181601.7484
  20873761.224     2136056.985 9   1442110.35647  20873761.226    20873773.3094
  22417749.232     7799849.648 8   6057068.27446  22417749.674    22417762.4264
  22709584.136    -9693750.530 8  -7554527.49746  22709584.641    22709596.8764
  23750660.481    -3531288.800 8  -2752472.08745  23750660.540    23750677.3454
  20261807.025      413618.747 9    308844.83648  20261806.803    20261817.8694
  21023512.776   -11130172.000 9  -8672803.88148  21023512.475    21023524.6354
 00  3  1 17 54 30.0000000  0  8 19 02 27 13 26 11 08 07
  22777509.623     8309591.206 8   6453059.66846  22777509.548    22777526.5364
  21180850.759    -2372188.808 9  -1860670.47748  21180850.432    21180861.4344
  20882847.456     2183805.163 9   1479316.58247  20882847.485    20882859.6124
  22434447.842     7887600.322 8   6125445.20846  22434448.254    22434461.0414
  22702696.820    -9729943.918 8  -7582730.15746  22702697.290    22702709.5974
  23750615.796    -3531523.196 8  -2752654.72045  23750615.820    23750632.7254
  20268270.692      447585.388 9    335312.25548  20268270.488    20268281.6074
  21013806.835   -11181176.609 9  -8712547.68648  21013806.535    21013818.6944
 00  3  1 17 55  0.0000000  0  8 19 02 27 13 26 11 08 07
  22793566.719     8393971.152 8   6518809.97046  22793566.701    22793583.7404
  21180146.247    -2375891.087 9  -1863555.39748  21180145.920    21180156.9444
  20892022.112     2232017.565 9   1516884.54247  20892022.114    20892034.2404
  22451207.514     7975672.692 8   6194072.82546  22451208.042    22451220.8594
  22695913.133    -9765592.552 8  -7610508.33446  22695913.655    22695925.9674
  23750666.464    -3531257.490 8  -2752447.67445  23750666.506    23750683.3914
  20274827.653      482042.101 9    362161.55948  20274827.439    20274838.5714
  21004194.538   -11231689.628 9  -8751908.43248  21004194.229    21004206.3814
 00  3  1 17 55 30.0000000  0  8 19 02 27 13 26 11 08 07
  22809683.129     8478661.411 8   6584802.07446  22809683.004    22809700.1364
  21179479.158    -2379396.851 9  -1866287.19748  21179478.842    21179489.8524
  20901281.471     2280675.257 9   1554799.48847  20901281.493    20901293.5804
  22468027.408     8064061.415 8   6262946.95446  22468027.978    22468040.8794
  22689236.382    -9800679.480 8  -7637848.82546  22689236.898    22689249.2244
  23750814.896    -3530477.443 8  -2751839.85845  23750814.922    23750831.8114
  20281475.781      516977.836 9    389384.12548  20281475.557    20281486.6944
  20994673.082   -11281725.239 9  -8790897.17748  20994672.790    20994684.9224
 00  3  1 17 56  0.0000000  0  8 19 02 27 13 26 11 08 07
  22825857.430     8563656.432 8   6651031.64146  22825857.287    22825874.5914
  21178843.700    -2382736.600 9  -1868889.63248  21178843.372    21178854.3974
  20910620.651     2329751.801 9   1593040.81547  20910620.618    20910632.6514
  22484904.049     8152747.655 8   6332052.89946  22484904.574    22484917.4894
  22682663.705    -9835219.489 8  -7664763.15146  22682664.188    22682676.4934
  23751063.497    -3529171.041 8  -2750821.87145  23751063.491    23751080.3674
  20288208.227      552356.507 9    416951.83848  20288208.035    20288219.1414
  20985238.249   -11331305.796 9  -8829531.32848  20985237.922    20985250.0064
 00  3  1 17 56 30.0000000  0  8 19 02 27 13 26 11 08 07
  22842083.928     8648925.798 8   6717474.99246  22842083.824    22842101.2274
  21178232.412    -2385949.126 9  -1871392.93348  21178232.055    21178243.0914
  20920034.324     2379220.850 9   1631587.98147  20920034.321    20920046.4744
  22501831.852     8241703.212 8   6401368.68946  22501832.395    22501845.3614
  22676191.604    -9869230.428 8  -7691265.21946  22676192.149    22676204.5164
  23751410.960    -3527344.825 8  -2749398.85945  23751411.050    23751427.9034
  20295019.193      588147.824 9    444841.08948  20295018.980    20295030.1364
  20975888.995   -11380436.656 9  -8867815.07348  20975888.654    20975900.7064
 00  3  1 17 57  0.0000000  0  8 19 02 27 13 26 11 08 07
  22858360.505     8734458.855 8   6784123.80546  22858360.435    22858377.8094
  21177637.868    -2389073.570 9  -1873827.58648  21177637.547    21177648.5774
  20929520.258     2429069.425 9   1670430.88947  20929520.294    20929532.5044
  22518806.619     8330905.887 8   6470877.04346  22518807.234    22518820.2334
  22669820.934    -9902708.236 8  -7717351.85546  22669821.539    22669834.0224
  23751852.452    -3525024.857 8  -2747591.08445  23751852.395    23751869.3774
  20301905.906      624337.571 9    473040.80848  20301905.723    20301916.9054
  20966622.532   -11429131.981 9  -8905759.44148  20966622.219    20966634.3094
 00  3  1 17 57 30.0000000  0  8 19 02 27 13 26 11 08 07
  22874685.327     8820244.650 8   6850969.54846  22874685.245    22874702.5814
  21177053.645    -2392143.799 9  -1876219.99248  21177053.321    21177064.4004
  20939079.428     2479302.340 9   1709573.28247  20939079.447    20939091.6164
  22535827.121     8420347.818 8   6540571.84146  22535827.631    22535840.6564
  22663546.675    -9935679.823 8  -7743044.04346  22663547.252    22663559.8564
  23752384.229    -3522230.513 8  -2745413.69745  23752384.277    23752401.1474
  20308865.878      660912.122 9    501540.37948  20308865.675    20308876.8874
  20957439.112   -11477390.889 9  -8943363.74048  20957438.807    20957450.8914
 00  3  1 17 58  0.0000000  0  8 19 02 27 13 26 11 08 07
  22891055.547     8906269.080 8   6918001.24746  22891055.461    22891072.9054
  21176479.954    -2395158.760 9  -1878569.33848  21176479.628    21176490.7034
  20948715.536     2529940.044 9   1749031.08647  20948715.566    20948727.7774
  22552893.452     8510030.875 8   6610454.51746  22552893.916    22552906.9884
  22657368.318    -9968147.466 8  -7768343.54746  22657368.909    22657381.4884
  23753003.310    -3518976.724 8  -2742878.28845  23753003.378    23753020.3834
  20315902.679      697890.574 9    530354.67448  20315902.493    20315913.7444
  20948339.858   -11525207.723 9  -8980623.57048  20948339.516    20948351.5994
 00  3  1 17 58 30.0000000  0  8 19 02 27 13 26 11 08 07
  22907471.940     8992536.323 8   6985222.14546  22907471.887    22907489.2904
  21175923.080    -2398085.498 9  -1880849.94048  21175922.734    21175933.7964
  20958434.830     2581014.476 9   1788829.21147  20958434.857    20958447.1034
  22570007.086     8599962.582 8   6680530.96246  22570007.549    22570020.6964
  22651289.504   -10000092.609 8  -7793235.90846  22651290.008    22651302.5074
  23753709.181    -3515267.541 8  -2739987.99845  23753709.139    23753726.2854
  20323023.000      735307.172 9    559510.38948  20323022.774    20323033.9854
  20939324.515   -11572583.737 9  -9017539.89948  20939324.148    20939336.2184
 00  3  1 17 59  0.0000000  0  8 19 02 27 13 26 11 08 07
  22923937.650     9079063.300 8   7052645.41846  22923937.668    22923955.0454
  21175390.119    -2400886.254 9  -1883032.37348  21175389.802    21175400.8714
  20968242.859     2632555.439 9   1828990.85947  20968242.877    20968255.1454
  22587170.640     8690157.122 8   6750812.19046  22587171.166    22587184.3754
  22645311.360   -10031508.345 8  -7817715.73046  22645311.887    22645324.3414
  23754504.094    -3511090.703 8  -2736733.33445  23754504.009    23754521.0224
  20330230.217      773180.903 9    589022.29948  20330229.975    20330241.2014
  20930393.362   -11619516.766 9  -9054111.05348  20930393.050    20930405.1474
 00  3  1 17 59 30.0000000  0  8 19 02 27 13 26 11 08 07
  22940455.640     9165865.182 8   7120282.94046  22940455.712    22940473.2374
  21174887.741    -2403526.521 9  -1885089.75648  21174887.410    21174898.4834
  20978143.633     2684583.762 9   1869532.28147  20978143.633    20978156.0024
  22604387.321     8780630.538 8   6821310.73046  22604387.857    22604401.1814
  22639433.890   -10062394.807 8  -7841783.14646  22639434.395    22639446.8124
  23755392.013    -3506424.387 8  -2733097.19245  23755391.874    23755409.1614
  20337523.913      811509.088 9    618888.34347  20337523.655    20337534.8644
  20921546.456   -11666007.391 9  -9090337.47448  20921546.155    20921558.2484
 00  3  1 18  0  0.0000000  0  8 19 02 27 13 26 11 08 07
  22957027.183     9252948.049 8   7188139.37146  22957027.180    22957044.8614
  21174418.191    -2405994.354 9  -1887012.76648  21174417.856    21174428.9064
  20988133.784     2737081.704 9   1910439.64047  20988133.777    20988146.2664
  22621656.012     8871376.576 8   6892021.69846  22621656.433    22621669.8484
  22633659.623   -10092739.248 8  -7865428.20346  22633660.063    22633672.5354
  23756375.084    -3501258.492 8  -2729071.80545  23756374.954    23756392.0494
  20344904.721      850295.014 9    649111.05347  20344904.456    20344915.7074
  20912781.125   -11712069.181 9  -9126229.74648  20912780.863    20912792.9634
 00  3  1 18  0 30.0000000  0  8 19 02 27 13 26 11 08 07
  22973651.202     9340306.671 8   7256210.67946  22973651.172    22973668.9204
  21173981.125    -2408291.121 9  -1888802.47848  21173980.808    21173991.8804
  20998208.113     2790022.041 9   1951691.72847  20998208.123    20998220.6054
  22638974.755     8962385.649 8   6962937.64346  22638975.043    22638988.5514
  22627986.857   -10122549.459 8  -7888656.98746  22627987.400    22627999.8924
  23757455.591    -3495580.073 8  -2724647.02345  23757455.485    23757472.7094
  20352370.331      889526.858 9    679681.22847  20352370.077    20352381.3874
  20904097.577   -11757701.681 9  -9161787.50048  20904097.265    20904109.3374
 00  3  1 18  1  0.0000000  0  8 19 02 27 13 26 11 08 07
  22990325.652     9427931.764 8   7324489.64146  22990325.738    22990343.7334
  21173573.089    -2410435.558 9  -1890473.48848  21173572.771    21173583.8594
  21008362.159     2843380.879 9   1993269.92147  21008362.094    21008374.5904
  22656341.794     9053649.143 8   7034051.80946  22656342.100    22656355.6484
  22622414.076   -10151835.307 8  -7911477.18546  22622414.578    22622427.0764
  23758635.842    -3489378.270 8  -2719814.40745  23758635.689    23758652.8434
  20359916.918      929184.167 9    710582.94147  20359916.603    20359928.0064
  20895498.157   -11802892.044 9  -9197000.73248  20895497.788    20895509.8714
 00  3  1 18  1 30.0000000  0  8 19 02 27 13 26 11 08 07
  23007050.795     9515821.372 8   7392974.66946  23007050.849    23007068.8614
  21173189.512    -2412451.225 9  -1892044.16448  21173189.186    21173200.2934
  21018593.218     2897145.751 9   2035164.46847  21018593.250    21018605.8354
  22673754.967     9145155.629 8   7105355.32246  22673755.355    22673768.9494
  22616939.608   -10180604.212 8  -7933894.54646  22616940.058    22616952.5404
  23759914.372    -3482660.372 8  -2714579.68945  23759914.174    23759931.0724
  20367543.585      969262.519 9    741812.73547  20367543.313    20367554.7544
  20886982.341   -11847642.729 9  -9231871.36748  20886982.003    20886994.0444
 00  3  1 18  2  0.0000000  0  8 19 02 27 13 26 11 08 07
  23023825.713     9603973.003 8   7461663.89746  23023825.757    23023843.9244
  21172829.255    -2414344.626 9  -1893519.56848  21172828.935    21172840.0584
  21028899.668     2951305.676 9   2077366.87647  21028899.655    21028912.2854
  22691211.703     9236890.640 8   7176836.91046  22691212.140    22691225.7924
  22611561.373   -10208866.789 8  -7955917.37646  22611561.822    22611574.2764
  23761290.003    -3475430.433 8  -2708945.94445  23761289.910    23761306.9404
  20375251.211     1009765.833 9    773373.67247  20375250.937    20375262.3694
  20878552.319   -11891942.393 9  -9266390.55548  20878552.029    20878564.0524
 00  3  1 18  2 30.0000000  0  8 19 02 27 13 26 11 08 07
  23040650.882     9692389.482 8   7530559.48646  23040651.088    23040669.3654
  21172492.144    -2416116.291 9  -1894900.12048  21172491.829    21172502.9574
  21039286.762     3005889.782 9   2119899.78847  21039286.755    21039299.4374
  22708713.444     9328861.377 8   7248502.16846  22708713.804    22708727.4674
  22606279.367   -10236624.767 8  -7977547.02046  22606279.708    22606292.2034
  23762763.179    -3467689.015 8  -2702913.61845  23762763.032    23762780.2094
  20383040.015     1050696.055 9    805267.25747  20383039.755    20383051.2234
  20870211.263   -11935775.178 9  -9300545.94248  20870210.924    20870222.9444
 00  3  1 18  3  0.0000000  0  8 19 02 27 13 26 11 08 07
  23057527.746     9781074.352 8   7599664.20746  23057527.855    23057546.0094
  21172176.441    -2417775.460 9  -1896193.00648  21172176.127    21172187.2544
  21049757.364     3060912.740 9   2162774.67247  21049757.376    21049770.0584
  22726262.358     9421080.981 8   7320361.34246  22726262.815    22726276.4954
  22601096.177   -10263863.644 8  -7998772.16746  22601096.446    22601108.8884
  23764331.327    -3459448.540 8  -2696492.48445  23764331.196    23764348.0854
  20390909.074     1092048.025 9    837489.47347  20390908.847    20390920.3124
  20861957.487   -11979148.815 9  -9334343.55248  20861957.178    20861969.2104
 00  3  1 18  3 30.0000000  0  8 19 02 27 13 26 11 08 07
  23074455.582     9870029.467 8   7668979.53146  23074455.676    23074473.9914
  21171881.400    -2419326.013 9  -1897401.26248  21171881.062    21171892.2074
  21060311.597     3116374.970 9   2205991.85947  21060311.619    21060324.2674
  22743858.244     9513547.292 8   7392412.75746  22743858.814    22743872.4504
  22596012.319   -10290579.375 8  -8019589.66746  22596012.636    22596025.0824
  23765991.535    -3450724.716 8  -2689694.67545  23765991.446    23766008.1784
  20398858.007     1133819.816 9    870038.82747  20398857.784    20398869.2834
  20853787.784   -12022080.658 9  -9367796.90748  20853787.493    20853799.5334
 00  3  1 18  4  0.0000000  0  8 19 02 27 13 26 11 08 07
  23091430.630     9959232.352 8   7738487.89946  23091430.754    23091449.0224
  21171606.243    -2420772.155 9  -1898528.15848  21171605.912    21171617.0424
  21070949.615     3172277.743 9   2249552.31847  21070949.645    21070962.3354
  22761498.330     9606245.906 8   7464645.18046  22761498.981    22761512.6434
  22591030.233   -10316760.662 8  -8039990.73546  22591030.575    22591043.0504
  23767742.844    -3441520.143 8  -2682522.27045  23767742.814    23767759.7324
  20406884.219     1175997.427 9    902904.40547  20406883.958    20406895.4124
  20845699.990   -12064582.327 9  -9400915.06548  20845699.692    20845711.7034
 00  3  1 18  4 30.0000000  0  8 19 02 27 13 26 11 08 07
  23108446.756    10048651.970 8   7808165.17646  23108446.944    23108465.3524
  21171346.713    -2422136.052 9  -1899590.95848  21171346.402    21171357.5264
  21081672.275     3228625.309 9   2293459.39347  21081672.322    21081685.0604
  22779181.342     9699170.201 8   7537053.46246  22779182.060    22779195.7514
  22586151.670   -10342397.462 8  -8059967.51446  22586152.062    22586164.5564
  23769584.981    -3431840.336 8  -2674979.57045  23769584.958    23769601.7694
  20414987.438     1218579.998 9    936085.53547  20414987.218    20414998.7274
  20837692.193   -12106663.315 9  -9433705.41248  20837691.896    20837703.8954
 00  3  1 18  5  0.0000000  0  8 19 02 27 13 26 11 08 07
  23125502.815    10138279.713 8   7878004.57146  23125503.047    23125521.2984
  21171103.440    -2423414.849 9  -1900587.45248  21171103.120    21171114.2354
  21092475.695     3285396.834 9   2337696.79747  21092475.723    21092488.4984
  22796901.789     9792290.568 8   7609614.52046  22796902.473    22796916.1924
  22581375.437   -10367497.046 8  -8079525.71246  22581375.818    22581388.3444
  23771517.863    -3421682.899 8  -2667064.70345  23771517.841    23771534.5314
  20423164.929     1261552.485 9    969570.50047  20423164.717    20423176.2634
  20829763.665   -12148327.792 9  -9466171.20748  20829763.395    20829775.3814
 00  3  1 18  5 30.0000000  0  8 19 02 27 13 26 11 08 07
  23142600.086    10228125.122 8   7948013.59645  23142600.241    23142618.5904
  21170880.154    -2424588.639 9  -1901502.12848  21170879.835    21170890.9174
  21103360.553     3342596.263 9   2382267.61547  21103360.577    21103373.3594
  22814657.277     9885595.223 8   7682319.18346  22814657.941    22814671.7574
  22576699.038   -10392071.948 8  -8098675.06746  22576699.456    22576711.8764
  23773545.121    -3411029.913 8  -2658763.68645  23773544.928    23773561.8474
  20431419.961     1304932.479 9   1003372.99847  20431419.762    20431431.2974
  20821918.557   -12189554.303 9  -9498295.73148  20821918.246    20821930.2404
 00  3  1 18  6  0.0000000  0  8 19 02 27 13 26 11 08 07
  23159740.287    10318196.240 8   8018198.50146  23159740.514    23159758.9154
  21170679.825    -2425641.435 9  -1902322.53348  21170679.504    21170690.6014
  21114326.266     3400221.100 9   2427169.93647  21114326.336    21114339.1454
  22832449.546     9979093.046 8   7755174.36746  22832450.183    22832464.0204
  22572121.692   -10416126.827 8  -8117419.19046  22572122.065    22572134.4244
  23775670.654    -3399859.592 8  -2650059.55245  23775670.596    23775687.3914
  20439755.943     1348737.562 9   1037506.73847  20439755.711    20439767.2664
  20814162.387   -12230313.107 9  -9530055.80648  20814162.095    20814174.0674
 00  3  1 18  6 30.0000000  0  8 19 02 27 13 26 11 08 07
  23176929.489    10408523.112 8   8088582.67246  23176929.605    23176947.9884
  21170505.686    -2426556.586 9  -1903035.68448  21170505.364    21170516.4854
  21125372.714     3458270.078 9   2472402.74947  21125372.778    21125385.6294
  22850282.064    10072802.153 8   7828194.19146  22850282.618    22850296.5364
  22567643.357   -10439661.200 8  -8135757.70246  22567643.695    22567656.1054
  23777896.342    -3388164.007 8  -2640946.13845  23777896.355    23777913.0814
  20448176.365     1392986.771 9   1071986.54847  20448176.132    20448187.7004
  20806497.628   -12270591.634 9  -9561441.64148  20806497.342    20806509.2804
 00  3  1 18  7  0.0000000  0  8 19 02 27 13 26 11 08 07
  23194172.927    10499136.990 8   8159190.52046  23194173.127    23194191.7554
  21170361.595    -2427313.911 9  -1903625.86048  21170361.274    21170372.4324
  21136498.906     3516738.519 9   2517962.42247  21136499.036    21136511.9914
  22868157.372    10166736.716 8   7901389.67346  22868157.953    22868171.9524
  22563263.146   -10462679.610 8  -8153694.17146  22563263.508    22563275.9784
  23780220.925    -3375947.843 8  -2631427.05145  23780220.945    23780237.8194
  20456680.966     1437678.261 9   1106811.00447  20456680.725    20456692.2944
  20798923.265   -12310395.303 9  -9592457.45548  20798922.945    20798934.8604
 00  3  1 18  7 30.0000000  0  8 19 02 27 13 26 11 08 07
  23211470.072    10590033.160 8   8230018.29146  23211470.263    23211489.1384
  21170245.686    -2427923.227 9  -1904100.70748  21170245.384    21170256.5524
  21147706.224     3575632.242 9   2563853.49447  21147706.327    21147719.3214
  22886079.342    10260916.394 8   7974776.15646  22886079.955    22886093.9894
  22558982.130   -10485176.537 8  -8171224.30446  22558982.472    22558995.0224
  23782641.902    -3363225.828 8  -2621513.82845  23782641.900    23782658.7934
  20465271.163     1482819.665 9   1141986.03647  20465270.888    20465282.5154
  20791436.808   -12349736.794 9  -9623113.13548  20791436.498    20791448.4204
 00  3  1 18  8  0.0000000  0  8 19 02 27 13 26 11 08 07
  23228817.808    10681194.554 8   8301052.77045  23228817.863    23228836.9974
  21170154.284    -2428404.129 9  -1904475.49148  21170153.957    21170165.1064
  21158995.533     3634956.663 9   2610080.17547  21158995.552    21159008.5374
  22904045.952    10355329.686 8   8048344.68946  22904046.428    22904060.5524
  22554802.019   -10507143.146 8  -8188341.19746  22554802.435    22554815.0384
  23785155.796    -3350015.994 8  -2611220.51545  23785155.850    23785172.5564
  20473945.980     1528406.284 9   1177507.99847  20473945.752    20473957.4294
  20784037.578   -12388619.799 9  -9653411.54948  20784037.271    20784049.2244
 00  3  1 18  8 30.0000000  0  8 19 02 27 13 26 11 08 07
  23246214.084    10772610.762 8   8372285.75045  23246214.279    23246233.2884
  21170087.258    -2428756.652 9  -1904750.24548  21170086.924    21170098.0534
  21170370.579     3694732.325 9   2656658.47947  21170370.577    21170383.5954
  22922055.031    10449966.568 8   8122087.42946  22922055.421    22922069.6524
  22550726.677   -10528559.385 8  -8205029.21946  22550727.086    22550739.7124
  23787758.915    -3336335.982 8  -2600560.79145  23787758.997    23787775.7884
  20482705.343     1574436.340 9   1213375.48847  20482705.068    20482716.7504
  20776724.231   -12427051.375 9  -9683358.20648  20776723.933    20776735.9054
 00  3  1 18  9  0.0000000  0  8 19 02 27 13 26 11 08 07
  23263655.628    10864263.930 8   8443703.39645  23263655.646    23263674.7564
  21170044.433    -2428981.981 9  -1904925.88048  21170044.113    21170055.2494
  21181831.091     3754957.447 8   2703586.99847  21181831.143    21181844.1894
  22940103.528    10544811.310 8   8195992.13446  22940103.986    22940118.3394
  22546756.869   -10549421.147 8  -8221285.20646  22546757.254    22546769.8724
  23790452.310    -3322182.414 8  -2589532.08445  23790452.343    23790469.0934
  20491548.626     1620907.582 9   1249586.75847  20491548.366    20491560.0594
  20769500.333   -12465013.149 9  -9712938.78148  20769500.014    20769511.9834
 00  3  1 18  9 30.0000000  0  8 19 02 27 13 26 11 08 07
  23281139.848    10956143.250 8   8515297.25745  23281139.952    23281159.1984
  21170025.696    -2429080.649 9  -1905002.81648  21170025.386    21170036.5224
  21193377.795     3815635.177 9   2750868.20047  21193377.850    21193390.9474
  22958189.412    10639852.500 8   8270049.90846  22958189.935    22958204.3494
  22542896.514   -10569707.216 8  -8237092.59046  22542896.937    22542909.5584
  23793239.623    -3307535.443 8  -2578118.91745  23793239.653    23793256.4584
  20500479.045     1667836.444 9   1286154.61647  20500478.774    20500490.4564
  20762370.703   -12502479.336 9  -9742133.17748  20762370.390    20762382.3644
 00  3  1 18 10  0.0000000  0  8 19 02 27 13 26 11 08 07
  23298667.288    11048248.909 8   8587067.48045  23298667.268    23298686.5954
  21170033.262    -2429040.992 9  -1904971.97048  21170032.951    21170044.0974
  21205010.285     3876763.539 9   2798500.56147  21205010.317    21205023.4674
  22976311.534    10735084.034 8   8344256.01346  22976312.070    22976326.5804
  22539148.140   -10589405.025 8  -8252441.57346  22539148.602    22539161.2674
  23796123.935    -3292378.296 8  -2566308.19145  23796124.016    23796140.7484
  20509496.024     1715220.326 9   1323077.02847  20509495.711    20509507.3724
  20755336.316   -12539445.110 9  -9770937.64748  20755336.020    20755347.9894
 00  3  1 18 10 30.0000000  0  8 19 02 27 13 26 11 08 07
  23316238.586    11140585.226 8   8659017.43245  23316238.633    23316258.0544
  21170068.269    -2428857.184 9  -1904828.79048  21170067.957    21170079.1234
  21216725.623     3938327.501 9   2846472.33447  21216725.656    21216738.8044
  22994470.913    10830510.970 8   8418614.36646  22994471.428    22994486.0254
  22535512.555   -10608510.493 8  -8267329.01446  22535512.979    22535525.6654
  23799106.074    -3276706.521 8  -2554096.48545  23799106.231    23799123.0694
  20518596.231     1763041.688 9   1360340.34047  20518595.921    20518607.5624
  20748393.673   -12575928.853 9  -9799366.51148  20748393.396    20748405.3264
 00  3  1 18 11  0.0000000  0  8 19 02 27 13 26 11 08 07
  23333854.062    11233153.411 8   8731148.08645  23333854.108    23333873.6424
  21170126.671    -2428550.458 9  -1904589.82748  21170126.376    21170137.5574
  21228519.700     4000304.879 9   2894766.24347  21228519.721    21228532.8764
  23012666.005    10926125.755 8   8493119.07746  23012666.532    23012681.2214
  22531985.376   -10627046.076 8  -8281772.38446  22531985.851    22531998.5324
  23802187.131    -3260515.860 8  -2541480.40545  23802187.119    23802204.1094
  20527777.086     1811287.434 9   1397934.33747  20527776.786    20527788.4534
  20741539.321   -12611948.966 9  -9827434.10148  20741539.001    20741550.8964
 00  3  1 18 11 30.0000000  0  8 19 02 27 13 26 11 08 07
  23351513.839    11325954.296 8   8803460.05045  23351513.804    23351533.4504
  21170206.010    -2428133.704 9  -1904265.12748  21170205.712    21170216.9374
  21240390.404     4062685.487 8   2943374.37047  21240390.434    21240403.6324
  23030894.269    11021914.945 8   8567759.70346  23030894.823    23030909.5774
  22528562.512   -10645033.964 8  -8295788.97846  22528562.970    22528575.6464
  23805364.252    -3243820.874 8  -2528471.43545  23805364.319    23805380.9214
  20537033.461     1859929.593 9   1435837.23147  20537033.178    20537044.8724
  20734766.185   -12647541.861 9  -9855168.79248  20734765.860    20734777.7204
 00  3  1 18 12  0.0000000  0  8 19 02 27 13 26 11 08 07
  23369217.850    11418988.377 8   8875953.70045  23369217.926    23369237.6354
  21170303.987    -2427618.873 9  -1903864.00148  21170303.654    21170314.9184
  21252336.225     4125460.924 8   2992290.15247  21252336.274    21252349.5494
  23049154.425    11117871.958 8   8642531.09146  23049155.051    23049169.7884
  22525238.449   -10662502.237 8  -8309400.68546  22525238.931    22525251.5914
  23808633.757    -3226639.080 8  -2515083.05945  23808633.786    23808650.6994
  20546362.924     1908955.800 9   1474039.37947  20546362.629    20546374.3824
  20728071.961   -12682720.216 9  -9882580.46948  20728071.625    20728083.4554
 00  3  1 18 12 30.0000000  0  8 19 02 27 13 26 11 08 07
  23386968.941    11512269.812 7   8948640.11545  23386968.869    23386989.0794
  21170419.014    -2427014.431 9  -1903393.04248  21170418.714    21170429.9854
  21264353.994     4188614.144 8   3041500.29647  21264354.044    21264367.3514
  23067445.605    11213992.436 8   8717429.86146  23067446.378    23067461.1864
  22522008.779   -10679474.774 8  -8322626.09046  22522009.267    22522021.9344
  23811994.257    -3208979.373 8  -2501322.30345  23811994.249    23812011.2874
  20555767.961     1958379.398 9   1512551.17847  20555767.718    20555779.4824
  20721459.211   -12717470.395 9  -9909658.49948  20721458.902    20721470.7154
 00  3  1 18 13  0.0000000  0  8 19 02 27 13 26 11 08 07
  23404767.116    11605798.862 8   9021519.42845  23404767.186    23404787.5214
  21170554.750    -2426301.493 9  -1902837.53548  21170554.430    21170565.7594
  21276445.425     4252154.854 8   3091012.37347  21276445.503    21276458.8434
  23085768.486    11310278.576 8   8792457.73046  23085769.294    23085784.1224
  22518872.783   -10695955.573 8  -8335468.33946  22518873.168    22518885.8234
  23815447.027    -3190835.532 8  -2487184.27345  23815447.079    23815463.9834
  20565253.371     2008225.056 9   1551391.85347  20565253.081    20565264.9014
  20714931.108   -12751775.991 9  -9936390.09448  20714930.752    20714942.5814
 00  3  1 18 13 30.0000000  0  8 19 02 27 13 26 11 08 07
  23422612.723    11699575.391 8   9094591.59845  23422612.702    23422632.9534
  21170715.262    -2425458.188 9  -1902180.45548  21170714.969    21170726.2784
  21288613.955     4316100.183 8   3140839.74647  21288614.019    21288627.3994
  23104124.800    11406739.550 8   8867621.79546  23104125.476    23104140.3034
  22515833.491   -10711927.076 8  -8347913.72446  22515833.953    22515846.6374
  23818992.076    -3172206.883 8  -2472668.53845  23818992.105    23819008.9764
  20574824.233     2058519.761 9   1590582.42447  20574823.955    20574835.8294
  20708493.618   -12785605.035 9  -9962750.36248  20708493.298    20708505.1204
 00  3  1 18 14  0.0000000  0  8 19 02 27 13 26 11 08 07
  23440505.164    11793598.581 8   9167855.97145  23440505.205    23440525.3354
  21170902.616    -2424473.982 9  -1901413.58148  21170902.319    21170913.6204
  21300862.833     4380467.656 8   3190996.07547  21300862.919    21300876.2924
  23122519.079    11503399.078 8   8942940.59446  23122519.452    23122534.3064
  22512897.070   -10727358.487 8  -8359938.27146  22512897.525    22512910.2144
  23822632.209    -3153077.906 8  -2457762.91445  23822632.335    23822649.0724
  20584488.300     2109303.887 9   1630154.36647  20584487.956    20584499.7334
  20702151.534   -12818932.846 9  -9988720.06048  20702151.219    20702163.0324
 00  3  1 18 14 30.0000000  0  8 19 02 27 13 26 11 08 07
  23458444.661    11887869.455 8   9241313.37545  23458444.725    23458464.8904
  21171122.273    -2423320.019 9  -1900514.43148  21171121.957    21171133.2914
  21313194.166     4445268.042 8   3241489.72947  21313194.202    21313207.5724
  23140951.546    11600260.455 8   9018416.69646  23140951.772    23140966.7104
  22510066.873   -10742230.944 8  -8371527.24346  22510067.405    22510080.1684
  23826370.245    -3133435.101 8  -2442456.89045  23826370.317    23826387.1634
  20594244.571     2160573.518 9   1670104.61247  20594244.301    20594256.1124
  20695902.338   -12851772.525 9 -10014309.39148  20695902.025    20695913.8304
 00  3  1 18 15  0.0000000  0  8 19 02 27 13 26 11 08 07
  23476427.477    11982366.383 8   9314946.89645  23476427.437    23476447.5944
  21171374.223    -2421996.212 9  -1899482.92448  21171373.923    21171385.2484
  21325612.533     4510526.204 9   3292340.09047  21325612.545    21325625.9354
  23159418.860    11697305.986 8   9094036.26046  23159419.237    23159434.1964
  22507345.741   -10756530.733 8  -8382669.98446  22507346.269    22507359.0654
  23830206.578    -3113275.612 8  -2426748.28845  23830206.582    23830223.4394
  20604089.139     2212306.698 9   1710416.07147  20604088.876    20604100.7404
  20689742.525   -12884142.511 9 -10039532.72948  20689742.230    20689754.0334
 00  3  1 18 15 30.0000000  0  8 19 02 27 13 26 11 08 07
  23494453.579    12077093.489 8   9388759.81745  23494453.637    23494473.9894
  21171654.370    -2420524.319 9  -1898336.02948  21171654.059    21171665.3534
  21338116.424     4576233.832 8   3343540.67247  21338116.429    21338129.8434
  23177919.425    11794525.863 8   9169791.67146  23177919.800    23177934.8414
  22504732.246   -10770265.234 8  -8393372.25546  22504732.748    22504745.5214
  23834141.984    -3092595.691 8  -2410634.15045  23834142.037    23834158.8514
  20614019.606     2264490.980 9   1751079.02647  20614019.341    20614031.1814
  20683670.310   -12916052.183 9 -10064397.38348  20683670.003    20683681.7904
 00  3  1 18 16  0.0000000  0  8 19 02 27 13 26 11 08 07
  23512522.633    12172044.575 8   9462747.24845  23512522.598    23512542.9014
  21171962.276    -2418906.283 9  -1897075.24648  21171961.946    21171973.2494
  21350701.117     4642365.751 8   3395071.87047  21350701.097    21350714.4924
  23196449.299    11891899.822 8   9245667.16046  23196449.662    23196464.7964
  22502224.342   -10783444.739 8  -8403642.06446  22502224.774    22502237.5654
  23838176.257    -3071395.286 8  -2394114.43145  23838176.313    23838193.1224
  20624027.769     2317084.084 9   1792060.55247  20624027.523    20624039.3304
  20677678.615   -12947538.346 9 -10088932.02848  20677678.361    20677690.1354
 00  3  1 18 16 30.0000000  0  8 19 02 27 13 26 11 08 07
  23530631.160    12267202.712 8   9536895.96945  23530631.102    23530651.1004
  21172295.423    -2417155.700 9  -1895711.18848  21172295.105    21172306.4274
  21363362.445     4708901.024 8   3446917.37847  21363362.402    21363375.8364
  23215001.420    11989391.090 8   9321634.06646  23215001.878    23215017.0974
  22499818.269   -10796089.296 8  -8413495.03246  22499818.620    22499831.4274
  23842306.413    -3049691.451 8  -2377202.38745  23842306.374    23842323.4034
  20634108.639     2370059.161 9   1833339.70547  20634108.414    20634120.2734
  20671767.087   -12978603.675 9 -10113138.75448  20671766.814    20671778.5804
 00  3  1 18 17  0.0000000  0  8 19 02 27 13 26 11 08 07
  23548778.296    12362565.891 8   9611204.52645  23548778.280    23548798.7444
  21172647.639    -2415304.880 9  -1894269.02548  21172647.301    21172658.6374
  21376099.186     4775833.448 8   3499072.33947  21376099.244    21376112.8014
  23233575.502    12086997.354 8   9397690.56246  23233576.010    23233591.3254
  22497514.513   -10808195.516 8  -8422928.51046  22497514.914    22497527.7414
  23846530.537    -3027493.970 8  -2359905.71145  23846530.510    23846547.5484
  20644265.387     2423433.408 9   1874929.89447  20644265.232    20644277.2044
  20665940.239   -13009224.057 9 -10136998.76148  20665939.917    20665951.6964
 00  3  1 18 17 30.0000000  0  8 19 02 27 13 26 11 08 07
  23566966.539    12458144.319 8   9685680.76445  23566966.578    23566987.1424
  21173019.564    -2413350.419 9  -1892746.11948  21173019.244    21173030.5784
  21388906.782     4843137.126 8   3551516.59647  21388906.808    21388920.5004
  23252175.686    12184740.711 8   9473853.86946  23252176.123    23252191.5954
  22495314.012   -10819759.873 8  -8431939.77446  22495314.358    22495327.1764
  23850848.109    -3004805.360 8  -2342226.35245  23850848.092    23850864.9824
  20654500.527     2477218.549 9   1916840.27647  20654500.337    20654512.3664
  20660200.712   -13039385.077 9 -10160500.82948  20660200.411    20660212.1914
 00  3  1 18 18  0.0000000  0  8 19 02 27 13 26 11 08 07
  23585194.116    12553929.695 7   9760318.28045  23585194.159    23585215.0204
  21173412.593    -2411285.479 9  -1891137.11548  21173412.262    21173423.5774
  21401785.333     4910813.695 8   3604251.40947  21401785.322    21401799.0674
  23270801.511    12282618.556 8   9550121.99246  23270801.838    23270817.4474
  22493217.544   -10830777.455 8  -8440524.99146  22493217.819    22493230.6464
  23855256.628    -2981639.150 8  -2324174.82345  23855256.649    23855273.5454
  20664812.968     2531410.120 9   1959067.34747  20664812.748    20664824.8634
  20654549.358   -13069083.060 9 -10183642.08648  20654549.063    20654560.8394
 00  3  1 18 18 30.0000000  0  8 19 02 27 13 26 11 08 07
  23603461.269    12649923.553 7   9835118.21845  23603461.393    23603482.3934
  21173824.505    -2409121.173 9  -1889450.67748  21173824.167    21173835.4754
  21414740.231     4978891.389 8   3657298.78647  21414740.233    21414753.9764
  23289457.374    12380655.197 8   9626513.85646  23289457.844    23289473.6104
  22491224.810   -10841249.463 8  -8448685.06246  22491225.138    22491237.9264
  23859755.889    -2957995.384 8  -2305751.18445  23859755.904    23859772.7974
  20675208.128     2586036.411 9   2001633.16747  20675207.881    20675219.9964
  20648991.433   -13098290.856 9 -10206401.37848  20648991.051    20649002.8124
 00  3  1 18 19  0.0000000  0  8 19 02 27 13 26 11 08 07
  23621771.020    12746140.967 8   9910092.38645  23621771.217    23621792.4084
  21174257.220    -2406847.242 9  -1887678.81648  21174256.897    21174268.2184
  21427775.682     5047392.208 8   3710675.86147  21427775.669    21427789.4434
  23308148.669    12478877.488 8   9703050.35046  23308149.174    23308164.9954
  22489335.034   -10851180.488 8  -8456423.60246  22489335.417    22489348.2294
  23864347.692    -2933865.343 8  -2286948.62945  23864347.686    23864364.7094
  20685684.823     2641091.507 9   2044533.12047  20685684.578    20685696.7404
  20643524.321   -13127020.703 9 -10228788.25148  20643523.966    20643535.6864
 00  3  1 18 19 30.0000000  0  8 19 02 27 13 26 11 08 07
  23640121.606    12842571.846 8   9985232.83845  23640121.854    23640143.1074
  21174714.345    -2404445.303 9  -1885807.21148  21174714.020    21174725.3584
  21440893.852     5116328.292 8   3764392.10147  21440893.918    21440907.7064
  23326874.260    12577279.420 8   9779726.83246  23326874.760    23326890.5934
  22487544.724   -10860588.681 8  -8463754.71846  22487545.166    22487558.0454
  23869034.278    -2909237.214 8  -2267757.97545  23869034.222    23869051.4194
  20696236.408     2696540.212 9   2087739.77447  20696236.204    20696248.4694
  20638146.223   -13155282.741 9 -10250810.59548  20638145.869    20638157.5904
 00  3  1 18 20  0.0000000  0  8 19 02 27 13 26 11 08 07
  23658511.428    12939209.611 8  10060534.51545  23658511.721    23658533.1334
  21175193.119    -2401929.470 9  -1883846.85548  21175192.829    21175204.1554
  21454098.449     5185718.081 8   3818461.89347  21454098.506    21454112.3054
  23345630.644    12675843.868 8   9856529.97346  23345631.225    23345647.1434
  22485852.460   -10869481.561 8  -8470684.27946  22485852.998    22485865.9104
  23873816.940    -2884104.374 8  -2248174.00845  23873816.910    23873834.0514
  20706862.909     2752382.379 9   2131253.02747  20706862.737    20706874.9654
  20632856.911   -13183078.025 9 -10272469.23748  20632856.591    20632868.3274
 00  3  1 18 20 30.0000000  0  8 19 02 27 13 26 11 08 07
  23676941.013    13036054.570 8  10135997.63945  23676941.273    23676962.5054
  21175692.399    -2399306.186 9  -1881802.77248  21175692.073    21175703.3864
  21467389.063     5255559.929 8   3872883.93147  21467389.106    21467402.9534
  23364416.023    12774559.978 8   9933451.27346  23364416.551    23364432.5684
  22484258.775   -10877856.854 8  -8477210.51646  22484259.241    22484272.1484
  23878698.503    -2858452.258 8  -2228185.40445  23878698.451    23878715.6264
  20717564.027     2808616.398 9   2175071.61347  20717563.829    20717576.0654
  20627656.095   -13210408.583 9 -10293765.74948  20627655.741    20627667.4944
 00  3  1 18 21  0.0000000  0  8 19 02 27 13 26 11 08 07
  23695410.003    13133108.708 8  10211623.76045  23695410.328    23695431.7984
  21176213.803    -2396566.297 9  -1879667.84648  21176213.482    21176224.8364
  21480760.589     5325827.082 8   3927637.36947  21480760.609    21480774.4664
  23383224.598    12873398.655 8  10010468.08246  23383225.149    23383241.2994
  22482763.784   -10885713.115 8  -8483332.34846  22482764.306    22482777.1854
  23883679.598    -2832276.442 8  -2207788.74745  23883679.622    23883696.8344
  20728338.743     2865237.157 9   2219191.55547  20728338.560    20728350.7604
  20622540.857   -13237288.901 9 -10314711.43148  20622540.512    20622552.2884
 00  3  1 18 21 30.0000000  0  8 19 02 27 13 26 11 08 07
  23713916.775    13230360.670 8  10287404.03945  23713917.036    23713938.8384
  21176755.277    -2393720.863 9  -1877450.68148  21176754.958    21176766.3114
  21494206.884     5396486.775 8   3982696.68447  21494206.890    21494220.6684
  23402052.232    12972337.924 8  10087563.26446  23402052.875    23402069.1364
  22481370.129   -10893037.543 8  -8489039.75346  22481370.541    22481383.4374
  23888760.028    -2805578.010 8  -2186984.85345  23888760.055    23888777.4324
  20739192.433     2922273.024 9   2263634.95547  20739192.226    20739204.4474
  20617513.017   -13263710.250 9 -10335299.47248  20617512.703    20617524.4484
 00  3  1 18 22  0.0000000  0  8 19 02 27 13 26 11 08 07
  23732461.751    13327811.604 8  10363339.34245  23732461.858    23732483.5134
  21177316.167    -2390773.474 9  -1875154.07148  21177315.849    21177327.2404
  21507724.738     5467522.592 8   4038049.08247  21507724.722    21507738.4684
  23420898.309    13071372.839 8  10164732.95446  23420898.779    23420915.1914
  22480081.376   -10899810.387 8  -8494317.34446  22480081.773    22480094.6554
  23893937.353    -2778372.001 7  -2165785.43145  23893937.312    23893954.6694
  20750131.431     2979757.817 9   2308428.17147  20750131.323    20750143.5604
  20612571.821   -13289676.333 9 -10355532.75948  20612571.464    20612583.1774
 00  3  1 18 22 30.0000000  0  8 19 02 27 13 26 11 08 07
  23751042.391    13425452.371 7  10439422.59145  23751042.385    23751064.5544
  21177900.467    -2387703.130 9  -1872761.63648  21177900.155    21177911.5674
  21521313.202     5538929.445 8   4093690.58747  21521313.175    21521326.9704
  23439762.390    13170503.071 8  10241976.95946  23439762.878    23439779.3714
  22478899.743   -10906020.111 8  -8499156.13046  22478900.131    22478913.0814
  23899209.207    -2750668.288 8  -2144198.20345  23899209.332    23899226.5114
  20761155.052     3037686.569 9   2353567.31947  20761154.891    20761167.1534
  20607717.476   -13315185.845 9 -10375410.27848  20607717.164    20607728.8484
 00  3  1 18 23  0.0000000  0  8 19 02 27 13 26 11 08 07
  23769658.272    13523277.133 8  10515649.16045  23769658.437    23769680.4974
  21178509.253    -2384504.345 9  -1870269.11248  21178508.933    21178520.3234
  21534973.179     5610712.492 8   4149625.23247  21534973.158    21534987.0164
  23458646.333    13269738.670 8  10319303.04346  23458646.996    23458663.7134
  22477826.244   -10911661.944 8  -8503552.45046  22477826.544    22477839.5064
  23904574.049    -2722475.496 8  -2122229.86745  23904574.247    23904591.4004
  20772264.463     3096065.981 9   2399057.61847  20772264.240    20772276.5394
  20602951.144   -13340232.904 9 -10394927.44748  20602950.844    20602962.5144
 00  3  1 18 23 30.0000000  0  8 19 02 27 13 26 11 08 07
  23788307.698    13621279.187 7  10592013.92245  23788307.867    23788330.2074
  21179141.599    -2381181.347 9  -1867679.79048  21179141.285    21179152.6704
  21548708.931     5682894.003 8   4205870.37047  21548708.969    21548722.8974
  23477552.526    13369090.023 8  10396719.32246  23477553.227    23477570.0354
  22476862.345   -10916727.419 8  -8507499.65146  22476862.701    22476875.7074
  23910030.448    -2693802.835 8  -2099887.59345  23910030.549    23910047.7704
  20783456.516     3154879.759 9   2444886.41147  20783456.252    20783468.5714
  20598274.101   -13364810.852 9 -10414079.06948  20598273.822    20598285.5114
 00  3  1 18 24  0.0000000  0  8 19 02 27 13 26 11 08 07
  23806991.927    13719464.102 8  10668521.11245  23806992.100    23807014.5294
  21179800.668    -2377717.999 9  -1864981.10648  21179800.359    21179811.7844
  21562525.605     5755500.469 8   4262446.64047  21562525.644    21562539.7114
  23496481.212    13468559.004 8  10474227.25746  23496481.814    23496498.7764
  22476007.783   -10921218.836 8  -8510999.52646  22476008.133    22476021.0964
  23915579.228    -2664644.417 8  -2077166.84645  23915579.259    23915596.3094
  20794727.296     3214107.589 9   2491037.83547  20794727.050    20794739.4084
  20593684.855   -13388927.341 9 -10432871.11448  20593684.559    20593696.2684
 00  3  1 18 24 30.0000000  0  8 19 02 27 13 26 11 08 07
  23825712.961    13817840.719 7  10745177.70745  23825713.071    23825735.6534
  21180485.664    -2374118.537 9  -1862176.35648  21180485.365    21180496.7994
  21576423.102     5828531.921 8   4319354.06947  21576423.113    21576437.3604
  23515432.038    13568144.014 8  10551825.62746  23515432.524    23515449.5154
  22475258.251   -10925158.154 8  -8514069.18146  22475258.572    22475271.5254
  23921221.811    -2634992.578 8  -2054061.60345  23921221.773    23921238.9954
  20806073.717     3273733.496 9   2537499.46447  20806073.525    20806085.9544
  20589182.808   -13412585.364 9 -10451305.91348  20589182.536    20589194.2454
 00  3  1 18 25  0.0000000  0  8 19 02 27 13 26 11 08 07
  23844468.913    13916402.535 7  10821978.63545  23844469.037    23844491.8444
  21181192.195    -2370405.889 9  -1859283.41848  21181191.856    21181203.3004
  21590396.963     5901964.507 8   4376574.06047  21590396.989    21590411.3294
  23534400.064    13667820.167 8  10629494.99145  23534400.623    23534417.5994
  22474606.782   -10928581.857 8  -8516737.06946  22474607.113    22474620.0954
  23926955.912    -2604860.883 8  -2030582.47945  23926955.853    23926973.0664
  20817492.509     3333739.377 9   2584257.16847  20817492.350    20817504.8144
  20584761.607   -13435818.726 9 -10469409.81148  20584761.326    20584773.0064
 00  3  1 18 25 30.0000000  0  8 19 02 27 13 26 11 08 07
  23863264.108    14015168.899 8  10898938.89445  23863264.224    23863286.9214
  21181922.347    -2366568.953 9  -1856293.62748  21181922.021    21181933.4894
  21604446.140     5975792.645 8   4434102.27547  21604446.123    21604460.5714
  23553384.947    13767584.413 8  10707233.01845  23553385.440    23553402.4564
  22474051.791   -10931498.414 8  -8519009.76446  22474052.137    22474065.1864
  23932782.162    -2574243.336 8  -2006724.73245  23932782.199    23932799.4944
  20828984.441     3394129.078 9   2631313.96447  20828984.264    20828996.7344
  20580421.623   -13458625.534 9 -10487181.32848  20580421.331    20580433.0024
 00  3  1 18 26  0.0000000  0  8 19 02 27 13 26 11 08 07
  23882102.265    14114160.794 7  10976074.93745  23882102.194    23882125.0614
  21182678.258    -2362596.611 9  -1853198.32948  21182677.957    21182689.4064
  21618568.144     6050003.973 8   4491929.07647  21618568.216    21618582.7714
  23572386.843    13867438.148 8  10785040.75545  23572387.255    23572404.3234
  22473592.701   -10933911.331 8  -8520890.03046  22473593.035    22473606.0734
  23938701.507    -2543136.845 8  -1982485.97545  23938701.571    23938719.0774
  20840553.904     3454926.309 9   2678688.30847  20840553.695    20840566.2004
  20576166.670   -13480985.518 9 -10504604.67048  20576166.396    20576178.0654
 00  3  1 18 26 30.0000000  0  8 19 02 27 13 26 11 08 07
  23900985.968    14213395.125 7  11053399.92145  23900985.960    23901009.1984
  21183461.173    -2358482.762 9  -1849992.76448  21183460.835    21183472.3144
  21632763.625     6124600.581 8   4550056.07847  21632763.669    21632778.3254
  23591407.611    13967391.422 8  10862926.06245  23591408.098    23591425.1984
  22473230.385   -10935815.920 8  -8522374.17046  22473230.686    22473243.7434
  23944713.880    -2511542.949 8  -1957867.43045  23944713.849    23944731.0974
  20852201.591     3516135.169 9   2726383.41147  20852201.401    20852213.9494
  20572000.482   -13502878.967 9 -10521664.48048  20572000.211    20572011.8854
 00  3  1 18 27  0.0000000  0  8 19 02 27 13 26 11 08 07
  23919915.926    14312870.118 7  11130912.36445  23919915.976    23919939.2234
  21184271.843    -2354222.959 9  -1846673.47748  21184271.524    21184283.0004
  21647033.405     6199587.826 8   4608487.49147  21647033.460    21647048.2114
  23610447.441    14067445.000 8  10940889.53245  23610447.936    23610465.1324
  22472967.929   -10937194.980 8  -8523448.82346  22472968.307    22472981.3844
  23950816.680    -2479472.351 8  -1932877.41345  23950816.674    23950834.0964
  20863928.721     3577760.948 9   2774403.38347  20863928.493    20863941.1184
  20567923.965   -13524301.223 9 -10538357.12648  20567923.723    20567935.4294
 00  3  1 18 27 30.0000000  0  8 19 02 27 13 26 11 08 07
  23938890.188    14412578.514 8  11208606.70445  23938890.170    23938913.3074
  21185109.887    -2349818.913 9  -1843241.79848  21185109.584    21185121.1154
  21661379.266     6274974.423 8   4667230.07447  21661379.289    21661394.0264
  23629507.088    14167602.146 8  11018933.70045  23629507.492    23629524.8134
  22472808.755   -10938031.916 8  -8524101.05646  22472809.098    22472822.1714
  23957008.195    -2446936.027 8  -1907524.49145  23957008.219    23957025.6034
  20875735.978     3639807.800 9   2822751.46247  20875735.719    20875748.3844
  20563939.227   -13545241.173 9 -10554673.94848  20563938.951    20563950.6694
 00  3  1 18 28  0.0000000  0  8 19 02 27 13 26 11 08 07
  23957903.534    14512492.461 8  11286461.20645  23957903.568    23957926.9254
  21185973.826    -2345279.137 9  -1839704.34747  21185973.496    21185985.0514
  21675800.806     6350758.667 8   4726282.51347  21675800.755    21675815.4934
  23648584.081    14267849.804 8  11097048.39745  23648584.304    23648601.7884
  22472754.344   -10938317.926 8  -8524324.00746  22472754.696    22472767.7594
  23963285.809    -2413947.671 8  -1881819.36745  23963285.783    23963303.0384
  20887623.042     3702273.924 9   2871426.25947  20887622.760    20887635.4144
  20560043.120   -13565715.203 9 -10570627.71748  20560042.829    20560054.5604
 00  3  1 18 28 30.0000000  0  8 19 02 27 13 26 11 08 07
  23976956.134    14612612.542 7  11364476.36845  23976956.127    23976979.9424
  21186866.419    -2340588.428 9  -1836049.29547  21186866.098    21186877.6594
  21690303.735     6426970.793 8   4785668.36247  21690303.625    21690318.3474
  23667680.444    14368200.435 8  11175243.32045  23667680.645    23667698.2334
  22472809.298   -10938029.270 8  -8524099.15046  22472809.628    22472822.7494
  23969656.950    -2380467.032 8  -1855730.58545  23969656.841    23969674.4054
  20899593.855     3765181.000 9   2920444.65447  20899593.592    20899606.3214
  20556235.172   -13585726.143 9 -10586220.63848  20556234.865    20556246.5894
 00  3  1 18 29  0.0000000  0  8 19 02 27 13 26 11 08 07
  23996039.627    14712895.716 7  11442618.63245  23996039.647    23996063.5894
  21187782.841    -2335772.688 9  -1832296.82347  21187782.543    21187794.1274
  21704883.454     6503586.936 8   4845369.03147  21704883.391    21704898.0964
  23686791.986    14468631.395 8  11253500.84645  23686792.274    23686809.9554
  22472969.685   -10937186.728 8  -8523442.67546  22472970.006    22472983.1594
  23976120.221    -2346503.055 8  -1829265.22745  23976120.177    23976137.5434
  20911647.689     3828523.758 9   2969802.55047  20911647.408    20911660.1514
  20552511.380   -13605295.139 9 -10601469.18648  20552511.033    20552522.6904
 00  3  1 18 29 30.0000000  0  8 19 02 27 13 26 11 08 07
  24015152.166    14813329.076 7  11520877.88945  24015152.116    24015175.9854
  21188722.717    -2330834.090 9  -1828448.60547  21188722.413    21188733.9984
  21719539.605     6580604.755 8   4905382.69547  21719539.605    21719554.2764
  23705917.482    14569134.944 8  11331814.92145  23705917.754    23705935.5424
  22473233.589   -10935800.150 8  -8522362.26046  22473233.934    22473247.1054
  23982678.984    -2312037.002 8  -1802408.62345  23982678.927    23982696.2654
  20923785.957     3892310.284 9   3019506.22947  20923785.684    20923798.4224
  20548872.904   -13624415.450 9 -10616368.10748  20548872.552    20548884.1744
 00  3  1 18 30  0.0000000  0  8 19 02 27 13 26 11 08 07
  24034291.349    14913905.875 8  11599248.95245  24034291.454    24034315.7164
  21189684.919    -2325777.955 9  -1824508.80547  21189684.617    21189696.2154
  21734271.871     6658021.588 8   4965707.26247  21734271.836    21734286.4664
  23725056.360    14669708.654 8  11410183.67545  23725056.545    23725074.4464
  22473597.289   -10933888.718 8  -8520872.89446  22473597.692    22473610.9154
  23989338.028    -2277044.262 8  -1775141.60045  23989337.866    23989355.2904
  20936007.650     3956534.848 9   3069551.22647  20936007.363    20936020.0734
  20545319.794   -13643087.159 9 -10630917.46948  20545319.461    20545331.0774
 00  3  1 18 30 30.0000000  0  8 19 02 27 13 26 11 08 07
  24053458.990    15014629.822 7  11677734.60345  24053459.087    24053483.1674
  21190668.990    -2320606.855 9  -1820479.43247  21190668.685    21190680.2974
  21749079.686     6735835.979 8   5026341.61647  21749079.635    21749094.3244
  23744210.947    14770365.729 8  11488617.38845  23744211.244    23744229.1514
  22474057.425   -10931470.650 8  -8518988.72546  22474057.894    22474071.1104
  23996099.671    -2241511.791 8  -1747454.02245  23996099.476    23996116.8254
  20948309.657     4021181.857 9   3119925.39947  20948309.387    20948322.1444
  20541855.205   -13661293.810 9 -10645104.45548  20541854.830    20541866.4684
 00  3  1 18 31  0.0000000  0  8 19 02 27 13 26 11 08 07
  24072655.342    15115507.398 7  11756339.98945  24072655.685    24072679.9354
  21191677.608    -2315306.766 9  -1816349.53547  21191677.297    21191688.9044
  21763963.069     6814048.110 8   5087285.90447  21763963.091    21763977.8424
  23763383.518    14871117.335 8  11567124.75745  23763383.931    23763401.7824
  22474615.527   -10928538.063 8  -8516703.64446  22474615.957    22474629.1624
  24002959.937    -2205461.357 8  -1719362.80945  24002959.777    24002977.2384
  20960691.423     4086248.098 9   3170626.26347  20960691.145    20960703.9784
  20538481.791   -13679021.253 9 -10658918.02148  20538481.405    20538493.0304
 00  3  1 18 31 30.0000000  0  8 19 02 27 13 26 11 08 07
  24091884.270    15216552.325 7  11835075.82645  24091884.415    24091908.6904
  21192712.905    -2309866.354 9  -1812110.29247  21192712.590    21192724.2114
  21778922.021     6892657.301 8   5148539.59547  21778922.085    21778936.8954
  23782573.917    14971962.534 8  11645705.04945  23782574.356    23782592.3994
  22475273.839   -10925079.205 8  -8514008.49246  22475274.221    22475287.4554
  24009918.692    -2168893.127 8  -1690868.13545  24009918.499    24009935.8244
  20973150.927     4151722.943 9   3221645.50547  20973150.690    20973163.5674
  20535199.089   -13696271.503 9 -10672359.76148  20535198.788    20535210.4044
 00  3  1 18 32  0.0000000  0  8 19 02 27 13 26 11 08 07
  24111147.789    15317780.970 7  11913954.81945  24111147.889    24111172.4344
  21193775.993    -2304279.857 9  -1807757.21947  21193775.704    21193787.3444
  21793953.207     6971646.276 8   5210089.21947  21793953.310    21793968.2604
  23801781.495    15072896.218 8  11724354.31445  23801781.749    23801799.7854
  22476033.958   -10921085.007 8  -8510896.19246  22476034.345    22476047.5654
  24016973.270    -2131821.200 8  -1661980.95145  24016973.075    24016990.3434
  20985682.564     4217576.974 9   3272960.21847  20985682.334    20985695.2144
  20532004.054   -13713061.432 9 -10685442.80748  20532003.740    20532015.3554
 00  3  1 18 32 30.0000000  0  9 19 02 04 27 13 26 11 08 07
  24130444.204    15419183.617 7  11992969.35445  24130444.360    24130468.9314
  21194863.612    -2298564.485 9  -1803303.71747  21194863.311    21194874.9844
  24325096.892    -6366100.359 7  -4945327.67845  24325097.326    24325121.5684
  21809049.297     7050975.955 8   5271904.32547  21809049.349    21809064.3654
  23820999.659    15173886.761 8  11803047.85445  23820999.854    23821017.9564
  22476896.594   -10916552.321 8  -8507364.27746  22476896.978    22476910.2284
  24024114.205    -2094295.850 8  -1632740.44445  24024113.982    24024131.3424
  20998284.145     4283798.316 9   3324561.14447  20998283.930    20998296.7944
  20528891.468   -13729418.023 9 -10698188.18648  20528891.135    20528902.7294
 00  3  1 18 33  0.0000000  0  9 19 02 04 27 13 26 11 08 07
  24149775.033    15520763.559 7  12072122.05745  24149775.038    24149799.6734
  21195974.290    -2292727.905 9  -1798755.76547  21195974.002    21195985.6964
  24305421.991    -6469490.808 7  -5025891.46545  24305422.436    24305446.8394
  21824208.936     7130639.479 8   5333979.55447  21824209.034    21824224.0504
  23840224.017    15274910.842 8  11881767.54845  23840224.356    23840242.6514
  22477865.001   -10911463.588 8  -8503399.09046  22477865.377    22477878.6704
  24031338.165    -2056333.539 8  -1603159.48745  24031337.942    24031355.3124
  21010958.468     4350401.885 9   3376459.88747  21010958.226    21010971.0924
  20525857.882   -13745359.544 9 -10710610.13648  20525857.575    20525869.1534
 00  3  1 18 33 30.0000000  0  9 19 02 04 27 13 26 11 08 07
  24169140.437    15622528.057 7  12151418.56245  24169140.431    24169165.2084
  21197107.470    -2286773.172 9  -1794115.73947  21197107.198    21197118.8924
  24285727.241    -6572984.622 7  -5106535.81345  24285727.940    24285752.3714
  21839431.888     7210635.573 8   5396313.93547  21839431.985    21839447.0724
  23859453.923    15375964.137 8  11960510.00545  23859454.413    23859472.7054
  22478938.551   -10905822.498 8  -8499003.49546  22478938.835    22478952.1564
  24038649.611    -2017911.257 8  -1573220.08045  24038649.439    24038666.9254
  21023706.013     4417390.638 9   3428658.77247  21023705.811    21023718.6984
  20522904.385   -13760880.449 9 -10722704.32748  20522904.049    20522915.6164
 00  3  1 18 34  0.0000000  0  9 19 02 04 27 13 26 11 08 07
  24188540.253    15724472.230 7  12230855.07445  24188540.171    24188564.8744
  21198260.211    -2280715.875 9  -1789395.80047  21198259.890    21198271.5714
  24266013.194    -6676584.715 7  -5187262.96545  24266013.519    24266038.0104
  21854718.500     7290966.312 8   5458909.07846  21854718.583    21854733.7444
  23878688.104    15477039.911 8  12039269.97845  23878688.757    23878707.1414
  22480115.829   -10899636.335 8  -8494183.16146  22480116.070    22480129.4304
  24046044.301    -1979052.218 8  -1542940.34745  24046044.050    24046061.5714
  21036527.709     4484768.588 9   3481160.92547  21036527.485    21036540.4194
  20520030.296   -13775984.045 9 -10734473.34648  20520029.939    20520041.5034
 00  3  1 18 34 30.0000000  0  9 19 02 04 27 13 26 11 08 07
  24207970.284    15826575.734 7  12310415.73945  24207970.241    24207995.0554
  21199431.908    -2274559.004 9  -1784598.28147  21199431.579    21199443.2774
  24246279.049    -6780288.070 7  -5268070.59245  24246279.310    24246303.6074
  21870072.781     7371651.966 8   5521780.77246  21870072.773    21870087.9304
  23897927.461    15578141.853 8  12118050.33045  23897928.028    23897946.5424
  22481395.914   -10892909.631 8  -8488941.61546  22481396.173    22481409.5114
  24053520.532    -1939764.078 8  -1512326.26545  24053520.383    24053537.9334
  21049426.830     4552553.758 9   3533980.39147  21049426.665    21049439.6934
  20517240.569   -13790643.807 9 -10745896.52248  20517240.270    20517251.8194
 00  3  1 18 35  0.0000000  0  9 19 02 04 27 13 26 11 08 07
  24227431.688    15928843.351 8  12390104.30245  24227431.516    24227456.5644
  21200626.818    -2268279.834 9  -1779705.46547  21200626.502    21200638.2264
  24226529.848    -6884070.071 7  -5348939.46945  24226530.133    24226554.5794
  21885499.046     7452716.640 8   5584947.82446  21885499.034    21885514.2444
  23917174.850    15679285.565 8  12196863.21145  23917175.413    23917193.9734
  22482777.100   -10885651.490 8  -8483285.95546  22482777.417    22482790.6894
  24061084.510    -1900015.510 8  -1481353.40045  24061084.438    24061101.8584
  21062403.653     4620746.283 9   3587117.28047  21062403.471    21062416.5484
  20514540.708   -13804831.857 9 -10756952.12348  20514540.379    20514551.9314
 00  3  1 18 35 30.0000000  0  9 19 02 04 27 13 26 11 08 07
  24246925.305    16031281.041 7  12469925.40545  24246925.193    24246950.4284
  21201849.891    -2261852.699 9  -1774697.35647  21201849.565    21201861.2964
  24206772.115    -6987896.270 7  -5429842.77845  24206772.390    24206796.7814
  21900998.920     7534168.703 8   5648416.73846  21900998.974    21901014.3404
  23936433.395    15780487.499 8  12275721.48545  23936433.801    23936452.4184
  22484259.020   -10877864.287 8  -8477218.04446  22484259.341    22484272.5784
  24068739.325    -1859789.251 8  -1450008.32545  24068739.368    24068756.8594
  21075455.863     4689335.714 9   3640563.44247  21075455.695    21075468.8274
  20511934.512   -13818527.406 9 -10767623.95948  20511934.203    20511945.7104
 00  3  1 18 36  0.0000000  0  9 19 02 04 27 13 26 11 08 07
  24266451.753    16133890.575 7  12549880.33645  24266451.753    24266476.6564
  21203102.147    -2255272.149 9  -1769569.70847  21203101.848    21203113.5684
  24187008.135    -7091756.393 7  -5510772.46845  24187008.473    24187032.6324
  21916573.100     7616010.321 8   5712189.20346  21916573.091    21916588.5404
  23955703.870    15881752.643 8  12354629.01545  23955704.270    23955723.1244
  22485842.991   -10869540.907 8  -8470732.34346  22485843.324    22485856.5534
  24076485.005    -1819086.219 8  -1418291.73945  24076484.907    24076502.4844
  21088584.571     4758326.620 9   3694322.44547  21088584.367    21088597.5014
  20509422.710   -13831726.989 9 -10777909.32748  20509422.412    20509433.8994
 00  3  1 18 36 30.0000000  0  9 19 02 04 27 13 26 11 08 07
  24286009.932    16236668.731 7  12629966.75545  24286009.984    24286035.1044
  21204385.330    -2248529.087 9  -1764315.43847  21204385.000    21204396.7554
  24167238.953    -7195640.918 8  -5591721.19645  24167239.409    24167263.5984
  21932221.542     7698242.283 8   5776265.81546  21932221.598    21932236.8304
  23974985.197    15983075.118 8  12433581.21845  23974985.631    23975004.4924
  22487528.389   -10860684.190 8  -8463831.06446  22487528.768    22487542.0404
  24084326.687    -1777877.908 8  -1386181.43145  24084326.587    24084344.3124
  21101789.975     4827720.810 9   3748395.68147  21101789.775    21101802.9034
  20507005.754   -13844428.349 9 -10787806.46948  20507005.426    20507016.9024
 00  3  1 18 37  0.0000000  0  9 19 02 04 27 13 26 11 08 07
  24305603.026    16339628.872 7  12710194.94045  24305602.942    24305628.3044
  21205697.157    -2241635.451 9  -1758943.83947  21205696.841    21205708.6294
  24147466.312    -7299545.027 7  -5672685.11645  24147466.767    24147491.0654
  21947943.352     7780860.272 8   5840643.23446  21947943.425    21947958.6654
  23994277.515    16084454.192 8  12512577.50745  23994277.786    23994296.6884
  22489314.345   -10851298.795 8  -8456517.85046  22489314.782    22489328.0684
  24092267.038    -1736151.286 8  -1353667.25545  24092266.910    24092284.7714
  21115072.283     4897519.230 9   3802783.90847  21115072.100    21115085.2454
  20504678.407   -13856658.825 9 -10797336.69348  20504678.047    20504689.5284
 00  3  1 18 37 30.0000000  0  9 19 02 04 27 13 26 11 08 07
  24325227.425    16442754.567 7  12790552.11545  24325227.544    24325252.8444
  21207032.178    -2234620.229 9  -1753477.49547  21207031.857    21207043.6134
  24127686.414    -7403488.234 7  -5753679.49345  24127686.960    24127711.0734
  21963736.944     7863854.792 8   5905314.06446  21963736.941    21963752.3424
  24013577.183    16185873.168 8  12591604.88745  24013577.495    24013596.5144
  22491200.723   -10841386.039 8  -8448793.68546  22491201.165    22491214.4544
  24100304.485    -1693914.719 8  -1320755.73745  24100304.277    24100322.2834
  21128431.044     4967719.180 9   3857485.01147  21128430.841    21128444.0414
  20502435.325   -13868446.001 9 -10806521.48448  20502434.980    20502446.4414
 00  3  1 18 38  0.0000000  0  9 19 02 04 27 13 26 11 08 07
  24344880.837    16546031.180 7  12871026.86945  24344880.770    24344906.2854
  21208386.590    -2227502.843 9  -1747931.54547  21208386.290    21208398.0494
  24107895.355    -7507489.707 7  -5834719.25545  24107895.762    24107919.9634
  21979602.945     7947229.986 8   5970281.52046  21979602.967    21979618.4374
  24032880.073    16287308.510 8  12670645.04145  24032880.363    24032899.4184
  22493185.134   -10830958.148 8  -8440668.12446  22493185.582    22493198.8654
  24108436.964    -1651177.979 8  -1287454.46445  24108436.916    24108454.7614
  21141867.820     5038329.160 9   3912505.60347  21141867.659    21141880.8484
  20500274.988   -13879798.415 9 -10815367.49948  20500274.705    20500286.1684
 00  3  1 18 38 30.0000000  0  9 19 02 04 27 13 26 11 08 07
  24364562.368    16649457.173 7  12951618.11645  24364562.442    24364587.9974
  21209759.666    -2220287.638 9  -1742309.37047  21209759.359    21209771.1184
  24088094.606    -7611542.790 7  -5915799.22645  24088094.989    24088118.9744
  21995543.306     8030996.669 8   6035554.04046  21995543.392    21995558.9564
  24052185.546    16388757.252 8  12749695.62745  24052185.758    24052204.9264
  22495266.352   -10820021.860 8  -8432146.39746  22495266.760    22495280.0464
  24116664.384    -1607942.938 8  -1253764.91545  24116664.340    24116682.1944
  21155382.134     5109346.891 9   3967843.92847  21155381.963    21155395.2424
  20498196.509   -13890720.673 9 -10823878.33048  20498196.224    20498207.6894
 00  3  1 18 39  0.0000000  0  9 19 02 04 27 13 26 11 08 07
  24384271.998    16753028.567 7  13032322.61145  24384271.841    24384297.5374
  21211153.314    -2212964.360 9  -1736602.98447  21211153.014    21211164.7694
  24068282.922    -7715652.247 7  -5996923.11945  24068283.435    24068307.3614
  22011556.393     8115145.593 8   6101124.39546  22011556.546    22011572.1514
  24071494.811    16490227.321 8  12828762.80745  24071495.150    24071514.4584
  22497443.895   -10808579.061 8  -8423229.98946  22497444.283    22497457.5674
  24124984.322    -1564221.857 8  -1219696.64045  24124984.291    24125002.0624
  21168972.323     5180762.723 9   4023492.46547  21168972.125    21168985.4354
  20496199.403   -13901215.465 9 -10832056.07948  20496199.087    20496210.5594
 00  3  1 18 39 30.0000000  0  9 19 02 04 27 13 26 11 08 07
  24404005.895    16856730.553 7  13113128.89045  24404005.736    24404032.0524
  21212571.600    -2205511.578 9  -1730795.68147  21212571.282    21212583.0754
  24048459.361    -7819824.525 7  -6078095.95245  24048459.878    24048483.7814
  22027641.066     8199669.953 8   6166987.30346  22027641.221    22027656.7944
  24090806.365    16591709.383 8  12907839.35445  24090806.741    24090826.2324
  22499717.310   -10796631.797 8  -8413920.47346  22499717.780    22499731.0764
  24133393.452    -1520032.485 8  -1185263.46145  24133393.369    24133411.2254
  21182636.002     5252565.060 9   4079442.19247  21182635.796    21182649.1324
  20494287.000   -13911265.501 9 -10839887.26148  20494286.641    20494298.1444
 00  3  1 18 40  0.0000000  0  9 19 02 04 27 13 26 11 08 07
  24423766.039    16960569.600 7  13194041.94345  24423766.138    24423792.3624
  21214019.351    -2197903.661 9  -1724867.48947  21214019.050    21214030.8744
  24028625.797    -7924048.440 7  -6159309.03645  24028626.418    24028650.2414
  22043798.688     8284578.425 8   6233149.53246  22043798.836    22043814.6224
  24110123.730    16693221.878 8  12986939.60345  24110124.167    24110143.8044
  22502088.748   -10784169.396 8  -8404209.56446  22502089.268    22502102.5984
  24141890.262    -1475381.150 7  -1150470.32045  24141890.228    24141908.1924
  21196373.329     5324754.125 9   4135693.25747  21196373.086    21196386.4114
  20492461.202   -13920860.101 9 -10847363.56448  20492460.875    20492472.3794
 00  3  1 18 40 30.0000000  0  9 19 02 04 27 13 26 11 08 07
  24443551.878    17064542.826 7  13275059.56245  24443552.119    24443578.4404
  21215498.850    -2190128.930 9  -1718809.31247  21215498.546    21215510.3854
  24008784.784    -8028313.188 8  -6240553.95645  24008785.414    24008809.1014
  22060026.584     8369855.913 8   6299599.29846  22060026.721    22060042.6294
  24129450.091    16794781.898 8  13066076.89445  24129450.777    24129470.2834
  22504559.733   -10771184.346 8  -8394091.38646  22504560.277    22504573.6614
  24150472.916    -1430279.092 8  -1115325.97645  24150472.934    24150490.8614
  21210181.947     5397318.123 9   4192236.48847  21210181.667    21210195.0604
  20490721.900   -13930000.219 9 -10854485.72148  20490721.539    20490733.0254
 00  3  1 18 41  0.0000000  0  9 19 02 04 27 13 26 11 08 07
  24463361.527    17168641.534 7  13356174.95945  24463361.797    24463387.8414
  21217012.814    -2182173.275 9  -1712610.15447  21217012.518    21217024.3374
  23988937.229    -8132612.972 7  -6321826.17845  23988937.515    23988961.2314
  22076321.411     8455485.018 8   6366323.04846  22076321.580    22076337.5134
  24148783.140    16896376.359 8  13145241.01445  24148783.994    24148803.3534
  22507130.539   -10757674.803 8  -8383564.50746  22507131.137    22507144.5024
  24159140.979    -1384728.904 8  -1079832.44145  24159140.844    24159158.8424
  21224061.219     5470253.746 9   4249069.29647  21224060.978    21224074.4174
  20489068.799   -13938687.101 9 -10861254.71348  20489068.453    20489079.9404
 00  3  1 18 41 30.0000000  0  9 19 02 04 27 13 26 11 08 07
  24483195.302    17272866.212 7  13437388.55645  24483195.495    24483221.8464
  21218558.186    -2174052.799 9  -1706282.56247  21218557.858    21218569.7014
  23969086.655    -8236926.785 7  -6403109.36645  23969086.967    23969110.6794
  22092685.206     8541476.169 8   6433328.90946  22092685.342    22092701.3124
  24168120.550    16997993.749 8  13224423.03145  24168121.536    24168140.8184
  22509802.540   -10743633.950 8  -8372623.62846  22509803.117    22509816.4654
  24167892.965    -1338737.383 7  -1043995.00245  24167892.935    24167910.9244
  21238013.571     5543573.117 9   4306201.11647  21238013.269    21238026.6994
  20487501.175   -13946924.429 9 -10867673.40448  20487500.848    20487512.3604
 00  3  1 18 42  0.0000000  0  9 19 02 04 27 13 26 11 08 07
  24503054.276    17377223.578 7  13518705.55745  24503054.477    24503081.1314
  21220131.949    -2165782.683 9  -1699838.36547  21220131.619    21220143.4594
  23949236.470    -8341239.667 7  -6484391.85145  23949236.749    23949260.3464
  22109116.689     8627823.082 8   6500611.99046  22109116.817    22109132.7694
  24187460.149    17099623.080 8  13303614.33245  24187461.199    24187480.7514
  22512575.340   -10729063.542 8  -8361270.10046  22512575.778    22512589.1864
  24176730.867    -1292294.664 7  -1007806.01245  24176730.747    24176748.6644
  21252039.040     5617276.381 9   4363632.07347  21252038.709    21252052.1264
  20486016.649   -13954725.533 9 -10873752.17848  20486016.336    20486027.8634
 00  3  1 18 42 30.0000000  0  8 02 04 27 13 26 11 08 07
  21221731.775    -2157375.719 9  -1693287.54047  21221731.471    21221743.3344
  23929388.328    -8445539.976 8  -6565664.57745  23929388.739    23929412.2384
  22125612.485     8714507.815 8   6568158.29346  22125612.537    22125628.4994
  24206797.010    17201237.091 8  13382793.69745  24206797.942    24206817.6524
  22515447.162   -10713972.901 8  -8349511.21346  22515447.460    22515460.8714
  24185653.750    -1245404.603 7   -971268.38245  24185653.561    24185671.9274
  21266138.298     5691367.661 9   4421365.37447  21266137.929    21266151.3294
  20484614.954   -13962091.298 9 -10879491.73748  20484614.676    20484626.2064
 00  3  1 18 43  0.0000000  0  8 02 04 27 13 26 11 08 07
  21223353.797    -2148852.237 9  -1686645.92347  21223353.498    21223365.3724
  23909542.241    -8549831.711 7  -6646930.62745  23909542.489    23909565.7814
  22142173.170     8801533.272 8   6635970.08546  22142173.162    22142189.0634
  24226128.172    17302821.214 8  13461949.77345  24226129.029    24226148.9094
  22518416.198   -10698372.115 8  -8337354.81046  22518416.334    22518429.6514
  24194662.754    -1198062.404 7   -934378.48745  24194662.614    24194680.5724
  21280312.742     5765854.316 9   4479406.75847  21280312.386    21280325.7984
  20483294.940   -13969028.480 9 -10884897.32748  20483294.620    20483306.1204
 00  3  1 18 43 30.0000000  0  8 02 04 27 13 26 11 08 07
  21224997.124    -2140216.620 9  -1679916.92247  21224996.830    21225008.7394
  23889695.762    -8654123.450 7  -6728196.71145  23889696.298    23889719.6054
  22158799.729     8888905.218 8   6704051.87946  22158799.691    22158815.5784
  24245456.128    17404388.483 8  13541092.73545  24245457.008    24245476.7344
  22521483.450   -10682253.889 8  -8324795.21646  22521483.561    22521496.9184
  24203758.383    -1150264.602 7   -897133.59845  24203758.167    24203776.3964
  21294564.361     5840746.743 9   4537764.33347  21294564.010    21294577.5434
  20482056.928   -13975533.998 9 -10889966.55548  20482056.647    20482068.1674
 00  3  1 18 44  0.0000000  0  8 02 04 27 13 26 11 08 07
  21226665.011    -2131452.121 9  -1673087.48747  21226664.686    21226676.6194
  23869845.957    -8758434.122 8  -6809477.54145  23869846.429    23869869.5964
  22175488.922     8976606.648 8   6772390.41246  22175488.938    22175504.7934
  24264781.235    17505941.179 8  13620224.30745  24264782.060    24264802.0724
  22524647.475   -10665626.466 8  -8311838.83946  22524647.691    22524661.1334
  24212942.823    -1101999.530 7   -859524.60345  24212942.778    24212960.8844
  21308891.678     5916036.980 9   4596431.88447  21308891.371    21308905.0104
  20480902.455   -13981600.681 9 -10894693.83048  20480902.187    20480913.7404
 00  3  1 18 44 30.0000000  0  8 02 04 27 13 26 11 08 07
  21228358.693    -2122551.712 9  -1666152.16047  21228358.373    21228370.3614
  23849990.468    -8862775.191 8  -6890782.09145  23849990.976    23850013.9764
  22192241.404     9064640.819 8   6840988.23046  22192241.480    22192257.3924
  24284105.531    17607488.362 7  13699351.62545  24284106.154    24284126.2884
  22527909.703   -10648483.327 8  -8298480.61346  22527909.972    22527923.4464
  24222216.640    -1053267.025 7   -821551.34845  24222216.509    24222234.8364
  21323294.110     5991722.186 9   4655407.20447  21323293.861    21323307.5774
  20479831.531   -13987228.633 9 -10899079.24348  20479831.228    20479842.7814
 00  3  1 18 45  0.0000000  0  9 02 04 27 13 26 11 09 08 07
  21230078.112    -2113516.326 9  -1659111.65647  21230077.793    21230089.8264
  23830125.794    -8967164.820 8  -6972124.49345  23830125.998    23830149.1174
  22209058.204     9153012.671 8   6909849.15946  22209058.289    22209074.2584
  24303430.200    17709038.968 8  13778481.57145  24303430.714    24303451.1554
  22531268.797   -10630830.127 8  -8284724.92346  22531269.247    22531282.7534
  24231579.823    -1004064.044 7   -783211.48745  24231579.816    24231597.5554
  24492997.875    -6283238.812 7  -4862298.61745  24492997.810    24493013.1254
  21337768.306     6067783.855 9   4714675.87847  21337768.050    21337781.7424
  20478841.750   -13992429.897 9 -10903132.17248  20478841.473    20478853.0354
 00  3  1 18 45 30.0000000  0  9 02 04 27 13 26 11 09 08 07
  21231818.450    -2104371.272 9  -1651985.66847  21231818.138    21231830.1454
  23810245.188    -9071636.421 7  -7053530.74845  23810245.491    23810268.4754
  22225932.399     9241686.773 8   6978945.61846  22225932.497    22225948.6704
  24322747.859    17810552.061 8  13857582.29745  24322748.231    24322768.6654
  22534719.964   -10612693.991 8  -8270592.92646  22534720.457    22534733.9784
  24241025.627     -954426.401 7   -744532.89945  24241025.727    24241043.7364
  24473844.314    -6383890.427 7  -4940728.59045  24473844.500    24473859.9194
  21352304.466     6144170.685 9   4774197.93347  21352304.187    21352317.8644
  20477926.421   -13997239.867 9 -10906880.19348  20477926.147    20477937.6514
 00  3  1 18 46  0.0000000  0  9 02 04 27 13 26 11 09 08 07
  21233586.632    -2095079.596 9  -1644745.43747  21233586.314    21233598.3834
  23790358.701    -9176138.659 8  -7134960.89545  23790359.128    23790382.3204
  22242873.906     9330714.360 8   7048317.49946  22242873.998    22242890.2864
  24342064.201    17912056.938 8  13936676.63745  24342064.389    24342084.8204
  22538268.193   -10594047.906 8  -8256063.56546  22538268.771    22538282.3054
  24250561.887     -904313.894 7   -705484.30145  24250561.705    24250580.0304
  24454706.153    -6484463.554 7  -5019097.36645  24454706.099    24454721.6554
  21366905.815     6220900.459 9   4833987.21947  21366905.539    21366919.1804
  20477094.508   -14001611.705 9 -10910286.81848  20477094.233    20477105.7224
 00  3  1 18 46 30.0000000  0  9 02 04 27 13 26 11 09 08 07
  21235380.353    -2085653.880 9  -1637400.75547  21235380.042    21235392.1074
  23770468.447    -9280662.691 8  -7216408.00345  23770468.687    23770491.8694
  22259885.382     9420108.628 8   7117975.10946  22259885.341    22259901.7834
  24361378.716    18013553.813 8  14015764.76645  24361378.847    24361399.3524
  22541912.224   -10574898.493 8  -8241141.99046  22541912.809    22541926.3814
  24260187.088     -853733.037 7   -666070.72945  24260186.962    24260205.2434
  24435580.330    -6584967.714 7  -5097412.45145  24435580.959    24435596.4564
  21381570.998     6297965.717 9   4894037.92247  21381570.736    21381584.2974
  20476344.516   -14005552.917 9 -10913357.89148  20476344.272    20476355.7554
 00  3  1 18 47  0.0000000  0  9 02 04 27 13 26 11 09 08 07
  21237198.114    -2076101.829 9  -1629957.64447  21237197.774    21237209.8594
  23750577.793    -9385190.210 8  -7297857.78745  23750577.767    23750600.8164
  22276966.229     9509868.545 8   7187917.63846  22276966.216    22276982.9084
  24380690.052    18115033.490 8  14094839.44245  24380690.029    24380710.7924
  22545648.627   -10555264.227 8  -8225842.62746  22545649.172    22545662.7354
  24269901.296     -802684.877 7   -626293.04145  24269901.247    24269919.4494
  24416462.570    -6685435.459 7  -5175699.11845  24416462.545    24416478.3684
  21396301.058     6375371.980 8   4954354.35447  21396300.819    21396314.3744
  20475675.741   -14009067.694 9 -10916096.67748  20475675.445    20475686.9384
 00  3  1 18 47 30.0000000  0  9 02 04 27 13 26 11 09 08 07
  21239041.226    -2066416.324 9  -1622410.52947  21239040.898    21239053.0064
  23730688.057    -9489708.305 8  -7379300.28245  23730688.347    23730711.5404
  22294114.493     9599982.577 8   7258136.08146  22294114.525    22294131.3184
  24399995.794    18216483.823 8  14173891.31545  24399995.685    24400016.4814
  22549476.164   -10535150.570 8  -8210169.69646  22549476.702    22549490.2664
  24279705.269     -751164.449 7   -586147.33545  24279705.320    24279723.9354
  24397351.368    -6785865.368 7  -5253956.32045  24397351.485    24397367.2044
  21411098.206     6453130.716 8   5014945.43747  21411097.925    21411111.5544
  20475088.786   -14012152.214 9 -10918500.19148  20475088.491    20475099.9864
 00  3  1 18 48  0.0000000  0  9 02 04 27 13 26 11 09 08 07
  21240911.603    -2056587.469 9  -1614751.72347  21240911.293    21240923.4634
  23710801.956    -9594209.895 7  -7460729.85445  23710802.274    23710825.3544
  22311327.233     9690435.259 8   7328618.39846  22311327.289    22311344.1594
  24419294.762    18317900.851 7  14252917.19145  24419294.843    24419316.1404
  22553394.310   -10514560.006 8  -8194125.14946  22553395.000    22553408.6014
  24289598.352     -699177.056 7   -545637.75845  24289598.411    24289616.5604
  24378250.312    -6886242.709 7  -5332172.53845  24378250.478    24378266.0604
  21425965.870     6531260.232 8   5075825.44247  21425965.602    21425979.3214
  20474582.407   -14014813.396 9 -10920573.83848  20474582.062    20474593.5574
 00  3  1 18 48 30.0000000  0  9 02 04 27 13 26 11 09 08 07
  21242808.893    -2046617.273 9  -1606982.78347  21242808.580    21242820.7764
  23690922.161    -9698676.926 7  -7542132.49645  23690922.547    23690945.7814
  22328598.799     9781196.694 8   7399341.31046  22328598.862    22328615.8224
  24438586.539    18419280.730 7  14331914.15445  24438587.216    24438608.3914
  22557405.251   -10493482.047 8  -8177700.82146  22557406.023    22557419.6384
  24299576.566     -646741.821 7   -504779.17945  24299576.632    24299594.8944
  24359160.064    -6986564.767 7  -5410345.65745  24359159.804    24359175.4874
  21440909.963     6609791.240 8   5137018.29847  21440909.647    21440923.4624
  20474155.173   -14017058.182 9 -10922323.02248  20474154.847    20474166.3664
 00  3  1 18 49  0.0000000  0  9 02 04 27 13 26 11 09 08 07
  21244733.238    -2036504.880 9  -1599103.03847  21244732.927    21244745.1214
  23671049.854    -9803104.872 8  -7623504.66945  23671050.343    23671073.5914
  22345925.705     9872249.245 8   7470291.08246  22345925.717    22345942.9134
  24457869.350    18520612.823 8  14410873.82545  24457870.388    24457891.6964
  22561509.498   -10471913.948 8  -8160894.56046  22561510.281    22561523.9524
  24309636.231     -593877.668 7   -463586.43045  24309636.310    24309654.3114
  24340081.992    -7086820.473 7  -5488467.10445  24340081.941    24340097.7664
  21455932.794     6688736.238 8   5198533.73947  21455932.427    21455946.3554
  20473809.542   -14018874.292 9 -10923738.16948  20473809.277    20473820.7964
 00  3  1 18 49 30.0000000  0  9 02 04 27 13 26 11 09 08 07
  21246687.101    -2026237.539 9  -1591102.56647  21246686.745    21246698.9344
  23651183.593    -9907502.667 8  -7704853.32245  23651184.037    23651207.0384
  22363307.819     9963591.505 8   7541466.57746  22363307.813    22363325.0954
  24477144.841    18621903.837 8  14489801.53745  24477145.784    24477166.8574
  22565711.834   -10449831.554 8  -8143687.55446  22565712.492    22565726.1214
  24319773.743     -540605.546 7   -422075.76245  24319773.731    24319792.0904
  24321022.914    -7186979.283 7  -5566513.02145  24321022.536    24321038.2924
  21471033.213     6768089.772 8   5260367.50747  21471032.883    21471047.0154
  20473549.493   -14020241.290 9 -10924803.35748  20473549.157    20473560.6764
 00  3  1 18 50  0.0000000  0  9 02 04 27 13 26 11 09 08 07
  21248670.688    -2015813.674 9  -1582980.12247  21248670.352    21248682.5044
  23631324.131   -10011862.384 8  -7786172.31245  23631324.744    23631347.7644
  22380747.202    10055235.192 8   7612876.95146  22380747.241    22380764.5224
  24496414.056    18723161.870 8  14568703.54445  24496414.904    24496435.9904
  22570015.201   -10427218.023 8  -8126066.68246  22570015.783    22570029.4434
  24329986.828     -486935.703 8   -380255.21645  24329986.830    24330005.0154
  24301983.118    -7287032.622 7  -5644476.78745  24301983.306    24301998.8524
  21486209.942     6847843.906 8   5322513.42947  21486209.627    21486223.9124
  20473379.145   -14021136.351 9 -10925500.80548  20473378.865    20473390.3734
 00  3  1 18 50 30.0000000  0  9 02 04 27 13 26 11 09 08 07
  21250685.065    -2005228.133 9  -1574731.69747  21250684.747    21250696.9554
  23611473.892   -10116176.037 8  -7867455.35545  23611474.476    23611497.2214
  22398249.526    10147209.591 8   7684545.00346  22398249.673    22398266.9704
  24515679.960    18824403.970 7  14647593.11745  24515680.747    24515702.1464
  22574420.470   -10404068.349 8  -8108028.04146  22574421.013    22574434.7494
  24340279.200     -432849.378 7   -338110.10245  24340279.046    24340297.4724
  24282965.977    -7386971.001 7  -5722350.92545  24282965.863    24282981.2504
  21501460.264     6927985.181 8   5384961.02247  21501460.059    21501474.4464
  20473302.995   -14021536.613 9 -10925812.68848  20473302.687    20473314.1884
 00  3  1 18 51  0.0000000  0  9 02 04 27 13 26 11 09 08 07
  21252732.601    -1994468.435 9  -1566347.56347  21252732.280    21252744.5034
  23591629.796   -10220457.280 8  -7948713.12845  23591630.275    23591652.8984
  22415820.338    10239543.010 8   7756492.82646  22415820.470    22415837.6984
  24534943.199    18925631.380 7  14726471.26345  24534943.941    24534965.2944
  22578929.011   -10380375.669 8  -8089566.27746  22578929.582    22578943.3664
  24350655.512     -378322.062 7   -295621.39045  24350655.541    24350673.6984
  24263971.660    -7486788.906 7  -5800131.20345  24263971.272    24263986.6124
  21516780.248     7008491.114 8   5447692.75547  21516780.003    21516794.3494
  20473320.567   -14021444.095 9 -10925740.59248  20473320.275    20473331.7724
 00  3  1 18 51 30.0000000  0  9 02 04 27 13 26 11 09 08 07
  21254813.184    -1983534.835 9  -1557827.91447  21254812.899    21254825.1004
  23571793.003   -10324700.239 8  -8029941.03145  23571793.228    23571815.8344
  22433461.445    10332246.716 8   7828729.19046  22433461.548    22433478.8424
  24554202.238    19026835.516 7  14805331.25745  24554202.788    24554224.1514
  22583540.729   -10356141.205 8  -8070682.34846  22583541.290    22583555.0584
  24361119.879     -323331.611 7   -252771.77245  24361120.058    24361138.0894
  24244997.290    -7586499.036 7  -5877827.50845  24244997.347    24245012.5844
  21532166.655     7089346.444 8   5510696.75247  21532166.381    21532180.7274
  20473427.042   -14020884.384 9 -10925304.45048  20473426.772    20473438.2584
 00  3  1 18 52  0.0000000  0  9 02 04 27 13 26 11 09 08 07
  21256924.617    -1972439.508 9  -1549182.25747  21256924.307    21256936.4994
  23551963.701   -10428901.785 8  -8111136.64845  23551964.085    23551986.5594
  22451172.317    10425317.735 8   7901251.77646  22451172.476    22451189.9654
  24573452.322    19127993.848 7  14884155.58245  24573452.862    24573474.3494
  22588249.884   -10331395.439 8  -8051399.98846  22588250.319    22588264.0634
  24371675.935     -267860.180 7   -209547.39745  24371675.961    24371694.0354
  24226041.028    -7686114.567 7  -5955450.08145  24226041.260    24226056.4294
  21547620.648     7170557.467 8   5573977.90447  21547620.462    21547634.8094
  20473615.692   -14019893.100 9 -10924532.02248  20473615.411    20473626.9104
 00  3  1 18 52 30.0000000  0  9 02 04 27 13 26 11 09 08 07
  21259063.377    -1961200.603 9  -1540424.70847  21259063.067    21259075.2104
  23532139.883   -10533075.033 8  -8192310.20145  23532140.299    23532162.6704
  22468952.649    10518752.087 8   7974057.46346  22468952.767    22468970.1654
  24592690.458    19229090.319 7  14962931.70745  24592691.283    24592712.6074
  22593050.639   -10306167.952 8  -8031742.27646  22593050.996    22593064.7314
  24382321.422     -211917.197 7   -165955.53045  24382321.460    24382339.6934
  24207101.337    -7785643.426 7  -6033005.13845  24207101.682    24207116.7514
  21563143.795     7252130.889 8   5637541.44847  21563143.536    21563157.9044
  20473878.567   -14018511.807 9 -10923455.68848  20473878.279    20473889.7934
 00  3  1 18 53  0.0000000  0  9 02 04 27 13 26 11 09 08 07
  21261224.731    -1949842.725 9  -1531574.46147  21261224.430    21261236.6094
  23512320.141   -10637228.305 8  -8273468.16845  23512320.401    23512342.6964
  22486798.004    10612528.694 8   8047129.84146  22486798.073    22486815.5824
  24611914.467    19330111.485 7  15041649.13645  24611915.185    24611936.6294
  22597940.640   -10280471.475 8  -8011719.12146  22597940.951    22597954.6944
  24393051.347     -155531.976 7   -122019.05345  24393051.202    24393069.5654
  24188176.809    -7885095.805 7  -6110500.56645  24188176.554    24188191.7764
  21578736.058     7334067.805 8   5701388.23747  21578735.792    21578750.1804
  20474210.636   -14016766.954 9 -10922096.05848  20474210.339    20474221.8364
 00  3  1 18 53 30.0000000  0  9 02 04 27 13 26 11 09 08 07
  21263408.638    -1938366.540 9  -1522632.02747  21263408.339    21263420.5094
  23492504.359   -10741359.577 8  -8354608.99145  23492504.638    23492526.8194
  22504704.628    10706627.248 8   8120453.08346  22504704.626    22504722.1824
  24631123.379    19431052.497 8  15120304.11545  24631123.857    24631145.5494
  22602914.889   -10254331.368 8  -7991350.28946  22602915.277    22602929.0624
  24403860.997      -98727.352 7    -77755.79245  24403860.828    24403879.1944
  24169263.674    -7984483.471 7  -6187945.58845  24169263.797    24169278.9784
  21594396.716     7416364.082 8   5765515.03847  21594396.430    21594410.8034
  20474610.873   -14014663.757 9 -10920457.20148  20474610.572    20474622.0594
 00  3  1 18 54  0.0000000  0  9 02 04 27 13 26 11 09 08 07
  21265615.790    -1926768.212 9  -1513594.41047  21265615.480    21265627.6614
  23472691.124   -10845476.591 8  -8435738.69745  23472691.585    23472713.6814
  22522670.159    10801035.490 8   8194017.64946  22522670.170    22522687.7074
  24650319.276    19531924.413 8  15198905.27045  24650319.408    24650341.1874
  22607974.231   -10227744.626 8  -7970633.42546  22607974.655    22607988.5064
  24414745.786      -41527.471 7    -33184.60345  24414745.713    24414764.1114
  24150365.537    -8083793.096 7  -6265329.78745  24150365.770    24150381.1094
  21610124.811     7499015.405 8   5829918.51047  21610124.532    21610138.9164
  20475082.401   -14012185.933 9 -10918526.43048  20475082.096    20475093.6084
 00  3  1 18 54 30.0000000  0  9 02 04 27 13 26 11 09 08 07
  21267847.442    -1915041.343 9  -1504456.63147  21267847.096    21267859.2964
  23452883.364   -10949565.615 8  -8516846.57645  23452883.718    23452905.8064
  22540691.214    10895736.664 8   8267810.47146  22540691.334    22540709.0114
  24669505.440    19632744.023 8  15277465.67145  24669505.066    24669526.9894
  22613121.725   -10200694.024 8  -7949555.10746  22613122.211    22613136.1294
  24425703.613       16056.689 8     11686.06245  24425703.596    24425722.1104
  24131483.199    -8183022.529 7  -6342651.45345  24131483.052    24131498.4324
  21625918.101     7582009.279 8   5894588.89347  21625917.848    21625932.3164
  20475629.887   -14009308.850 9 -10916284.54548  20475629.537    20475641.0434
 00  3  1 18 55  0.0000000  0  9 02 04 27 13 26 11 09 08 07
  21270109.377    -1903154.727 9  -1495194.38047  21270109.100    21270121.2964
  23433085.275   -11053603.812 8  -8597914.88445  23433085.513    23433107.5504
  22558765.501    10990716.606 8   8341820.50346  22558765.660    22558783.4314
  24688682.358    19733515.953 7  15355988.92845  24688681.451    24688703.5884
  22618360.395   -10173165.146 8  -7928104.11546  22618360.885    22618374.7594
  24436737.328       74038.004 7     56866.22845  24436737.249    24436755.8924
  24112615.331    -8282170.282 7  -6419909.49945  24112615.824    24112631.3404
  21641774.278     7665332.964 8   5959516.27947  21641773.981    21641788.4954
  20476258.396   -14006005.932 9 -10913710.83948  20476258.072    20476269.5844
 00  3  1 18 55 30.0000000  0  9 02 04 27 13 26 11 09 08 07
  21272405.014    -1891091.631 9  -1485794.60347  21272404.661    21272416.8444
  23413299.046   -11157579.488 8  -8678934.48145  23413299.350    23413321.2454
  22576893.516    11085977.847 8   8416049.73746  22576893.571    22576911.4754
  24707848.393    19834234.738 7  15434470.78045  24707847.822    24707870.1384
  22623690.651   -10145155.212 8  -7906278.26446  22623691.094    22623704.9184
  24447851.465      132442.742 7    102376.33745  24447851.216    24447869.8634
  24093767.360    -8381217.668 7  -6497089.32845  24093767.761    24093783.3524
  21657694.828     7748995.237 8   6024707.49847  21657694.520    21657709.0614
  20476971.213   -14002260.375 9 -10910792.21448  20476970.868    20476982.3674
 00  3  1 18 56  0.0000000  0  9 02 04 27 13 26 11 09 08 07
  21274731.456    -1878865.938 9  -1476268.13647  21274731.120    21274743.3114
  23393526.373   -11261484.054 8  -8759898.71445  23393526.689    23393548.4254
  22595075.604    11181524.538 8   8490501.39146  22595075.774    22595093.7434
  24727003.775    19934899.126 7  15512910.22545  24727003.792    24727026.4354
  22629114.541   -10116653.705 8  -7884069.38146  22629114.830    22629128.6614
  24459048.445      191282.861 7    148225.69845  24459048.303    24459067.1534
  24074942.712    -8480143.307 7  -6574174.27145  24074942.873    24074958.4294
  21673682.577     7833010.873 8   6090174.05447  21673682.302    21673696.8724
  20477770.096   -13998062.127 9 -10907520.85248  20477769.795    20477781.2634
 00  3  1 18 56 30.0000000  0  9 02 04 27 13 26 11 09 08 07
  21277088.800    -1866478.287 9  -1466615.46447  21277088.478    21277100.6634
  23373770.601   -11365299.419 8  -8840793.43845  23373771.046    23373792.6614
  22613314.469    11277368.645 8   8565184.81446  22613314.577    22613332.4884
  24746146.897    20035500.249 7  15591300.34045  24746147.758    24746170.4824
  22634630.381   -10087668.217 8  -7861483.37046  22634630.681    22634644.5344
  24470332.362      250580.383 7    194431.49645  24470332.330    24470351.0354
  24056140.831    -8578946.349 7  -6651163.70445  24056141.340    24056157.0094
  21689738.494     7917384.282 8   6155919.39447  21689738.206    21689752.7724
  20478653.497   -13993419.947 9 -10903903.56648  20478653.193    20478664.6374
 00  3  1 18 57  0.0000000  0  9 02 04 27 13 26 11 09 08 07
  21279473.269    -1853948.011 9  -1456851.64747  21279472.957    21279485.1444
  23354029.178   -11469040.492 8  -8921630.29445  23354029.492    23354051.0304
  22631613.679    11373531.214 8   8640116.38046  22631613.819    22631631.9074
  24765275.522    20136020.280 7  15669627.33445  24765276.565    24765298.8584
  22640235.829   -10058211.397 8  -7838530.10246  22640236.191    22640250.0244
  24481704.946      310342.966 7    240999.68745  24481704.987    24481723.6484
  24037364.267    -8677619.358 8  -6728051.75345  24037364.469    24037380.1544
  21705861.703     8002111.888 8   6221940.75147  21705861.385    21705876.0874
  20479617.339   -13988354.991 9 -10899956.83948  20479616.996    20479628.4694
 00  3  1 18 57 30.0000000  0  9 02 04 27 13 26 11 09 08 07
  21281879.202    -1841304.859 9  -1446999.88447  21281878.902    21281891.1364
  23334299.925   -11572717.023 8  -9002416.88545  23334300.161    23334321.7084
  22649973.738    11470012.948 8   8715296.63646  22649973.859    22649991.9734
  24784387.420    20236449.543 7  15747883.57645  24784387.736    24784410.4374
  22645929.004   -10028293.953 8  -7815217.90746  22645929.299    22645943.2024
  24493164.113      370561.235 7    287922.99745  24493164.235    24493182.7694
  24018612.638    -8776161.656 7  -6804837.95945  24018612.530    24018628.2034
  21722051.631     8087190.244 8   6288235.41947  21722051.327    21722066.1474
  20480658.324   -13982884.479 9 -10895694.09548  20480657.996    20480669.4504
 00  3  1 18 58  0.0000000  0  9 02 04 27 13 26 11 09 08 07
  21284306.386    -1828550.242 9  -1437061.26647  21284306.042    21284318.3254
  23314583.473   -11676325.623 8  -9083150.57145  23314583.850    23314605.2614
  22668393.512    11566807.247 8   8790720.43346  22668393.437    22668411.7744
  24803480.913    20336784.667 7  15826066.46945  24803481.037    24803503.7984
  22651710.051    -9997914.692 8  -7791545.85546  22651710.307    22651724.3134
  24504707.432      431221.856 7    335190.97745  24504707.534    24504726.1174
  23999880.062    -8874601.567 7  -6881544.38445  23999880.089    23999895.7944
  21738304.568     8172599.071 8   6354787.58247  21738304.275    21738319.0564
  20481774.032   -13977021.374 9 -10891125.43848  20481773.703    20481785.1834
 00  3  1 18 58 30.0000000  0  9 02 04 27 13 26 11 09 08 07
  21286757.326    -1815670.252 9  -1427024.96647  21286757.015    21286769.3794
  23294882.160   -11779855.650 8  -9163823.04745  23294882.499    23294903.8374
  22686872.416    11663913.633 8   8866387.42346  22686872.395    22686890.7894
  24822556.393    20437027.297 7  15904177.28345  24822556.711    24822579.6534
  22657578.043    -9967078.417 8  -7767517.67346  22657578.314    22657592.3484
  24516334.351      492320.224 7    382800.06645  24516334.326    24516352.8554
  23981164.653    -8972952.292 8  -6958181.29345  23981164.635    23981180.3454
  21754617.015     8258320.848 8   6421583.61047  21754616.722    21754631.5174
  20482963.328   -13970771.469 9 -10886255.37948  20482963.050    20482974.5124
 00  3  1 18 59  0.0000000  0  9 02 04 27 13 26 11 09 08 07
  21289233.001    -1802660.909 9  -1416887.86447  21289232.661    21289245.0204
  23275194.643   -11883312.565 8  -9244438.57045  23275195.038    23275216.3134
  22705407.365    11761314.887 8   8942284.19046  22705407.423    22705426.0494
  24841614.804    20537177.164 7  15982215.84445  24841615.017    24841637.8854
  22663531.576    -9935793.263 8  -7743139.73046  22663531.793    22663545.8274
  24528039.668      553831.936 7    430731.19345  24528039.651    24528058.1344
  23962466.122    -9071213.513 7  -7034748.46345  23962466.260    23962481.7444
  21770988.321     8344352.014 8   6488620.72447  21770988.019    21771002.9114
  20484227.958   -13964125.985 9 -10881077.07348  20484227.644    20484239.1274
 00  3  1 18 59 30.0000000  0  9 02 04 27 13 26 11 09 08 07
  21291738.950    -1789492.324 9  -1406626.67747  21291738.636    21291750.9724
  23255523.786   -11986682.634 8  -9324986.44445  23255524.246    23255545.2204
  22723995.427    11858994.103 8   9018397.52146  22723995.514    22724014.0614
  24860655.731    20637238.016 7  16060185.00245  24860656.196    24860679.5594
  22669571.432    -9904054.148 8  -7718408.04646  22669571.652    22669585.7084
  24539820.060      615739.010 7    478970.46445  24539820.165    24539838.9104
  23943784.589    -9169386.154 8  -7111246.61345  23943784.643    23943800.1644
  21787420.204     8430701.556 8   6555905.90547  21787419.953    21787434.8804
  20485570.480   -13957071.182 9 -10875579.82148  20485570.145    20485581.6244
 00  3  1 19  0  0.0000000  0  9 02 04 27 13 26 11 09 08 07
  21294279.761    -1776140.228 9  -1396222.49647  21294279.437    21294291.8324
  23235870.726   -12089958.108 8  -9405460.59445  23235871.252    23235892.2884
  22742636.996    11956954.802 8   9094730.21846  22742637.039    22742655.9044
  24879682.638    20737224.361 7  16138096.13745  24879683.253    24879706.3554
  22675698.683    -9871855.676 8  -7693318.42146  22675698.910    22675712.9974
  24551675.652      678038.956 7    527515.77245  24551675.790    24551694.2094
  23925124.236    -9267447.448 8  -7187657.98145  23925124.231    23925139.6404
  21803914.153     8517376.911 8   6623444.96747  21803913.894    21803928.8544
  20486991.854   -13949601.832 9 -10869759.54248  20486991.521    20487002.9824
 00  3  1 19  0 30.0000000  0  8 02 04 27 26 11 09 08 07
  21296855.397    -1762605.244 9  -1385675.80947  21296855.124    21296867.4754
  23216234.470   -12193146.761 8  -9485867.09445  23216234.965    23216255.8704
  22761332.158    12055196.550 8   9171281.89546  22761332.117    22761351.0094
  22681911.372    -9839208.659 8  -7667879.29546  22681911.539    22681925.6494
  24563601.286      740709.022 7    576349.54145  24563601.553    24563619.9584
  23906491.192    -9365365.298 8  -7263957.58145  23906491.121    23906506.4334
  21820470.841     8604382.247 8   6691241.15447  21820470.592    21820485.5864
  20488491.983   -13941718.742 9 -10863616.87548  20488491.622    20488503.0694
 00  3  1 19  1  0.0000000  0  8 02 04 27 26 11 09 08 07
  21299467.815    -1748877.447 9  -1374978.87347  21299467.515    21299479.8354
  23196611.462   -12296265.325 8  -9566218.98545  23196612.030    23196632.8154
  22780080.292    12153717.914 8   9248051.45346  22780080.338    22780099.1584
  22688212.117    -9806098.036 8  -7642078.91146  22688212.357    22688226.5074
  24575597.466      803748.645 7    625471.26745  24575597.499    24575616.2534
  23887886.983    -9463129.860 8  -7340137.73745  23887887.070    23887902.4214
  21837095.143     8691743.173 8   6759314.42547  21837094.923    21837109.8884
  20490070.270   -13933424.587 9 -10857153.89348  20490069.950    20490081.3924
 00  3  1 19  1 30.0000000  0  8 02 04 27 26 11 09 08 07
  21302118.517    -1734948.175 9  -1364124.94647  21302118.210    21302130.5694
  23177003.043   -12399306.910 8  -9646510.86445  23177003.595    23177024.4154
  22798885.331    12252536.844 8   9325052.87346  22798885.319    22798904.2514
  22694606.717    -9772494.098 8  -7615894.11846  22694607.011    22694621.1734
  24587667.254      867175.485 7    674894.72345  24587667.312    24587685.7484
  23869312.565    -9560738.745 8  -7416196.59845  23869312.789    23869328.1384
  21853789.398     8779471.513 8   6827673.98747  21853789.127    21853804.1584
  20491726.320   -13924722.006 9 -10850372.65848  20491725.973    20491737.4454
 00  3  1 19  2  0.0000000  0  8 02 04 27 26 11 09 08 07
  21304801.015    -1720851.906 9  -1353140.88047  21304800.693    21304813.0274
  23157407.958   -12502278.895 8  -9726748.48845  23157408.481    23157429.0924
  22817747.348    12351657.049 8   9402289.08246  22817747.422    22817766.4604
  22701093.143    -9738406.995 8  -7589332.82946  22701093.580    22701107.7644
  24599810.660      930989.949 7    724620.21645  24599810.735    24599829.1424
  23850766.969    -9658195.730 8  -7492137.08245  23850767.337    23850782.6744
  21870551.099     8867555.380 8   6896310.59647  21870550.903    21870566.0954
  20493457.604   -13915623.868 9 -10843283.19648  20493457.285    20493468.7324
 00  3  1 19  2 30.0000000  0  8 02 04 27 26 11 09 08 07
  21307512.227    -1706604.648 9  -1342039.16847  21307511.916    21307524.2614
  23137824.626   -12605188.273 8  -9806937.31845  23137825.178    23137845.7484
  22836666.423    12451075.906 8   9479757.99146  22836666.405    22836685.4914
  22707671.749    -9703835.784 8  -7562394.29946  22707672.255    22707686.5374
  24612029.054      995197.395 7    774651.91845  24612029.167    24612047.7814
  23832245.587    -9755527.289 8  -7567979.82245  23832245.849    23832261.0854
  21887381.496     8955999.323 8   6965227.76447  21887381.361    21887396.5874
  20495263.115   -13906135.736 9 -10835889.84548  20495262.805    20495274.2534
 00  3  1 19  3  0.0000000  0  8 02 04 27 26 11 09 08 07
  21310249.527    -1692220.404 9  -1330830.71247  21310249.191    21310261.5634
  23118253.499   -12708034.833 8  -9887077.17345  23118253.897    23118274.4994
  22855641.303    12550787.804 8   9557455.23146  22855641.278    22855660.2674
  22714341.625    -9668785.132 8  -7535082.18146  22714342.248    22714356.5604
  24624324.433     1059810.809 7    824999.92145  24624324.715    24624343.3134
  23813742.851    -9852759.893 8  -7643745.42845  23813743.019    23813758.3084
  21904280.188     9044800.883 8   7034423.58847  21904279.952    21904295.1234
  20497142.447   -13896259.411 9 -10828194.01048  20497142.164    20497153.6484
 00  3  1 19  3 30.0000000  0  8 02 04 27 26 11 09 08 07
  21313008.841    -1677720.154 9  -1319531.86847  21313008.541    21313020.9434
  23098700.297   -12810786.646 8  -9967143.17846  23098700.772    23098721.2694
  22874672.063    12650794.066 8   9635381.84346  22874672.164    22874691.3144
  22721100.366    -9633269.430 8  -7507407.70446  22721100.789    22721115.0434
  24636699.453     1124841.092 7    875672.72844  24636699.678    24636718.2694
  23795263.663    -9949868.845 8  -7719414.70945  23795263.762    23795279.0484
  21921243.803     9133944.217 8   7103885.73146  21921243.519    21921258.7344
  20499098.265   -13885981.671 9 -10820185.38348  20499097.970    20499109.4414
 00  3  1 19  4  0.0000000  0  8 02 04 27 26 11 09 08 07
  21315790.455    -1663102.977 9  -1308141.91347  21315790.146    21315802.5404
  23079167.774   -12913429.536 8 -10047124.28846  23079168.295    23079188.7034
  22893756.524    12751082.524 8   9713528.38046  22893756.562    22893775.9154
  22727943.428    -9597309.959 8  -7479387.44446  22727943.772    22727957.9404
  24649153.825     1190290.047 7    926671.81444  24649153.945    24649172.6154
  23776811.154   -10046837.086 8  -7794974.33745  23776811.277    23776826.6524
  21938272.678     9223430.538 8   7173615.12946  21938272.370    21938287.6404
  20501132.879   -13875289.827 9 -10811854.08248  20501132.571    20501144.0214
 00  3  1 19  4 30.0000000  0  8 02 04 27 26 11 09 08 07
  21318596.842    -1648355.584 9  -1296650.48447  21318596.533    21318608.9404
  23059657.061   -13015958.343 8 -10127016.48646  23059657.511    23059677.8744
  22912889.754    12851625.761 8   9791873.41946  22912889.786    22912908.9184
  22734869.678    -9560912.636 8  -7451025.97346  22734870.087    22734884.2164
  24661685.353     1256142.721 7    977985.58344  24661685.590    24661704.0074
  23758383.891   -10143671.897 8  -7870429.98145  23758384.183    23758399.6104
  21955364.487     9313247.812 8   7243602.42746  21955364.137    21955379.5704
  20503247.533   -13864177.461 9 -10803195.08848  20503247.197    20503258.6314
 00  3  1 19  5  0.0000000  0  7 02 04 27 26 09 08 07
  21321431.922    -1633457.489 9  -1285041.62747  21321431.600    21321443.9844
  23040175.645   -13118333.809 8 -10206789.17746  23040175.949    23040196.1464
  22932072.764    12952432.337 8   9870423.66446  22932072.766    22932091.9274
  22741881.342    -9524066.824 8  -7422315.04546  22741881.703    22741895.8004
  23739989.686   -10240334.189 8  -7945751.20045  23739989.917    23740005.3794
  21972520.169     9403401.511 8   7313851.86746  21972519.941    21972535.4604
  20505445.524   -13852626.691 9 -10794194.49248  20505445.226    20505456.6384
 00  3  1 19  5 30.0000000  0  7 02 04 27 26 09 08 07
  21324300.409    -1618383.536 9  -1273295.73347  21324300.064    21324312.5134
  23020726.222   -13220539.611 8 -10286429.65946  23020726.633    23020746.6264
  22951305.662    13053500.097 8   9949177.43146  22951305.681    22951324.8874
  22748978.846    -9486769.315 8  -7393252.13246  22748979.239    22748993.3324
  23721632.415   -10336802.416 8  -8020921.16945  23721632.606    23721648.0634
  21989738.481     9493883.353 8   7384356.98846  21989738.211    21989753.7524
  20507725.588   -13840645.010 9 -10784858.11248  20507725.247    20507736.6894
 00  3  1 19  6  0.0000000  0  7 02 04 27 26 09 08 07
  21327207.007    -1603109.535 9  -1261393.96147  21327206.702    21327219.1474
  23001306.947   -13322587.240 8 -10365946.88046  23001307.396    23001327.2384
  22970589.620    13154837.530 8  10028141.33345  22970589.621    22970609.0214
  22756162.962    -9449016.734 8  -7363834.62046  22756163.316    22756177.5154
  23703307.816   -10433099.278 8  -8095957.59945  23703307.772    23703323.2584
  22007017.767     9584686.136 8   7455112.21246  22007017.528    22007033.2214
  20510084.834   -13828247.015 9 -10775197.33448  20510084.524    20510095.9304
 00  3  1 19  6 30.0000000  0  7 02 04 27 26 09 08 07
  21330151.739    -1587634.933 9  -1249335.89047  21330151.433    21330163.8854
  22981917.083   -13424480.016 8 -10445343.44346  22981917.480    22981937.3124
  22989927.115    13256454.750 8  10107323.23145  22989927.084    22989946.4174
  22763433.602    -9410809.489 8  -7334062.84446  22763433.982    22763448.2774
  23685016.144   -10529222.012 8  -8170858.34445  23685016.145    23685031.5854
  22024355.958     9675797.992 8   7526108.26346  22024355.755    22024371.4904
  20512517.925   -13815461.153 9 -10765234.32348  20512517.599    20512528.9914
 00  3  1 19  7  0.0000000  0  7 02 04 27 26 09 08 07
  21333128.894    -1571989.947 9  -1237145.04647  21333128.592    21333141.0814
  22962550.820   -13526248.388 8 -10524643.06846  22962551.167    22962570.9994
  23009315.885    13358342.078 8  10186715.62245  23009315.802    23009335.3444
  22770784.692    -9372180.302 8  -7303962.28546  22770784.983    22770799.2594
  23666755.477   -10625182.318 8  -8245632.52645  23666755.615    23666770.8544
  22041746.278     9767183.395 8   7597317.46046  22041746.017    22041761.7194
  20515015.855   -13802334.511 9 -10755005.76948  20515015.520    20515026.9434
 00  3  1 19  7 30.0000000  0  7 02 04 27 26 09 08 07
  21336134.761    -1556193.795 9  -1224836.41247  21336134.471    21336147.0014
  22943201.242   -13627928.989 8 -10603874.31146  22943201.683    22943221.5294
  23028752.931    13460483.962 8  10266306.35445  23028752.966    23028772.5314
  22778210.801    -9333156.310 8  -7273554.08746  22778211.142    22778225.3974
  23648520.301   -10721008.533 8  -8320302.22345  23648520.490    23648535.7134
  22059183.179     9858814.221 8   7668717.90746  22059182.885    22059198.6924
  20517574.750   -13788887.235 9 -10744527.36848  20517574.469    20517585.8734
 00  3  1 19  8  0.0000000  0  7 02 04 27 26 09 08 07
  21339165.758    -1540265.952 9  -1212425.15847  21339165.473    21339177.9904
  22923868.271   -13729524.096 8 -10683038.93546  22923868.467    22923888.2464
  23048235.652    13562865.563 8  10346083.87245  23048235.668    23048255.4814
  22785710.373    -9293745.572 8  -7242844.52646  22785710.781    22785725.0594
  23630309.475   -10816707.848 8  -8394873.00845  23630309.367    23630324.6274
  22076668.592     9950700.014 8   7740317.02646  22076668.300    22076684.1824
  20520194.952   -13775118.263 9 -10733798.30048  20520194.625    20520206.0034
 00  3  1 19  8 30.0000000  0  7 02 04 27 26 09 08 07
  21342220.756    -1524212.250 9  -1199915.81947  21342220.458    21342232.9464
  22904553.113   -13831023.842 8 -10762129.25646  22904553.398    22904573.1014
  23067761.386    13665472.623 8  10426037.08045  23067761.450    23067781.1864
  22793283.571    -9253948.485 8  -7211833.91646  22793283.998    22793298.3054
  23612123.529   -10912274.415 8  -8469340.36245  23612123.667    23612138.9044
  22094204.427    10042850.740 8   7812122.59446  22094204.130    22094219.9764
  20522879.117   -13761012.750 9 -10722806.99348  20522878.807    20522890.1824
 00  3  1 19  9  0.0000000  0  7 02 04 27 26 09 08 07
  21345302.141    -1508019.881 9  -1187298.42047  21345301.845    21345314.2854
  22885258.352   -13932415.980 8 -10841135.75546  22885258.746    22885278.3614
  23087330.883    13768310.655 8  10506170.26145  23087330.962    23087350.8264
  22800932.878    -9213750.945 8  -7180511.27146  22800933.332    22800947.7144
  23593963.140   -11007706.821 8  -8543703.16845  23593963.329    23593978.7244
  22111794.393    10135285.093 8   7884149.14746  22111794.053    22111809.8364
  20525633.835   -13746536.559 9 -10711526.85048  20525633.510    20525644.8894
 00  3  1 19  9 30.0000000  0  7 02 04 27 26 09 08 07
  21348415.038    -1491661.668 9  -1174551.79747  21348414.730    21348427.1594
  22865988.096   -14033679.684 8 -10920042.16846  22865988.466    22866008.1464
  23106947.121    13871391.018 8  10586492.24145  23106946.943    23106966.8794
  22808661.697    -9173135.755 8  -7148863.18646  22808662.211    22808676.6424
  23575829.394   -11103000.560 8  -8617957.91945  23575829.453    23575844.8684
  22129445.068    10228039.940 8   7956425.46646  22129444.784    22129460.6794
  20528464.828   -13731659.634 9 -10699934.44648  20528464.530    20528475.9184
 00  3  1 19 10  0.0000000  0  7 02 04 27 26 09 08 07
  21351562.978    -1475119.441 9  -1161661.78547  21351562.681    21351575.0724
  22846748.972   -14134779.773 8 -10998821.08946  22846749.465    22846768.9584
  23126611.857    13974730.343 8  10667016.06345  23126611.819    23126632.0064
  22816472.355    -9132090.267 8  -7116879.81046  22816472.924    22816487.4094
  23557726.552   -11198132.549 8  -8692086.64545  23557726.386    23557741.7644
  22147160.207    10321133.138 8   8028965.41846  22147159.960    22147175.8404
  20531376.658   -13716357.879 9 -10688011.00848  20531376.354    20531387.7414
 00  3  1 19 10 30.0000000  0  7 02 04 27 26 09 08 07
  21354749.151    -1458376.487 9  -1148615.36247  21354748.815    21354761.1914
  22827542.414   -14235709.923 8 -11077467.59946  22827542.901    22827562.2384
  23146330.613    14078351.163 8  10747759.18645  23146330.648    23146350.8104
  22824367.511    -9090601.352 8  -7084550.90546  22824368.079    22824382.6204
  23539656.616   -11293090.140 8  -8766079.46645  23539656.515    23539671.8554
  22164939.800    10414563.969 8   8101768.44746  22164939.541    22164955.2794
  20534372.268   -13700615.731 9 -10675744.41648  20534371.990    20534383.3844
 00  3  1 19 11  0.0000000  0  7 02 04 27 26 09 08 07
  21357974.183    -1441428.864 9  -1135409.44847  21357973.852    21357986.2174
  22808370.530   -14336457.817 8 -11155972.10446  22808371.054    22808390.1274
  23166106.001    14182268.564 8  10828733.41345  23166105.888    23166125.9664
  22832348.298    -9048662.893 8  -7051871.70746  22832348.774    22832363.3704
  23521623.953   -11387852.042 8  -8839919.81645  23521623.899    23521639.2064
  22182782.771    10508328.738 8   8174831.71346  22182782.479    22182798.3934
  20537449.813   -13684443.411 9 -10663142.62848  20537449.510    20537460.9034
 00  3  1 19 11 30.0000000  0  7 02 04 27 26 09 08 07
  21361236.100    -1424287.185 9  -1122052.32547  21361235.784    21361248.2054
  22789234.969   -14437015.001 8 -11234327.98746  22789235.441    22789254.3934
  23185934.161    14286464.680 8  10909924.81645  23185934.121    23185954.2894
  22840412.555    -9006285.860 8  -7018850.75846  22840413.011    22840427.6034
  23503629.218   -11482414.594 8  -8913604.83045  23503629.157    23503644.4334
  22200686.180    10602410.575 8   8248142.03146  22200685.884    22200701.7864
  20540605.558   -13667859.880 9 -10650220.42348  20540605.255    20540616.6344
 00  3  1 19 12  0.0000000  0  7 02 04 27 26 09 08 07
  21364532.426    -1406965.046 9  -1108554.58647  21364532.122    21364544.5474
  22770134.512   -14537387.819 8 -11312540.20046  22770134.874    22770153.7134
  23205811.960    14390922.307 8  10991320.00045  23205811.960    23205832.2814
  22848561.814    -8963462.627 8  -6985482.13546  22848562.120    22848576.7474
  23485672.297   -11576777.818 8  -8987134.51945  23485672.328    23485687.6674
  22218646.694    10696792.318 8   8321686.04146  22218646.321    22218662.1424
  20543836.406   -13650881.865 9 -10636990.82748  20543836.098    20543847.4494
 00  3  1 19 12 30.0000000  0  7 02 04 27 26 09 08 07
  21367862.241    -1389466.877 9  -1094919.69047  21367861.917    21367874.4544
  22751065.196   -14637596.020 8 -11390624.14546  22751065.576    22751084.3784
  23225737.867    14495631.879 8  11072911.51045  23225737.815    23225758.1454
  22856796.922    -8920186.974 8  -6951760.94446  22856797.348    22856811.9794
  23467751.429   -11670952.800 8  -9060517.53345  23467751.424    23467766.6694
  22236663.959    10791473.545 8   8395463.42146  22236663.638    22236679.6234
  20547138.051   -13633531.821 9 -10623471.33148  20547137.742    20547149.0854
 00  3  1 19 13  0.0000000  0  7 02 04 27 26 09 08 07
  21371223.976    -1371801.083 9  -1081154.17747  21371223.670    21371236.2014
  22732027.238   -14737639.797 8 -11468579.96146  22732027.655    22732046.3034
  23245708.762    14600579.206 8  11154688.28445  23245708.670    23245729.2384
  22865114.133    -8876480.491 8  -6917704.05546  22865114.510    22865129.1914
  23449863.837   -11764952.550 8  -9133764.00546  23449863.877    23449878.9314
  22254737.418    10886449.300 8   8469470.29746  22254736.996    22254753.1074
  20550507.046   -13615827.521 9 -10609675.80448  20550506.750    20550518.1044
 00  3  1 19 13 30.0000000  0  7 02 04 27 26 09 08 07
  21374617.278    -1353969.154 9  -1067259.21147  21374616.980    21374629.5244
  22713019.598   -14837524.065 8 -11546411.48146  22713020.064    22713038.4934
  23265722.258    14705748.756 8  11236638.19345  23265722.265    23265742.6344
  22873511.671    -8832351.754 8  -6883318.15746  22873512.117    22873526.7534
  23432008.099   -11858784.525 8  -9206879.73146  23432008.139    23432023.1134
  22272868.762    10981730.144 8   8543714.91246  22272868.404    22272884.6814
  20553945.019   -13597760.852 9 -10595597.90448  20553944.680    20553956.0654
 00  3  1 19 14  0.0000000  0  7 02 04 27 26 09 08 07
  21378043.469    -1335964.843 9  -1053229.92447  21378043.139    21378055.6914
  22694042.439   -14937248.561 8 -11624118.49246  22694042.881    22694061.1704
  23285779.996    14811153.164 8  11318771.11645  23285780.059    23285800.8194
  22881989.328    -8787801.869 8  -6848604.07646  22881989.808    22882004.3884
  23414184.766   -11952445.691 8  -9279862.36946  23414184.977    23414199.8644
  22291060.312    11077326.214 8   8618205.14746  22291060.040    22291076.3374
  20557452.862   -13579326.809 9 -10581233.74048  20557452.572    20557463.9614
 00  3  1 19 14 30.0000000  0  7 02 04 27 26 09 08 07
  21381501.835    -1317791.292 9  -1039068.76247  21381501.485    21381514.0694
  22675099.553   -15036792.439 8 -11701684.75246  22675099.996    22675118.2194
  23305885.001    14916804.545 8  11401096.50445  23305885.141    23305906.0194
  22890542.257    -8742857.377 8  -6813582.51946  22890542.547    22890557.1264
  23396396.937   -12045921.543 8  -9352700.60246  23396397.062    23396411.8584
  22309310.353    11173230.340 8   8692935.44246  22309310.066    22309326.4834
  20561030.977   -13560524.182 9 -10566582.35448  20561030.615    20561041.9964
 00  3  1 19 15  0.0000000  0  7 02 04 27 26 09 08 07
  21384990.217    -1299459.644 9  -1024784.40747  21384989.899    21385002.4814
  22656193.422   -15136144.219 8 -11779101.33146  22656193.715    22656211.7924
  23326034.734    15022689.292 8  11483603.70245  23326034.791    23326055.5664
  22899167.619    -8697530.573 8  -6778263.06746  22899167.956    22899182.6664
  23378647.734   -12139194.561 8  -9425380.77946  23378647.739    23378662.3784
  22327616.402    11269429.389 8   8767895.53646  22327616.252    22327632.6704
  20564679.108   -13541352.661 9 -10551643.51948  20564678.819    20564690.2054
 00  3  1 19 15 30.0000000  0  7 02 04 27 26 09 08 07
  21388508.340    -1280972.011 9  -1010378.50247  21388507.994    21388520.5774
  22637322.152   -15235311.265 8 -11856373.98446  22637322.488    22637340.5534
  23346227.687    15128802.298 8  11566288.79045  23346227.672    23346248.6114
  22907867.795    -8651810.288 8  -6742636.99546  22907868.263    22907883.0614
  23360937.897   -12232259.265 8  -9497898.62746  23360937.999    23360952.5984
  22345977.937    11365917.992 8   8843081.24846  22345977.671    22345994.0144
  20568397.169   -13521814.354 9 -10536418.87148  20568396.865    20568408.2434
 00  3  1 19 16  0.0000000  0  7 02 04 27 26 09 08 07
  21392057.170    -1262322.775 9   -995846.68647  21392056.857    21392069.4894
  22618485.033   -15334298.804 8 -11933506.75746  22618485.489    22618503.4944
  23366465.190    15235148.925 8  11649155.89945  23366465.202    23366486.1574
  22916642.155    -8605700.661 8  -6706707.52646  22916642.639    22916657.5444
  23343268.359   -12325113.580 8  -9570252.52546  23343268.362    23343282.9314
  22364389.936    11462673.462 8   8918474.91446  22364389.794    22364406.1194
  20572183.655   -13501916.281 9 -10520913.88648  20572183.384    20572194.7164
 00  3  1 19 16 30.0000000  0  7 02 04 27 26 09 08 07
  21395636.253    -1243514.950 9   -981191.28247  21395635.919    21395648.5774
  22599680.343   -15433117.035 8 -12010507.62246  22599680.697    22599698.7034
  23386745.231    15341719.661 8  11732197.64345  23386745.242    23386766.1304
  22925490.488    -8559203.257 8  -6670475.90546  22925490.893    22925505.8154
  23325638.451   -12417758.878 8  -9642443.55446  23325638.506    23325653.0244
  22382852.799    11559694.652 8   8994075.61846  22382852.663    22382868.8294
  20576037.415   -13481664.840 9 -10505133.54948  20576037.106    20576048.4724
 00  3  1 19 17  0.0000000  0  7 02 04 27 26 09 08 07
  21399247.878    -1224535.700 9   -966402.30147  21399247.529    21399260.1944
  22580903.583   -15531787.976 8 -12087393.71746  22580903.916    22580921.8954
  23407065.437    15448500.917 8  11815403.43645  23407065.445    23407086.5114
  22934412.988    -8512314.614 8  -6633939.41846  22934413.576    22934428.5244
  23308046.327   -12510205.046 8  -9714479.42046  23308046.486    23308061.0094
  22401366.851    11656985.854 8   9069886.72746  22401366.716    22401382.9804
  20579957.004   -13461067.230 9 -10489083.46848  20579956.712    20579968.0724
 00  3  1 19 17 30.0000000  0  7 02 04 27 26 09 08 07
  21402894.387    -1205373.277 9   -951470.58347  21402894.075    21402906.7024
  22562155.517   -15630308.106 8 -12164162.30946  22562155.945    22562173.8244
  23427426.450    15555497.032 8  11898776.65545  23427426.429    23427447.4944
  22943407.554    -8465048.433 8  -6597108.75146  22943408.199    22943423.0764
  23290489.634   -12602466.027 8  -9786370.96346  23290489.650    23290504.2764
  22419932.083    11754545.241 8   9145906.81446  22419931.883    22419948.1574
  20583941.657   -13440127.983 9 -10472767.17748  20583941.344    20583952.6874
 00  3  1 19 18  0.0000000  0  7 02 04 27 26 09 08 07
  21406575.258    -1186030.367 9   -936398.23047  21406574.917    21406587.6054
  22543439.574   -15728659.127 8 -12240799.14046  22543440.092    22543457.8704
  23447826.107    15662696.526 8  11982308.35545  23447826.007    23447847.5234
  22952472.887    -8417409.917 8  -6559987.94446  22952473.593    22952488.4484
  23272969.334   -12694535.917 8  -9858113.62846  23272969.199    23272983.8634
  22438547.371    11852368.813 8   9222132.75246  22438547.217    22438563.5124
  20587990.724   -13418849.876 9 -10456186.83448  20587990.441    20588001.7664
 00  3  1 19 18 30.0000000  0  7 02 04 27 26 09 08 07
  21410288.757    -1166515.933 9   -921192.21647  21410288.466    21410301.1284
  22524759.419   -15826822.964 8 -12317290.13546  22524759.894    22524777.5724
  23468261.285    15770083.431 7  12065986.06545  23468261.261    23468282.7694
  22961609.744    -8369396.988 8  -6522575.40746  22961610.238    22961625.1324
  23255486.425   -12786408.477 8  -9929702.52746  23255486.342    23255501.0544
  22457214.531    11950465.041 8   9298571.15146  22457214.364    22457230.8264
  20592103.534   -13397237.211 9 -10439345.79748  20592103.214    20592114.5404
 00  3  1 19 19  0.0000000  0  7 02 04 27 26 09 08 07
  21414036.026    -1146824.309 9   -905848.13047  21414035.711    21414048.3704
  22506117.703   -15924784.965 8 -12393623.85746  22506118.109    22506135.6604
  23488731.372    15877653.669 7  12149806.62545  23488731.349    23488753.2244
  22970817.609    -8321010.889 8  -6484872.09346  22970817.933    22970832.8044
  23238041.656   -12878080.853 8 -10001135.43646  23238041.599    23238056.3164
  22475930.169    12048815.243 8   9375207.44246  22475929.947    22475946.5234
  20596280.654   -13375286.133 9 -10422241.07048  20596280.362    20596291.6944
 00  3  1 19 19 30.0000000  0  7 02 04 27 26 09 08 07
  21417815.706    -1126961.971 9   -890371.03347  21417815.405    21417828.1254
  22487518.638   -16022522.082 8 -12469782.35646  22487519.075    22487536.5534
  23509237.532    15985412.913 7  12233774.45745  23509237.483    23509259.5524
  22980098.017    -8272243.579 8  -6446871.72346  22980098.209    22980113.1264
  23220635.525   -12969549.160 8 -10072409.33846  23220635.698    23220650.4314
  22494695.339    12147426.974 8   9452047.53446  22494695.126    22494711.9084
  20600525.439   -13352979.772 9 -10404859.50248  20600525.133    20600536.4444
 00  3  1 19 20  0.0000000  0  7 02 04 27 26 09 08 07
  21421628.415    -1106926.088 9   -874758.69647  21421628.115    21421640.8554
  22468964.088   -16120024.773 8 -12545758.18846  22468964.640    22468982.0304
  23529783.135    16093380.149 7  12317904.38445  23529783.129    23529805.2514
  22989454.853    -8223073.643 8  -6408557.61846  22989455.051    22989470.0254
  23203271.375   -13060798.193 8 -10143512.36146  23203271.480    23203286.2224
  22513512.440    12246310.537 8   9529099.42346  22513512.209    22513529.0264
  20604840.626   -13330303.231 9 -10387189.48048  20604840.306    20604851.6354
 00  3  1 19 20 30.0000000  0  7 02 04 27 26 09 08 07
  21425476.720    -1086703.136 9   -859000.60147  21425476.411    21425489.1714
  22450454.946   -16217290.584 8 -12621549.44646  22450455.334    22450472.6004
  23550371.842    16201572.499 8  12402209.71845  23550371.776    23550393.9494
  22998886.224    -8173511.923 8  -6369938.21546  22998886.402    22998901.3804
  23185949.941   -13151821.907 8 -10214439.81846  23185950.141    23185964.8654
  22532381.452    12345467.136 8   9606364.08046  22532381.247    22532398.1524
  20609227.486   -13307250.037 9 -10369225.97048  20609227.189    20609238.5464
 00  3  1 19 21  0.0000000  0  7 02 04 27 26 09 08 07
  21429362.430    -1066283.879 9   -843089.53947  21429362.141    21429374.8654
  22431990.745   -16314319.627 8 -12697156.20946  22431991.146    22432008.3034
  23571006.978    16310009.140 7  12486705.42045  23571006.842    23571029.3044
  23008390.550    -8123566.887 8  -6331020.15146  23008390.683    23008405.6994
  23168671.413   -13242620.645 8 -10285191.98846  23168671.623    23168686.2434
  22551302.417    12444897.514 8   9683842.06146  22551302.228    22551319.3484
  20613687.001   -13283815.302 9 -10350965.15448  20613686.712    20613698.0784
 00  3  1 19 21 30.0000000  0  7 02 04 27 26 09 08 07
  21433284.328    -1045674.721 9   -827030.50247  21433284.016    21433296.6624
  22413573.936   -16411099.389 8 -12772568.74646  22413574.406    22413591.4464
  23591689.239    16418693.574 8  12571394.17645  23591689.232    23591711.5754
  23017967.467    -8073240.191 8  -6291804.66646  23017967.682    23017982.7364
  23151436.320   -13333191.500 8 -10355766.57746  23151436.504    23151451.0214
  22570278.796    12544618.212 8   9761546.27646  22570278.611    22570295.8234
  20618217.433   -13260007.738 9 -10332413.82148  20618217.125    20618228.5264
 00  3  1 19 22  0.0000000  0  7 02 04 27 26 09 08 07
  21437241.970    -1024877.164 9   -810824.66247  21437241.657    21437254.3384
  22395203.875   -16507634.289 8 -12847790.48346  22395204.284    22395221.1924
  23612415.564    16527609.211 7  12656263.10045  23612415.365    23612437.7524
  23027614.134    -8022547.419 8  -6252303.92346  23027614.314    23027629.3914
  23134246.870   -13423522.894 8 -10426154.58046  23134246.954    23134261.4484
  22589306.719    12644608.864 8   9839460.83146  22589306.558    22589323.7034
  20622812.972   -13235858.031 9 -10313595.88848  20622812.664    20622824.0754
 00  3  1 19 22 30.0000000  0  7 02 04 27 26 09 08 07
  21441232.689    -1003905.762 9   -794483.36347  21441232.414    21441245.1314
  22376877.146   -16603940.230 8 -12922833.83446  22376877.660    22376894.5174
  23633178.266    16636717.033 7  12741281.78445  23633178.140    23633200.9594
  23037324.501    -7971518.962 8  -6212541.61546  23037324.781    23037339.8774
  23117101.930   -13513620.001 8 -10496360.01046  23117101.923    23117116.4614
  22608383.285    12744855.883 8   9917575.14946  22608383.091    22608400.2084
  20627468.451   -13211393.305 9 -10294532.48648  20627468.151    20627479.5754
 00  3  1 19 23  0.0000000  0  7 02 04 27 26 09 08 07
  21445253.371     -982777.307 9   -778019.67947  21445253.090    21445265.7774
  22358591.751   -16700030.118 8 -12997708.83346  22358592.160    22358608.9494
  23653974.803    16746001.693 7  12826438.27845  23653974.613    23653997.1994
  23047098.356    -7920156.798 8  -6172519.27546  23047098.766    23047113.9484
  23099999.034   -13603496.624 8 -10566393.63246  23099998.944    23100013.4224
  22627507.601    12845354.039 8   9995885.16546  22627507.402    22627524.7134
  20632181.392   -13186626.747 9 -10275233.88848  20632181.108    20632192.5044
 00  3  1 19 23 30.0000000  0  7 02 04 27 26 09 08 07
  21449302.789     -961497.892 9   -761438.36847  21449302.457    21449315.1664
  22340345.848   -16795911.777 8 -13072421.57946  22340346.241    22340363.1084
  23674801.587    16855444.810 7  12911718.22345  23674801.325    23674824.1824
  23056937.502    -7868452.255 8  -6132230.14746  23056937.884    23056953.0924
  23082938.675   -13693148.066 8 -10636251.79746  23082938.764    23082953.2234
  22646677.834    12946093.224 8  10074382.99946  22646677.581    22646694.9344
  20636949.534   -13161570.344 9 -10255709.43848  20636949.217    20636960.6004
 00  3  1 19 24  0.0000000  0  7 02 04 27 26 09 08 07
  21453381.593     -940063.951 9   -744736.64747  21453381.253    21453393.9584
  22322135.247   -16891608.076 8 -13146989.90646  22322135.588    22322152.4324
  23695655.890    16965034.670 7  12997112.56145  23695655.738    23695678.9124
  23066839.362    -7816417.590 8  -6091683.77846  23066839.889    23066855.1094
  23065921.264   -13782574.481 8 -10705934.60746  23065921.445    23065935.8584
  22665889.657    13047051.098 8  10153051.22346  22665889.531    22665906.7944
  20641774.585   -13136214.542 9 -10235951.69248  20641774.287    20641785.6594
 00  3  1 19 24 30.0000000  0  7 02 04 27 26 09 08 07
  21457492.106     -918463.427 9   -727905.12347  21457491.738    21457504.4084
  22303961.320   -16987111.183 8 -13221407.66846  22303961.719    22303978.5714
  23716541.958    17074790.860 7  13082636.45045  23716541.979    23716565.0124
  23076805.591    -7764045.315 8  -6050874.35446  23076806.120    23076821.3964
  23048945.305   -13871783.495 8 -10775448.01946  23048945.397    23048959.8154
  22685143.179    13148228.254 8  10231890.33046  22685143.021    22685160.4074
  20646661.985   -13110531.341 9 -10215938.82248  20646661.664    20646673.0574
 00  3  1 19 25  0.0000000  0  7 02 04 27 26 09 08 07
  21461637.681     -896678.461 9   -710929.88047  21461637.328    21461650.0034
  22285828.094   -17082401.205 8 -13295659.43346  22285828.522    22285845.2834
  23737464.454    17184737.401 7  13168308.70345  23737464.475    23737487.6354
  23086842.242    -7711304.007 8  -6009777.37146  23086842.581    23086857.8194
  23032011.539   -13960770.351 8 -10844788.32146  23032011.700    23032026.0394
  22704440.130    13249633.189 8  10310906.91946  22704439.923    22704457.4864
  20651615.059   -13084502.361 9 -10195656.51448  20651614.755    20651626.1404
 00  3  1 19 25 30.0000000  0  7 02 04 27 26 09 08 07
  21465822.608     -874686.617 9   -693793.43147  21465822.270    21465834.9634
  22267738.925   -17177460.350 8 -13369731.26246  22267739.235    22267755.9054
  23758423.608    17294878.056 7  13254132.20545  23758423.694    23758447.0084
  23096949.622    -7658189.174 8  -5968389.32046  23096950.064    23096965.2844
  23015123.937   -14049515.291 8 -10913940.11846  23015124.011    23015138.3754
  22723780.000    13351263.582 8  10390099.19046  22723779.764    22723797.4064
  20656636.299   -13058115.691 9 -10175095.48048  20656635.998    20656647.4084
 00  3  1 19 26  0.0000000  0  7 02 04 27 26 09 08 07
  21470049.236     -852475.547 9   -676486.15547  21470048.924    21470061.6434
  22249697.650   -17272266.633 8 -13443606.08446  22249697.995    22249714.5834
  23779421.217    17405220.032 7  13340112.57345  23779421.498    23779445.0904
  23107125.771    -7604713.912 8  -5926720.41846  23107126.099    23107141.4324
  22998282.121   -14138019.061 8 -10982903.98046  22998282.190    22998296.5404
  22743166.541    13453138.455 8  10469481.94146  22743166.233    22743183.5754
  20661727.636   -13031360.470 9 -10154247.26348  20661727.324    20661738.7694
 00  3  1 19 26 30.0000000  0  7 02 04 27 26 09 08 07
  21474317.877     -830043.824 9   -659006.94647  21474317.569    21474330.3114
  22231708.352   -17366800.350 8 -13517268.50746  22231708.649    22231725.2404
  23800458.383    17515767.604 7  13426253.16745  23800458.544    23800482.0334
  23117372.986    -7550865.289 8  -5884760.60346  23117373.205    23117388.6674
  22981486.659   -14226279.075 8 -11051677.91946  22981486.808    22981501.0964
  22762603.724    13555282.183 8  10549074.20346  22762603.547    22762621.0724
  20666886.236   -13004251.698 9 -10133123.55248  20666885.942    20666897.3724
 00  3  1 19 27  0.0000000  0  7 02 04 27 26 09 08 07
  21478625.767     -807405.838 9   -641367.01047  21478625.447    21478638.2294
  22213770.779   -17461060.700 8 -13590717.93246  22213771.267    22213787.9114
  23821530.547    17626500.433 7  13512538.12045  23821530.697    23821554.2904
  23127690.181    -7496648.969 8  -5842514.25246  23127690.353    23127705.8284
  22964738.692   -14314290.009 8 -11120257.75946  22964738.792    22964753.0674
  22782094.528    13657705.651 8  10628884.45446  22782094.304    22782111.8584
  20672110.570   -12976797.621 9 -10111730.76948  20672110.286    20672121.7024
 00  3  1 19 27 30.0000000  0  7 02 04 27 26 09 08 07
  21482972.620     -784563.123 9   -623567.55247  21482972.288    21482985.1094
  22195886.451   -17555042.641 8 -13663950.40146  22195886.918    22195903.5564
  23842637.399    17737414.399 7  13598964.20545  23842637.125    23842660.7214
  23138072.509    -7442088.814 8  -5799999.99646  23138072.905    23138088.3804
  22948038.516   -14402049.841 8 -11188641.93846  22948038.534    22948052.7974
  22801638.064    13760406.712 8  10708910.97846  22801637.835    22801655.4324
  20677401.338   -12948994.630 9 -10090066.10348  20677401.073    20677412.4364
 00  3  1 19 28  0.0000000  0  7 02 04 27 26 09 08 07
  21487357.750     -761519.343 9   -605611.41247  21487357.432    21487370.2464
  22178056.906   -17648737.004 8 -13736958.78546  22178057.261    22178073.9044
  23863779.477    17848515.723 7  13685536.31445  23863779.339    23863802.8754
  23148521.617    -7387179.300 8  -5757213.50946  23148521.922    23148537.4734
  22931386.514   -14489556.661 8 -11256828.96246  22931386.391    22931400.7044
  22821236.344    13863394.944 8  10789161.28846  22821236.166    22821253.6484
  20682758.543   -12920842.644 9 -10068129.49248  20682758.244    20682769.6284
 00  3  1 19 28 30.0000000  0  7 02 04 27 26 09 08 07
  21491780.492     -738277.873 9   -587501.23047  21491780.210    21491793.0244
  22160283.212   -17742137.465 8 -13809738.16046  22160283.615    22160300.1234
  23884958.417    17959809.122 7  13772258.06745  23884958.137    23884981.4604
  23159038.532    -7331913.698 8  -5714149.57446  23159038.671    23159054.2594
  22914784.513   -14576800.273 8 -11324810.89046  22914784.455    22914798.6654
  22840884.230    13966643.608 8  10869614.50746  22840884.024    22840901.3834
  20688182.678   -12892338.647 9 -10045918.58948  20688182.389    20688193.7984
 00  3  1 19 29  0.0000000  0  7 02 04 27 26 09 08 07
  21496243.090     -714827.321 9   -569228.12747  21496242.781    21496255.5954
  22142567.476   -17835234.563 8 -13882281.13746  22142567.740    22142584.1424
  23906175.166    18071304.527 7  13859137.26645  23906175.049    23906198.8454
  23169623.934    -7276287.317 8  -5670804.49246  23169624.173    23169639.8504
  22898234.537   -14663770.233 8 -11392579.56746  22898234.492    22898248.7984
  22860577.237    14070130.446 8  10950253.33346  22860577.012    22860594.4974
  20693675.351   -12863474.467 9 -10023427.02348  20693675.057    20693686.5064
 00  3  1 19 29 30.0000000  0  7 02 04 27 26 09 08 07
  21500747.196     -691158.294 9   -550784.78747  21500746.873    21500759.7564
  22124909.777   -17928025.018 8 -13954585.19346  22124910.194    22124926.4714
  23927432.497    18183008.367 7  13946178.85745  23927432.222    23927455.8294
  23180278.798    -7220296.261 8  -5627175.23646  23180279.006    23180294.7114
  22881736.595   -14750465.315 8 -11460134.05946  22881736.813    22881751.1744
  22880314.146    14173847.621 8  11031071.62446  22880313.918    22880331.7074
  20699233.892   -12834264.366 9 -10000665.90948  20699233.589    20699245.0424
 00  3  1 19 30  0.0000000  0  7 02 04 27 26 09 08 07
  21505291.601     -667277.130 9   -532176.14947  21505291.287    21505304.2584
  22107308.036   -18020522.284 8 -14026660.77746  22107308.389    22107324.5884
  23948726.315    18294906.538 7  14033371.88445  23948726.191    23948749.5424
  23191003.190    -7163939.802 8  -5583261.25146  23191003.392    23191019.1404
  22865291.380   -14836885.288 8 -11527474.18046  22865291.508    22865305.8744
  22900093.101    14277785.370 8  11112061.79546  22900092.776    22900110.5714
  20704854.553   -12804727.590 9  -9977650.25248  20704854.268    20704865.7134
 00  3  1 19 30 30.0000000  0  7 02 04 27 26 09 08 07
  21509873.508     -643198.995 9   -513414.02347  21509873.205    21509886.1904
  22089759.722   -18112738.359 8 -14098517.25146  22089760.097    22089776.1824
  23970054.362    18406984.278 7  14120704.84945  23970054.266    23970077.6194
  23201796.115    -7107223.821 8  -5539067.12146  23201796.251    23201811.9954
  22848898.997   -14923026.865 8 -11594597.37446  22848899.166    22848913.5554
  22919911.964    14381933.920 8  11193216.22246  22919911.705    22919929.7704
  20710534.643   -12774878.684 9  -9954391.37548  20710534.345    20710545.7684
 00  3  1 19 31  0.0000000  0  7 02 04 27 26 09 08 07
  21514491.449     -618931.936 9   -494504.68847  21514491.157    21514504.1144
  22072260.345   -18204697.413 8 -14170173.44046  22072260.722    22072276.7354
  23991411.702    18519216.115 7  14208157.86945  23991411.581    23991434.8754
  23212653.288    -7050169.366 8  -5494609.24746  23212653.464    23212669.2284
  22832558.751   -15008894.780 8 -11661507.31846  22832558.999    22832573.3374
  22939773.501    14486305.559 8  11274544.48946  22939773.165    22939791.1764
  20716269.714   -12744740.806 9  -9930907.33148  20716269.395    20716280.7814
 00  3  1 19 31 30.0000000  0  7 02 04 27 26 09 08 07
  21519139.659     -594505.776 9   -475471.37647  21519139.360    21519152.3334
  22054806.019   -18296419.992 8 -14241645.37146  22054806.355    22054822.3064
  24012793.951    18631579.641 7  14295713.48445  24012793.859    24012817.4314
  23223567.958    -6992813.460 8  -5449916.49646  23223568.038    23223583.7914
  22816270.903   -15094487.943 8 -11728203.17246  22816271.084    22816285.4074
  22959677.193    14590899.174 8  11356045.71546  22959676.866    22959694.9314
  20722058.103   -12714322.455 9  -9907204.74248  20722057.808    20722069.2094
 00  3  1 19 32  0.0000000  0  7 02 04 27 26 09 08 07
  21523816.658     -569928.411 9   -456320.24247  21523816.332    21523829.3464
  22037395.542   -18387912.249 8 -14312937.82046  22037395.849    22037411.6664
  24034198.865    18744065.755 7  14383364.69545  24034198.991    24034223.1664
  23234535.115    -6935180.758 8  -5405008.06046  23234535.316    23234551.1174
  22800036.084   -15179802.562 8 -11794681.98446  22800036.174    22800050.4794
  22979619.648    14695697.172 8  11437706.20246  22979619.390    22979637.6354
  20727899.258   -12683626.962 9  -9883286.20248  20727898.944    20727910.3854
 00  3  1 19 32 30.0000000  0  7 02 04 27 26 09 08 07
  21528521.569     -545204.091 9   -437054.59147  21528521.275    21528534.2854
  22020031.161   -18479161.574 8 -14384040.98946  22020031.530    22020047.2774
  24055627.174    18856670.506 7  14471108.24245  24055627.335    24055651.4414
  23245551.952    -6877287.202 8  -5359896.35546  23245552.198    23245568.0444
  22783853.319   -15264842.905 8 -11860947.07446  22783853.446    22783867.7604
  22999598.946    14800688.367 8  11519517.24146  22999598.739    22999616.9714
  20733792.727   -12652656.646 9  -9859153.51348  20733792.394    20733803.8264
 00  3  1 19 33  0.0000000  0  7 02 04 27 26 09 08 07
  21533257.291     -520318.198 9   -417663.04047  21533256.986    21533269.9464
  22002714.686   -18570159.029 8 -14454947.88946  22002715.118    22002730.7724
  24077078.277    18969395.929 7  14558945.91945  24077078.495    24077102.8964
  23256616.125    -6819144.657 8  -5314590.62946  23256616.499    23256632.4044
  22767721.098   -15349617.734 8 -11927005.26946  22767721.285    22767735.5274
  23019613.972    14905866.575 8  11601473.99746  23019613.793    23019632.1144
  20739739.088   -12621407.886 9  -9834803.86048  20739738.788    20739750.2274
 00  3  1 19 33 30.0000000  0  7 02 04 27 26 09 08 07
  21538026.334     -495256.682 9   -398134.64947  21538026.045    21538039.0504
  21985450.898   -18660880.258 8 -14525639.54346  21985451.259    21985466.9244
  24098554.806    19082252.413 7  14646885.65345  24098554.856    24098579.1904
  23267730.914    -6760736.791 8  -5269078.15046  23267731.224    23267747.2434
  22751639.025   -15434129.103 8 -11992858.18146  22751639.268    22751653.3974
  23039662.372    15011220.750 8  11683567.85646  23039662.163    23039680.5424
  20745740.240   -12589871.762 9  -9810230.28948  20745739.913    20745751.3644
 00  3  1 19 34  0.0000000  0  7 02 04 27 26 09 08 07
  21542835.470     -469984.701 9   -378442.25447  21542835.185    21542848.1874
  21968245.850   -18751291.957 8 -14596090.01146  21968246.230    21968261.9484
  24120055.419    19195239.415 7  14734927.14545  24120055.723    24120080.1834
  23278900.372    -6702041.915 8  -5223342.02146  23278900.563    23278916.6214
  22735605.298   -15518385.956 8 -12058512.76546  22735605.648    22735619.7024
  23059745.460    15116756.084 8  11765802.90046  23059745.270    23059763.7194
  20751797.397   -12558040.968 9  -9785427.10548  20751797.120    20751808.5784
 00  3  1 19 34 30.0000000  0  7 02 04 27 26 09 08 07
  21547688.423     -444482.309 9   -358570.32147  21547688.166    21547701.1314
  21951104.676   -18841367.915 8 -14666278.86346  21951105.137    21951120.8614
  24141581.830    19308358.034 7  14823071.11845  24141581.580    24141606.3794
  23290128.615    -6643037.595 8  -5177364.77946  23290128.779    23290144.8104
  22719622.242   -15602377.882 8 -12123960.91746  22719622.393    22719636.4204
  23079867.231    15222495.059 8  11848196.59946  23079867.050    23079885.3754
  20757913.818   -12525899.409 9  -9760381.76548  20757913.535    20757924.9744
 00  3  1 19 35  0.0000000  0  7 02 04 27 26 09 08 07
  21552588.281     -418733.813 9   -338506.61947  21552588.004    21552600.9894
  21934028.686   -18931103.103 8 -14736202.18346  21934028.978    21934044.6114
  24163134.469    19421619.653 7  14911326.56845  24163134.600    24163159.5544
  23301417.756    -6583712.550 8  -5131137.62746  23301417.984    23301434.1024
  22703692.058   -15686090.961 8 -12189191.78146  22703692.241    22703706.1844
  23100030.180    15328450.727 8  11930759.15346  23100029.871    23100048.2954
  20764090.669   -12493439.864 9  -9735088.65148  20764090.379    20764101.8634
 00  3  1 19 35 30.0000000  0  7 02 04 27 26 09 08 07
  21557534.181     -392743.008 9   -318254.11247  21557533.880    21557546.9434
  21917018.666   -19020490.165 8 -14805854.23046  21917019.064    21917034.6214
  24184715.078    19535023.221 7  14999692.55745  24184715.219    24184739.9454
  23312768.357    -6524064.950 8  -5084659.11946  23312768.596    23312784.7134
  22687817.495   -15769511.821 8 -12254194.95546  22687817.731    22687831.6294
  23120235.021    15434627.364 8  12013493.91446  23120234.774    23120253.5334
  20770329.387   -12460655.200 9  -9709542.18848  20770329.110    20770340.5874
 00  3  1 19 36  0.0000000  0  7 02 04 27 26 09 08 07
  21562525.844     -366511.581 9   -297814.10747  21562525.554    21562538.6674
  21900074.677   -19109530.642 8 -14875236.21246  21900075.054    21900090.5954
  24206322.799    19648570.602 7  15088170.65945  24206322.840    24206348.0134
  23324178.016    -6464107.584 8  -5037939.24346  23324178.237    23324194.3874
  22672001.600   -15852624.195 8 -12318957.73646  22672001.910    22672015.7714
  23140483.602    15541033.364 8  12096407.35546  23140483.386    23140501.9954
  20776632.060   -12427534.649 9  -9683733.98648  20776631.767    20776643.2204
 00  3  1 19 36 30.0000000  0  7 02 04 27 26 09 08 07
  21567560.553     -340054.401 9   -277198.18247  21567560.279    21567573.4024
  21883193.169   -19198242.725 8 -14944362.29246  21883193.621    21883209.1164
  24227960.971    19762277.266 7  15176772.89145  24227961.111    24227985.9704
  23335644.999    -6403848.702 8  -4990984.41846  23335645.318    23335661.4314
  22656246.559   -15935416.602 8 -12383471.19546  22656246.917    22656260.7504
  23160776.222    15647670.277 8  12179500.75546  23160775.918    23160794.6344
  20782997.554   -12394083.769 9  -9657668.37848  20782997.240    20783008.7234
 00  3  1 19 37  0.0000000  0  7 02 04 27 26 09 08 07
  21572634.623     -313390.211 9   -256420.94847  21572634.326    21572647.4874
  21866371.265   -19286642.119 8 -15013244.70646  21866371.646    21866387.0824
  24249628.478    19876141.282 7  15265497.75745  24249628.820    24249653.7194
  23347167.622    -6343297.947 8  -4943802.14746  23347167.892    23347184.0324
  22640551.636   -16017893.810 8 -12447739.03146  22640551.932    22640565.7874
  23181110.814    15754528.883 8  12262766.89945  23181110.680    23181129.3194
  20789424.163   -12360311.685 9  -9631352.47948  20789423.861    20789435.3964
 00  3  1 19 37 30.0000000  0  7 02 04 27 26 09 08 07
  21577746.487     -286527.023 9   -235488.64947  21577746.227    21577759.4314
  21849607.728   -19374734.140 8 -15081887.61347  21849608.082    21849623.5054
  24271322.868    19990143.890 7  15354330.55945  24271323.192    24271347.8074
  23358744.269    -6282462.768 8  -4896398.27046  23358744.597    23358760.6974
  22624917.014   -16100053.717 8 -12511759.63146  22624917.346    22624931.1274
  23201486.669    15861602.270 8  12346200.38846  23201486.405    23201505.0444
  20795912.203   -12326216.908 9  -9604785.13248  20795911.880    20795923.4284
 00  3  1 19 38  0.0000000  0  7 02 04 27 26 09 08 07
  21582895.774     -259467.628 9   -214403.46547  21582895.492    21582908.7014
  21832903.017   -19462516.733 8 -15150289.40147  21832903.426    21832918.7914
  24293043.283    20104283.672 7  15443270.27245  24293043.395    24293068.3884
  23370375.931    -6221337.576 8  -4848768.40646  23370376.435    23370392.6104
  22609342.488   -16181898.533 8 -12575534.70446  22609342.738    22609356.4564
  23221904.747    15968899.550 8  12429808.35045  23221904.639    23221923.5314
  20802461.023   -12291802.787 9  -9577968.94048  20802460.706    20802472.2324
 00  3  1 19 38 30.0000000  0  7 02 04 27 26 09 08 07
  21588081.476     -232217.047 9   -193169.29547  21588081.172    21588094.3474
  21816257.201   -19549990.136 8 -15218450.25747  21816257.609    21816272.9314
  24314789.142    20218556.729 7  15532313.80545  24314789.052    24314814.3644
  23382065.098    -6159910.853 8  -4800903.58246  23382065.613    23382081.9264
  22593827.419   -16263429.916 8 -12639065.53746  22593827.699    22593841.4094
  23242364.648    16076415.177 8  12513586.44245  23242364.405    23242383.2334
  20809066.510   -12257090.552 9  -9550920.45648  20809066.223    20809077.7664
 00  3  1 19 39  0.0000000  0  6 02 04 26 09 08 07
  21593308.906     -204746.954 9   -171764.08247  21593308.594    21593321.7424
  21799676.525   -19637121.520 8 -15286344.60247  21799676.858    21799692.1584
  23393817.315    -6098153.740 8  -4752781.31446  23393817.697    23393834.1194
  22578378.158   -16344615.575 8 -12702326.97846  22578378.424    22578392.1254
  23262868.401    16184162.181 8  12597544.84045  23262868.112    23262887.3364
  20815733.901   -12222053.383 9  -9523618.77948  20815733.617    20815745.1464
 00  3  1 19 39 30.0000000  0  6 02 04 26 09 08 07
  21598572.960     -177084.036 9   -150208.61947  21598572.659    21598585.8104
  21783157.147   -19723930.466 8 -15353987.68947  21783157.494    21783172.7544
  23405625.753    -6036100.126 8  -4704428.00646  23405626.172    23405642.6234
  22562988.192   -16425489.662 8 -12765345.63446  22562988.568    22563002.1594
  23283408.534    16292101.787 8  12681653.30945  23283408.421    23283427.7814
  20822456.925   -12186723.831 9  -9496089.27148  20822456.623    20822468.1414
 00  3  1 19 40  0.0000000  0  6 02 04 26 09 08 07
  21603873.593     -149229.135 9   -128503.54947  21603873.309    21603886.5044
  21766700.506   -19810409.734 8 -15421373.88547  21766700.867    21766716.0504
  23417490.364    -5973751.297 8  -4655844.65546  23417490.868    23417507.3184
  22547655.572   -16506063.439 8 -12828130.28246  22547655.863    22547669.3734
  23303983.444    16400222.173 8  12765902.64045  23303983.397    23304002.6334
  20829231.520   -12151123.136 9  -9468348.48448  20829231.223    20829242.7194
 00  3  1 19 40 30.0000000  0  6 02 04 26 09 08 07
  21609212.558     -121172.942 9   -106641.62347  21609212.264    21609225.4994
  21750307.021   -19896556.307 9 -15488500.83347  21750307.556    21750322.5934
  23429409.823    -5911115.453 8  -4607037.65046  23429410.176    23429426.5934
  22532381.217   -16586331.199 8 -12890676.48446  22532381.437    22532394.8724
  23324588.341    16508499.262 8  12850274.07745  23324588.114    23324607.5674
  20836055.866   -12115261.033 9  -9440404.00348  20836055.559    20836067.0534
 00  3  1 19 41  0.0000000  0  6 02 04 26 09 08 07
  21614592.077      -92903.429 9    -84613.47647  21614591.770    21614605.0534
  21733979.633   -19982356.865 8 -15555358.15547  21733980.099    21733995.0204
  23441382.552    -5848199.469 8  -4558012.36346  23441382.868    23441399.2784
  22517165.508   -16666290.106 8 -12952982.01846  22517165.701    22517179.0994
  23345222.575    16616931.315 8  12934766.26445  23345222.318    23345241.5524
  20842933.334   -12079119.852 9  -9412242.06048  20842933.028    20842944.5004
 00  3  1 19 41 30.0000000  0  7 24 02 04 26 09 08 07
  24361703.156    -2821616.302 7  -1831542.84645  24361702.934    24361728.4554
  21620002.762      -64470.124 9    -62457.69047  21620002.494    21620015.7554
  21717709.804   -20067854.543 8 -15621979.46647  21717710.242    21717725.1154
  23453395.288    -5785072.470 8  -4508822.62946  23453395.682    23453412.1184
  22501997.073   -16746000.110 8 -13015093.60546  22501997.271    22502010.7074
  23365877.510    16725471.202 8  13019342.47745  23365877.229    23365896.2604
  20849852.122   -12042761.404 9  -9383910.82048  20849851.828    20849863.2994
 00  3  1 19 42  0.0000000  0  7 24 02 04 26 09 08 07
  24340945.810    -2930698.853 7  -1916541.87645  24340945.114    24340970.3104
  21625461.137      -35786.442 9    -40106.80647  21625460.875    21625474.1184
  21701510.456   -20152981.423 8 -15688311.85647  21701510.967    21701525.7554
  23465460.902    -5721668.241 8  -4459416.86746  23465461.289    23465477.6654
  22486893.818   -16825368.128 8 -13076938.70246  22486893.948    22486907.4274
  23386567.816    16834199.174 8  13104065.25945  23386567.656    23386586.8904
  20856825.149   -12006118.018 9  -9355357.55848  20856824.831    20856836.3594
 00  3  1 19 42 30.0000000  0  7 24 02 04 26 09 08 07
  24320186.029    -3039787.365 7  -2001545.56945  24320186.106    24320211.1724
  21630965.763       -6860.024 9    -17566.78047  21630965.474    21630978.7384
  21685381.442   -20237739.076 8 -15754356.53247  21685381.913    21685396.6294
  23477575.369    -5658006.454 8  -4409810.41746  23477575.871    23477592.2084
  22471857.217   -16904384.802 8 -13138510.01446  22471857.427    22471870.9634
  23407294.581    16943117.422 8  13188936.29345  23407294.416    23407313.6254
  20863853.095   -11969185.631 9  -9326579.10248  20863852.815    20863864.3544
 00  3  1 19 43  0.0000000  0  7 24 02 04 26 09 08 07
  24299425.806    -3148883.664 7  -2086555.24145  24299425.519    24299450.4744
  21636511.922       22285.063 9      5143.63647  21636511.625    21636524.8604
  21669320.937   -20322136.633 8 -15820120.62547  21669321.401    21669336.1294
  23489733.874    -5594112.840 8  -4360023.32146  23489734.565    23489750.8944
  22456883.778   -16983070.266 8 -13199823.25546  22456884.023    22456897.5324
  23428055.762    17052217.096 8  13273948.70745  23428055.564    23428074.9354
  20870933.822   -11931976.239 9  -9297584.79648  20870933.563    20870945.0764
 00  3  1 19 43 30.0000000  0  7 24 02 04 26 09 08 07
  24278662.222    -3257992.598 7  -2171574.78345  24278662.403    24278687.4164
  21642096.657       51633.070 9     28012.16547  21642096.388    21642109.6324
  21653328.652   -20406175.854 8 -15885605.50347  21653329.103    21653343.7914
  23501933.915    -5530002.478 8  -4310067.32546  23501934.508    23501950.7924
  22441974.516   -17061419.216 8 -13260874.27046  22441974.665    22441988.1264
  23448851.297    17161495.157 8  13359100.10945  23448850.898    23448870.2084
  20878065.212   -11894500.986 9  -9268383.32448  20878064.926    20878076.4064
 00  3  1 19 44  0.0000000  0  7 24 02 04 26 09 08 07
  24257895.525    -3367122.188 7  -2256610.35545  24257895.459    24257920.4184
  21647717.705       81171.565 9     51029.13247  21647717.417    21647730.6744
  21637404.109   -20489859.063 8 -15950812.98247  21637404.557    21637419.2134
  23514175.780    -5465671.809 8  -4259939.69046  23514176.304    23514192.6614
  22427130.307   -17139425.580 8 -13321658.33846  22427130.421    22427143.8744
  23469677.961    17270940.025 8  13444381.49445  23469677.660    23469697.1994
  20885245.100   -11856770.862 9  -9238983.25048  20885244.776    20885256.2434
 00  3  1 19 44 30.0000000  0  7 24 02 04 26 09 08 07
  24237125.643    -3476266.055 7  -2341657.05345  24237125.718    24237150.6974
  21653374.940      110900.172 9     74194.23147  21653374.661    21653387.9304
  21621551.257   -20573165.087 9 -16015726.56547  21621551.791    21621566.4054
  23526462.857    -5401103.293 8  -4209626.72646  23526463.368    23526479.7904
  22412350.108   -17217095.100 8 -13382179.93846  22412350.313    22412363.7304
  23490536.583    17380551.655 8  13529792.84445  23490536.230    23490556.0064
  20892475.162   -11818776.532 9  -9209377.30648  20892474.871    20892486.3554
 00  3  1 19 45  0.0000000  0  7 24 02 04 26 09 08 07
  24216357.889    -3585399.865 7  -2426695.86845  24216357.745    24216382.8794
  21659071.378      140834.581 9     97519.68247  21659071.067    21659084.3354
  21605771.815   -20656086.205 8 -16080340.21647  21605772.236    21605786.8044
  23538799.828    -5336272.196 8  -4159109.13946  23538800.428    23538816.9074
  22397635.787   -17294419.112 8 -13442432.29546  22397635.989    22397649.3654
  23511430.235    17490347.319 8  13615347.56745  23511429.836    23511449.7164
  20899756.647   -11780512.099 9  -9179560.89448  20899756.360    20899767.8534
 00  3  1 19 45 30.0000000  0  7 24 02 04 26 09 08 07
  24195592.684    -3694518.692 7  -2511723.05445  24195592.911    24195617.8874
  21664808.132      170981.198 9    121010.50047  21664807.805    21664821.1054
  21590063.015   -20738635.231 8 -16144663.94247  21590063.461    21590077.9984
  23551186.020    -5271183.610 8  -4108390.92846  23551186.492    23551202.9774
  22382986.136   -17371402.755 8 -13502419.43946  22382986.331    22382999.7314
  23532359.149    17600328.754 8  13701047.05745  23532358.856    23532378.8924
  20907085.691   -11741997.637 9  -9149549.64748  20907085.426    20907096.9104
 00  3  1 19 46  0.0000000  0  7 24 02 04 26 09 08 07
  24174828.419    -3803635.232 8  -2596748.38545  24174828.475    24174853.2414
  21670585.676      201342.138 9    144668.32047  21670585.366    21670598.6014
  21574419.837   -20820839.907 8 -16208719.35147  21574420.280    21574434.7484
  23563619.925    -5205843.952 8  -4057477.07546  23563620.315    23563636.9664
  22368395.888   -17448074.219 8 -13562163.31946  22368396.102    22368409.5134
  23553318.696    17710471.533 8  13786872.28645  23553318.387    23553338.8684
  20914459.200   -11703249.669 9  -9119356.44148  20914458.931    20914470.4454
 00  3  1 19 46 30.0000000  0  7 24 02 04 26 09 08 07
  24154062.408    -3912760.597 7  -2681780.61245  24154062.161    24154087.0004
  21676404.162      231917.874 9    168493.51347  21676403.818    21676417.0134
  21558838.649   -20902718.571 8 -16272520.73747  21558839.107    21558853.5564
  23576097.758    -5140273.485 8  -4006383.34746  23576098.077    23576114.8314
  22353862.355   -17524448.234 8 -13621675.42946  22353862.553    22353875.9244
  23574306.316    17820761.401 8  13872812.10945  23574306.087    23574326.5484
  20921877.718   -11664265.141 9  -9088978.90948  20921877.446    20921888.9464
 00  3  1 19 47  0.0000000  0  7 24 02 04 26 09 08 07
  24133293.489    -4021896.713 7  -2766821.26045  24133293.879    24133318.6174
  21682262.569      262703.953 9    192482.60647  21682262.212    21682275.3834
  21543316.408   -20984287.968 8 -16336081.13547  21543316.823    21543331.1804
  23588612.944    -5074506.594 8  -3955136.57846  23588613.193    23588630.0864
  22339386.019   -17600522.064 8 -13680953.61846  22339386.085    22339399.4734
  23595319.458    17931185.911 8  13958856.88245  23595319.359    23595339.8854
  20929341.310   -11625043.773 9  -9058416.81648  20929341.039    20929352.5244
 00  3  1 19 47 30.0000000  0  7 24 02 04 26 09 08 07
  24112520.355    -4131060.646 7  -2851883.51645  24112520.341    24112544.9784
  21688161.628      293703.411 9    216637.96247  21688161.288    21688174.4134
  21527853.468   -21065545.211 8 -16399398.31247  21527853.907    21527868.2154
  23601161.932    -5008561.671 8  -3903751.07146  23601162.175    23601179.2214
  22324967.422   -17676291.144 8 -13739994.35146  22324967.676    22324981.0354
  23616352.995    18041714.536 8  14044982.76545  23616352.629    23616373.1784
  20936852.830   -11585570.530 9  -9027658.46648  20936852.559    20936864.0944
 00  3  1 19 48  0.0000000  0  7 24 02 04 26 09 08 07
  24091742.426    -4240245.284 7  -2936961.99445  24091742.854    24091767.3924
  21694102.422      324922.596 9    240964.52847  21694102.116    21694115.3214
  21512454.130   -21146468.747 9 -16462455.45647  21512454.578    21512468.8044
  23613747.569    -4942422.816 8  -3852214.45046  23613747.922    23613765.2214
  22310612.384   -17751727.328 8 -13798775.67446  22310612.525    22310625.8574
  23637406.044    18152345.825 8  14131188.61645  23637405.544    23637425.8094
  20944417.920   -11545815.847 9  -8996680.80548  20944417.641    20944429.2144
 00  3  1 19 48 30.0000000  0  7 24 02 04 26 09 08 07
  24070963.389    -4349441.310 7  -3022049.25545  24070963.230    24070987.6404
  21700086.276      356367.991 9    265467.37247  21700085.973    21700099.2184
  21497124.691   -21227025.594 9 -16525226.86847  21497125.040    21497139.1664
  23626372.055    -4876080.527 8  -3800519.30846  23626372.493    23626389.9034
  22296325.943   -17826802.650 8 -13857275.81446  22296326.085    22296339.3804
  23658483.310    18263107.953 8  14217496.46845  23658483.002    23658503.6534
  20952038.594   -11505769.133 9  -8965475.58548  20952038.326    20952049.9064
 00  3  1 19 49  0.0000000  0  7 24 02 04 26 09 08 07
  24050183.486    -4458637.196 7  -3107136.49545  24050183.654    24050207.8124
  21706114.140      388044.373 9    290150.19947  21706113.830    21706127.1664
  21481871.278   -21307181.956 9 -16587686.21947  21481871.620    21481885.7354
  23639040.042    -4809511.498 8  -3748647.48546  23639040.312    23639057.6964
  22282110.670   -17901504.589 8 -13915485.00846  22282110.746    22282124.0034
  23679588.946    18374016.358 8  14303918.27745  23679588.522    23679609.2474
  20959716.070   -11465423.796 9  -8934037.67647  20959715.751    20959727.3474
 00  3  1 19 49 30.0000000  0  7 24 02 04 26 09 08 07
  24029408.416    -4567809.234 8  -3192205.13045  24029408.657    24029432.4784
  21712187.677      419960.685 9    315019.98947  21712187.375    21712200.7004
  21466701.219   -21386900.220 9 -16649804.19847  21466701.602    21466715.7024
  23651758.557    -4742674.843 8  -3696567.13946  23651759.078    23651776.3844
  22267969.835   -17975814.573 8 -13973388.79946  22267969.985    22267983.1224
  23700725.189    18485087.644 8  14390467.00045  23700724.858    23700745.2764
  20967450.411   -11424779.357 9  -8902366.69847  20967450.166    20967461.7554
 00  3  1 19 50  0.0000000  0  7 24 02 04 26 09 08 07
  24008642.717    -4676931.815 7  -3277235.25145  24008642.904    24008666.7724
  21718305.782      452111.488 9    340072.49847  21718305.500    21718318.8504
  21451616.191   -21466170.940 8 -16711573.44447  21451616.675    21451630.7844
  23664531.122    -4675554.867 8  -3644266.00146  23664531.835    23664549.0024
  22253905.141   -18049724.753 8 -14030981.03746  22253905.262    22253918.3534
  23721898.014    18596349.604 8  14477164.32645  23721897.542    23721918.2194
  20975238.146   -11383854.577 9  -8870477.27447  20975237.885    20975249.4914
 00  3  1 19 50 30.0000000  0  7 24 02 04 26 09 08 07
  23987889.508    -4785986.709 8  -3362212.65645  23987889.940    23987913.9574
  21724466.547      484486.415 9    365299.65047  21724466.275    21724479.6804
  21436617.821   -21544986.951 8 -16772988.36047  21436618.338    21436632.3984
  23677355.433    -4608165.087 8  -3591754.64346  23677355.897    23677372.9954
  22239914.234   -18123246.818 8 -14088270.85446  22239914.378    22239927.4394
  23743106.879    18707801.819 8  14564009.88045  23743106.528    23743127.1954
  20983076.854   -11342661.719 9  -8838378.96347  20983076.588    20983088.2134
 00  3  1 19 51  0.0000000  0  7 24 02 04 26 09 08 07
  23967155.765    -4894942.577 8  -3447112.88545  23967155.964    23967179.7104
  21730668.466      517077.488 9    390695.23947  21730668.191    21730681.6514
  21421706.899   -21623344.069 9 -16834045.69847  21421707.391    21421721.3534
  23690230.220    -4540508.118 8  -3539035.07345  23690230.714    23690247.8644
  22225999.981   -18196366.091 8 -14145246.80046  22226000.121    22226013.1684
  23764349.504    18819430.712 7  14650993.10645  23764348.953    23764369.7334
  20990968.128   -11301193.038 9  -8806065.71747  20990967.885    20990979.4544
 00  3  1 19 51 30.0000000  0  7 24 02 04 26 09 08 07
  23946443.657    -5003782.523 8  -3531922.82645  23946444.053    23946467.7334
  21736912.982      549892.084 9    416265.00347  21736912.708    21736926.1154
  21406881.315   -21701252.222 9 -16894753.19947  21406881.844    21406895.7524
  23703152.615    -4472600.189 8  -3486119.94245  23703153.179    23703170.5454
  22212164.020   -18269073.586 8 -14201901.88846  22212164.289    22212177.2724
  23785623.338    18931226.185 7  14738106.12445  23785623.006    23785644.1834
  20998910.116   -11259458.166 9  -8773545.04947  20998909.807    20998921.3644
 00  3  1 19 52  0.0000000  0  7 24 02 04 26 09 08 07
  23925744.577    -5112555.217 8  -3616680.33045  23925744.972    23925768.4284
  21743195.112      582904.365 9    441988.79447  21743194.809    21743208.2424
  21392131.942   -21778760.687 9 -16955149.23747  21392132.405    21392146.2554
  23716111.245    -4404502.357 8  -3433056.85745  23716111.867    23716129.3694
  22198396.967   -18341420.068 8 -14258275.66047  22198397.180    22198410.1134
  23806920.717    19043143.512 8  14825314.07245  23806920.421    23806941.6004
  21006895.140   -11217496.423 9  -8740847.61047  21006894.879    21006906.4454
 00  3  1 19 52 30.0000000  0  7 24 02 04 26 09 08 07
  23905059.508    -5221254.406 8  -3701380.60345  23905059.922    23905083.1664
  21749521.828      616151.083 9    467895.26247  21749521.510    21749534.9494
  21377464.653   -21855837.633 9 -17015209.02847  21377465.059    21377478.8864
  23729108.503    -4336201.020 8  -3379835.18445  23729109.300    23729126.9954
  22184701.686   -18413389.181 8 -14314355.38947  22184701.861    22184714.7564
  23828242.369    19155189.135 8  14912622.01045  23828242.132    23828263.3334
  21014929.268   -11175276.984 9  -8707949.37447  21014928.977    21014940.5604
 00  3  1 19 53  0.0000000  0  7 24 02 04 26 09 08 07
  23884389.069    -5329877.826 8  -3786021.78345  23884389.272    23884412.3024
  21755902.415      649681.054 9    494022.45147  21755902.102    21755915.5694
  21362882.676   -21932465.704 9 -17074919.03647  21362883.094    21362896.8824
  23742149.697    -4267669.166 8  -3326433.91045  23742150.561    23742168.3704
  22171084.645   -18484947.205 8 -14370114.77647  22171084.727    22171097.6274
  23849593.333    19267386.936 8  15000048.52045  23849593.110    23849614.2304
  21023016.984   -11132775.886 9  -8674831.66047  21023016.688    21023028.2674
 00  3  1 19 53 30.0000000  0  7 24 02 04 26 09 08 07
  23863727.678    -5438450.756 8  -3870623.64345  23863728.156    23863751.2104
  21762343.093      683526.980 9    520395.84147  21762342.764    21762356.2564
  21348385.199   -22008649.736 9 -17134283.04247  21348385.660    21348399.4294
  23755233.456    -4198913.900 8  -3272858.52245  23755234.443    23755252.2234
  22157543.123   -18556107.399 8 -14425564.17147  22157543.282    22157556.1634
  23870974.506    19379742.521 8  15087597.99245  23870974.088    23870995.1304
  21031156.470   -11090002.692 9  -8641501.93347  21031156.174    21031167.7774
 00  3  1 19 54  0.0000000  0  7 24 02 04 26 09 08 07
  23843061.116    -5547054.245 8  -3955249.29645  23843061.153    23843084.1314
  21768831.415      717623.203 9    546964.25447  21768831.102    21768844.6364
  21333958.973   -22084459.454 9 -17193355.36347  21333959.388    21333973.1634
  23768346.637    -4130005.577 8  -3219163.87645  23768347.425    23768365.1594
  22144064.517   -18626937.194 8 -14480756.11847  22144064.793    22144077.6464
  23892372.832    19492189.926 8  15175219.00745  23892372.364    23892393.4594
  21039336.006   -11047019.018 9  -8608008.18847  21039335.711    21039347.2984
 00  3  1 19 54 30.0000000  0  7 24 02 04 26 09 08 07
  23822388.956    -5655684.266 8  -4039895.63845  23822389.304    23822411.9254
  21775364.021      751952.192 9    573714.06247  21775363.699    21775377.2504
  21319602.492   -22159901.843 9 -17252141.44947  21319602.976    21319616.7604
  23781487.804    -4060950.567 8  -3165354.90045  23781488.368    23781505.9444
  22130652.081   -18697419.363 8 -14535677.17847  22130652.398    22130665.2224
  23913788.169    19604729.132 8  15262911.55445  23913788.088    23913809.2404
  21047555.787   -11003824.073 9  -8574349.81147  21047555.471    21047567.0704
 00  3  1 19 55  0.0000000  0  7 24 02 04 26 09 08 07
  23801714.217    -5764328.499 8  -4124553.03145  23801714.647    23801737.3014
  21781938.238      786499.943 8    600634.31247  21781937.918    21781951.5514
  21305314.909   -22234982.712 9 -17310645.83247  21305315.417    21305329.1364
  23794654.695    -3991760.204 8  -3111440.47345  23794655.043    23794672.4874
  22117305.664   -18767554.854 8 -14590328.10747  22117305.978    22117318.7644
  23935220.923    19717357.690 7  15350673.69345  23935220.701    23935242.1484
  21055813.022   -10960432.324 9  -8540538.09347  21055812.664    21055824.2674
 00  3  1 19 55 30.0000000  0  7 24 02 04 26 09 08 07
  23781040.183    -5872969.743 8  -4209208.11845  23781040.549    23781063.0114
  21788550.266      821246.170 9    627709.23547  21788549.951    21788563.5554
  21291099.082   -22309686.464 9 -17368856.35247  21291099.569    21291113.2384
  23807849.112    -3922423.594 8  -3057412.08345  23807849.459    23807866.8414
  22104025.196   -18837343.578 8 -14644708.83047  22104025.531    22104038.2764
  23956669.364    19830070.212 8  15438501.28445  23956669.312    23956690.9764
  21064106.590   -10916849.364 9  -8506577.38247  21064106.282    21064117.8744
 00  3  1 19 56  0.0000000  0  7 24 02 04 26 09 08 07
  23760374.651    -5981566.157 8  -4293828.23945  23760374.995    23760397.2184
  21795196.832      856174.019 8    654925.66847  21795196.489    21795210.2214
  21276960.661   -22383983.870 9 -17426750.24047  21276961.147    21276974.7584
  23821076.639    -3852912.098 8  -3003247.42845  23821077.101    23821094.5004
  22090816.063   -18906757.831 8 -14698797.76747  22090816.376    22090829.0834
  23978136.669    19942877.738 8  15526402.87045  23978136.311    23978157.6994
  21072441.410   -10873049.776 9  -8472447.87647  21072441.092    21072452.6924
 00  3  1 19 56 30.0000000  0  7 24 02 04 26 09 08 07
  23739724.127    -6090083.851 8  -4378387.05245  23739724.421    23739746.4234
  21801881.142      891300.324 9    682296.75347  21801880.822    21801894.6214
  21262908.171   -22457829.528 9 -17484292.11247  21262908.645    21262922.2434
  23834342.702    -3783198.229 8  -2948925.07045  23834343.247    23834360.7154
  22077682.244   -18975776.758 8 -14752578.65447  22077682.409    22077695.1034
  23999627.286    20055810.565 8  15614402.14345  23999627.112    23999648.5584
  21080820.888   -10829015.723 9  -8438135.66347  21080820.542    21080832.1154
 00  3  1 19 57  0.0000000  0  7 24 02 04 26 09 08 07
  23719092.660    -6198501.773 8  -4462868.09445  23719092.785    23719114.9364
  21808608.408      926652.276 8    709843.66647  21808608.085    21808621.9214
  21248946.056   -22531199.821 9 -17541463.57947  21248946.561    21248960.1494
  23847652.458    -3713256.133 8  -2894424.88545  23847652.864    23847670.4284
  22064626.531   -19044385.079 8 -14806039.58947  22064626.657    22064639.3324
  24021144.809    20168883.203 7  15702510.34845  24021144.457    24021166.1314
  21089246.607   -10784738.366 9  -8403633.86947  21089246.259    21089257.8544
 00  3  1 19 57 30.0000000  0  7 24 02 04 26 09 08 07
  23698480.535    -6306817.117 8  -4547269.23345  23698480.673    23698502.8194
  21815379.918      962236.784 8    737571.79947  21815379.627    21815393.5154
  21235073.954   -22604098.100 9 -17598267.22947  21235074.354    21235087.9394
  23861005.908    -3643083.132 8  -2839744.76545  23861006.459    23861024.0514
  22051651.011   -19112570.885 8 -14859171.29647  22051651.240    22051663.8984
  24042688.535    20282096.530 7  15790728.15945  24042688.333    24042710.0444
  21097722.271   -10740198.599 9  -8368927.59847  21097721.961    21097733.5484
 00  3  1 19 58  0.0000000  0  7 24 02 04 26 09 08 07
  23677887.845    -6415032.234 8  -4631592.25545  23677887.730    23677909.6824
  21822196.817      998059.755 9    765485.74147  21822196.527    21822210.4234
  21221290.067   -22676531.839 9 -17654708.90947  21221290.527    21221304.0654
  23874396.585    -3572715.277 8  -2784912.79445  23874397.049    23874414.8024
  22038756.955   -19180329.352 8 -14911970.01047  22038757.096    22038769.7334
  24064259.801    20395452.913 8  15879057.44345  24064259.499    24064281.2904
  21106249.214   -10695389.315 9  -8334011.31647  21106248.898    21106260.4944
 00  3  1 19 58 30.0000000  0  7 24 02 04 26 09 08 07
  23657308.794    -6523173.445 8  -4715857.72545  23657308.746    23657330.7284
  21829061.259     1034131.924 9    793593.87247  21829060.935    21829074.8014
  21207591.759   -22748516.196 9 -17710800.42647  21207592.240    21207605.6974
  23887820.112    -3502176.128 8  -2729947.37445  23887820.316    23887838.1154
  22025942.704   -19247668.656 8 -14964442.10447  22025942.777    22025955.3814
  24085856.735    20508945.279 7  15967492.69345  24085856.578    24085878.6254
  21114823.246   -10650332.509 9  -8298902.16647  21114822.922    21114834.5254
 00  3  1 19 59  0.0000000  0  7 24 02 04 26 09 08 07
  23636740.545    -6631258.094 8  -4800079.13845  23636740.606    23636762.3784
  21835970.316     1070439.005 9    821885.04347  21835970.003    21835983.8584
  21193972.289   -22820086.385 9 -17766569.20947  21193972.768    21193986.1084
  23901271.006    -3431491.868 8  -2674868.86745  23901271.205    23901288.9984
  22013206.653   -19314596.374 8 -15016593.48147  22013206.754    22013219.3624
  24107473.795    20622541.889 8  16056009.16145  24107473.642    24107495.9734
  21123439.210   -10605055.097 9  -8263621.11147  21123438.937    21123450.5444
 00  3  1 19 59 30.0000000  0  7 24 02 04 26 09 08 07
  23616181.502    -6739294.474 8  -4884262.93945  23616181.539    23616203.4384
  21842920.207     1106960.373 9    850343.20147  21842919.901    21842933.6464
  21180431.236   -22891244.047 9 -17822016.55947  21180431.722    21180445.0184
  23914743.619    -3360692.848 8  -2619700.94745  23914743.858    23914761.7194
  22000546.587   -19381125.258 8 -15068434.07347  22000546.709    22000559.2914
  24129107.304    20736222.517 7  16144591.07845  24129106.826    24129129.0664
  21132094.482   -10559571.737 9  -8228179.58347  21132094.166    21132105.7934
 00  3  1 20  0  0.0000000  0  7 24 02 04 26 09 08 07
  23595634.175    -6847270.108 8  -4968399.42245  23595634.163    23595655.9914
  21849911.782     1143700.778 9    878972.03047  21849911.471    21849925.1474
  21166973.342   -22961964.974 9 -17877123.58747  21166973.849    21166987.0944
  23928241.083    -3289763.368 8  -2564431.38245  23928241.313    23928259.2004
  21987963.135   -19447251.729 8 -15119961.10247  21987963.210    21987975.7654
  24150756.866    20849992.668 7  16233242.77945  24150756.728    24150779.2244
  21140787.390   -10513890.299 9  -8192583.70747  21140787.078    21140798.7204
 00  3  1 20  0 30.0000000  0  7 24 02 04 26 09 08 07
  23575100.547    -6955173.107 8  -5052479.32145  23575100.658    23575122.3244
  21856946.929     1180670.438 8    907779.49447  21856946.621    21856960.2424
  21153599.782   -23032242.933 9 -17931885.46247  21153600.288    21153613.4354
  23941768.793    -3218674.751 8  -2509037.81145  23941769.168    23941786.9954
  21975456.830   -19512972.064 8 -15171171.65547  21975456.948    21975469.5034
  24172423.304    20963848.396 7  16321961.14245  24172423.198    24172445.5824
  21149517.603   -10468012.712 9  -8156834.99847  21149517.334    21149528.9824
 00  3  1 20  1  0.0000000  0  7 24 02 04 26 09 08 07
  23554584.237    -7062985.742 8  -5136488.81545  23554584.331    23554605.8744
  21864025.178     1217866.668 9    936763.50547  21864024.890    21864038.5444
  21140312.482   -23102067.830 9 -17986294.29947  21140312.946    21140326.0084
  23955325.677    -3147434.339 8  -2453525.93445  23955325.933    23955343.7104
  21963027.649   -19578287.453 9 -15222066.67147  21963027.792    21963040.3104
  24194104.219    21077779.980 7  16410738.60445  24194104.009    24194126.4894
  21158285.954   -10421935.051 9  -8120930.37947  21158285.653    21158297.3004
 00  3  1 20  1 30.0000000  0  7 24 02 04 26 09 08 07
  23534088.714    -7170688.451 8  -5220412.66945  23534088.990    23534110.3454
  21871150.701     1255311.208 9    965941.00847  21871150.367    21871164.0394
  21127117.063   -23171409.747 9 -18040326.80147  21127117.491    21127130.5484
  23968915.069    -3076024.030 8  -2397881.70345  23968914.975    23968932.7534
  21950676.274   -19643194.636 9 -15272643.60147  21950676.333    21950688.8164
  24215800.855    21191794.569 8  16499580.73745  24215800.579    24215823.0264
  21167097.407   -10375630.534 9  -8084848.98547  21167097.124    21167108.8014
 00  3  1 20  2  0.0000000  0  7 24 02 04 26 09 08 07
  23513613.468    -7278285.914 8  -5304254.52845  23513613.645    23513634.8874
  21878328.649     1293031.019 9    995333.00047  21878328.338    21878341.9874
  21114014.471   -23240263.785 9 -18093979.14047  21114014.912    21114027.8764
  23982538.658    -3004432.462 8  -2342096.21445  23982538.474    23982556.3674
  21938403.470   -19707688.255 8 -15322898.27647  21938403.549    21938416.0404
  24237515.248    21305903.455 7  16588496.38845  24237514.918    24237537.4984
  21175952.680   -10329095.911 9  -8048588.28547  21175952.413    21175964.0944
 00  3  1 20  2 30.0000000  0  7 24 02 04 26 09 08 07
  23493155.434    -7385792.457 8  -5388025.52145  23493155.548    23493176.6704
  21885560.397     1331034.208 9   1024945.79447  21885560.112    21885573.7714
  21101003.367   -23308636.587 9 -18147256.50147  21101003.859    21101016.7574
  23996191.782    -2932683.346 8  -2286187.96745  23996192.021    23996209.9654
  21926210.294   -19771763.141 9 -15372826.66447  21926210.420    21926222.9064
  24259246.646    21420101.110 7  16677481.16945  24259246.472    24259269.1984
  21184848.345   -10282348.954 9  -8012162.12647  21184848.065    21184859.7934
 00  3  1 20  3  0.0000000  0  7 24 02 04 26 09 08 07
  23472713.727    -7493212.536 8  -5471729.16845  23472713.929    23472734.9024
  21892844.020     1369309.123 9   1054770.34047  21892843.729    21892857.3404
  21088086.055   -23376516.940 9 -18200150.14847  21088086.542    21088099.4464
  24009872.380    -2860791.334 8  -2230168.38045  24009872.770    24009890.7564
  21914097.321   -19835417.098 9 -15422427.06147  21914097.416    21914109.8884
  24280995.520    21534389.324 7  16766536.52145  24280995.036    24281017.8584
  21193784.169   -10235390.970 9  -7975571.53347  21193783.889    21193795.6824
 00  3  1 20  3 30.0000000  0  7 24 02 04 26 09 08 07
  23452288.447    -7600547.143 8  -5555366.20645  23452288.609    23452309.4964
  21900179.583     1407857.290 9   1084807.80847  21900179.261    21900192.9124
  21075262.431   -23443905.429 9 -18252660.51947  21075262.859    21075275.7414
  24023581.458    -2788750.598 8  -2174032.90645  24023581.761    24023599.8624
  21902066.600   -19898639.186 9 -15471690.93447  21902066.585    21902079.0274
  24302763.517    21648781.264 7  16855672.67745  24302763.187    24302786.3164
  21202761.125   -10188216.982 9  -7938812.62247  21202760.834    21202772.6594
 00  3  1 20  4  0.0000000  0  7 24 02 04 26 09 08 07
  23431878.523    -7707799.651 8  -5638939.28145  23431878.829    23431899.7094
  21907564.429     1446664.990 8   1115047.50147  21907564.119    21907577.8934
  21062529.836   -23510815.076 9 -18304797.78847  21062530.274    21062543.1364
  24037314.633    -2716582.012 8  -2117797.80645  24037314.953    24037333.3214
  21890119.437   -19961421.930 9 -15520612.47447  21890119.376    21890131.7874
  24324552.786    21763283.577 7  16944894.82645  24324552.482    24324575.9454
  21211776.870   -10140839.057 9  -7901894.79947  21211776.563    21211788.3974
 00  3  1 20  4 30.0000000  0  7 24 02 04 26 09 08 07
  23411487.614    -7814954.450 8  -5722436.20045  23411487.685    23411508.4704
  21914993.515     1485704.870 9   1145468.13647  21914993.216    21915006.9844
  21049885.450   -23577261.249 9 -18356573.89947  21049885.877    21049898.6814
  24051070.872    -2644293.897 8  -2061469.58045  24051070.989    24051089.3694
  21878255.301   -20023767.911 9 -15569193.66947  21878255.239    21878267.6234
  24346359.773    21877877.712 7  17034188.55845  24346359.475    24346382.7684
  21220831.776   -10093255.508 9  -7864816.74347  21220831.464    21220843.3254
 00  3  1 20  5  0.0000000  0  7 24 02 04 26 09 08 07
  23391117.724    -7921995.508 8  -5805844.51545  23391118.207    23391138.8784
  21922464.822     1524966.620 9   1176061.64347  21922464.504    21922478.2444
  21037328.754   -23643246.646 9 -18407990.97547  21037329.160    21037341.8904
  24064850.213    -2571885.021 8  -2005047.23545  24064850.120    24064868.3904
  21866472.414   -20085686.602 9 -15617441.92047  21866472.396    21866484.8004
  24368183.991    21992562.205 7  17123552.69045  24368183.606    24368206.8354
  21229928.260   -10045453.133 9  -7827568.17747  21229927.956    21229939.8624
 00  3  1 20  5 30.0000000  0  7 24 02 04 26 09 08 07
  23370769.140    -8028928.613 8  -5889168.68545  23370769.263    23370789.8344
  21929977.254     1564444.656 8   1206823.67547  21929976.913    21929990.7124
  21024855.462   -23708793.587 9 -18459066.40247  21024855.885    21024868.5254
  24078650.009    -2499367.132 8  -1948539.96645  24078650.007    24078668.1514
  21854770.110   -20147181.676 9 -15665360.07847  21854770.188    21854782.5884
  24390022.887    22107324.620 7  17212977.54045  24390022.528    24390045.4884
  21239064.387    -9997442.542 9  -7790157.35247  21239064.062    21239075.9734
 00  3  1 20  6  0.0000000  0  7 24 02 04 26 09 08 07
  23350440.038    -8135757.524 8  -5972411.66445  23350440.227    23350460.7434
  21937529.665     1604132.738 8   1237749.37647  21937529.364    21937543.2614
  21012464.930   -23773905.714 9 -18509803.02147  21012465.353    21012477.9404
  24092469.261    -2426746.249 8  -1891952.42545  24092469.600    24092487.6934
  21843147.149   -20208260.246 9 -15712953.69747  21843147.244    21843159.6504
  24411872.449    22222142.036 7  17302445.25245  24411872.011    24411895.1714
  21248238.429    -9949232.553 9  -7752591.15147  21248238.111    21248250.0104
 00  3  1 20  6 30.0000000  0  7 24 02 04 26 09 08 07
  23330131.220    -8242479.350 8  -6055571.22345  23330131.507    23330151.8854
  21945121.402     1644027.232 9   1268835.92447  21945121.109    21945135.0124
  21000158.538   -23838575.497 9 -18560194.96447  21000158.983    21000171.5624
  24106310.540    -2354010.086 8  -1835275.06945  24106310.888    24106329.0434
  21831603.512   -20268922.319 9 -15760222.76647  21831603.585    21831615.9504
  24433730.570    22337004.580 7  17391948.09145  24433729.960    24433753.4784
  21257449.329    -9900828.780 9  -7714873.95547  21257449.034    21257460.9614
 00  3  1 20  7  0.0000000  0  8 24 02 04 05 26 09 08 07
  23309841.658    -8349101.014 8  -6138652.70645  23309841.943    23309862.1834
  21952753.780     1684135.134 8   1300088.75847  21952753.415    21952767.3294
  20987938.973   -23902789.470 9 -18610231.73147  20987939.392    20987951.9654
  24584281.948    -7036889.989 7  -5466329.84845  24584281.807    24584300.0024
  24120173.292    -2281161.816 8  -1778510.35245  24120173.581    24120191.8714
  21820140.336   -20329160.966 9 -15807161.89647  21820140.461    21820152.7724
  24455597.721    22451916.931 7  17481489.76645  24455597.282    24455620.8624
  21266697.497    -9852229.952 9  -7677004.76447  21266697.182    21266709.0674
 00  3  1 20  7 30.0000000  0  8 24 02 04 05 26 09 08 07
  23289568.848    -8455634.274 8  -6221665.30845  23289569.048    23289589.1774
  21960428.533     1724466.681 8   1331515.85647  21960428.202    21960442.1464
  20975805.655   -23966550.618 9 -18659915.64647  20975806.022    20975818.5514
  24568388.611    -7120409.337 7  -5531409.78145  24568388.390    24568406.7024
  24134057.260    -2208200.827 7  -1721657.81045  24134057.650    24134076.0574
  21808757.806   -20388976.433 9 -15853771.26847  21808757.911    21808770.1954
  24477471.887    22566863.973 7  17571058.44745  24477471.338    24477494.8354
  21275980.817    -9803446.076 9  -7638991.38347  21275980.495    21275992.3994
 00  3  1 20  8  0.0000000  0  8 24 02 04 05 26 09 08 07
  23269322.196    -8562029.279 8  -6304570.16345  23269322.565    23269342.5464
  21968156.889     1765079.360 8   1363162.03247  21968156.551    21968170.5274
  20963770.490   -24029795.118 9 -18709196.98447  20963770.864    20963783.3944
  24552491.841    -7203946.775 7  -5596503.74845  24552491.574    24552510.0724
  24147971.880    -2135079.002 7  -1664679.93845  24147972.357    24147990.9374
  21797463.035   -20448330.326 9 -15900020.97347  21797463.160    21797475.4044
  24499357.805    22681876.330 7  17660678.11445  24499357.588    24499381.3594
  21285305.353    -9754445.168 9  -7600808.88747  21285305.080    21285316.9304
 00  3  1 20  8 30.0000000  0  8 24 02 04 05 26 09 08 07
  23249101.079    -8668290.913 8  -6387371.09445  23249101.332    23249121.2434
  21975937.548     1805966.914 8   1395022.39447  21975937.195    21975951.2524
  20951833.498   -24092523.728 9 -18758076.33047  20951833.917    20951846.3584
  24536592.530    -7287496.701 7  -5661607.48945  24536592.411    24536611.1104
  24161914.370    -2061813.528 8  -1607590.13545  24161914.555    24161933.1064
  21786255.004   -20507229.000 9 -15945915.96047  21786255.099    21786267.3004
  24521256.307    22796952.253 8  17750347.26645  24521256.056    24521280.2864
  21294668.582    -9705241.278 9  -7562468.22447  21294668.298    21294680.1794
 00  3  1 20  9  0.0000000  0  8 24 02 04 05 26 09 08 07
  23228903.000    -8774431.365 8  -6470077.59645  23228903.185    23228923.0514
  21983770.677     1847129.955 8   1427097.42947  21983770.322    21983784.4134
  20939995.292   -24154733.539 9 -18806551.41147  20939995.723    20940008.1074
  24520691.698    -7371056.339 7  -5726718.77645  24520691.568    24520710.1054
  24175879.076    -1988429.603 8  -1550408.03545  24175879.247    24175897.7794
  21775132.494   -20565677.750 9 -15991460.35447  21775132.609    21775144.8024
  24543164.964    22912078.125 7  17840055.33145  24543164.101    24543188.2874
  21304067.923    -9655847.646 9  -7523979.70947  21304067.641    21304079.4934
 00  3  1 20  9 30.0000000  0  7 24 02 04 05 26 09 07
  23208739.723    -8880388.669 8  -6552641.37545  23208740.005    23208759.7454
  21991668.101     1888630.941 8   1459435.79247  21991667.775    21991681.8214
  20928266.936   -24216366.157 9 -18854576.73847  20928267.362    20928279.7064
  24504802.738    -7454553.997 7  -5791781.74245  24504802.388    24504820.9484
  24189876.693    -1914870.354 7  -1493089.30045  24189877.216    24189895.8814
  21764106.480   -20623619.483 9 -16036609.67047  21764106.583    21764118.7724
  21313511.477    -9606221.565 9  -7485310.06747  21313511.163    21313523.0304
 00  3  1 20 10  0.0000000  0  7 24 02 04 05 26 09 07
  23188595.531    -8986246.217 8  -6635127.41545  23188595.700    23188615.4184
  21999606.351     1930345.881 8   1491940.86547  21999606.029    21999619.9954
  20916630.646   -24277514.812 9 -18902224.94247  20916631.048    20916643.3684
  24488907.345    -7538084.122 7  -5856870.02145  24488907.173    24488925.4024
  24203887.083    -1841244.023 7  -1435718.31945  24203887.926    24203906.6784
  21753160.141   -20681142.129 9 -16081432.42747  21753160.291    21753172.4784
  21322980.719    -9556460.250 9  -7446535.04647  21322980.428    21322992.2724
 00  3  1 20 10 30.0000000  0  7 24 02 04 05 26 09 07
  23168474.141    -9091983.339 8  -6717519.61245  23168474.319    23168494.0034
  22007584.940     1972273.045 8   1524611.28947  22007584.596    22007598.5524
  20905086.187   -24338180.877 9 -18949497.10447  20905086.630    20905098.9394
  24473010.300    -7621623.817 7  -5921965.71945  24473009.938    24473028.2894
  24217909.440    -1767556.194 8  -1378299.41045  24217910.279    24217929.1334
  21742297.157   -20738226.972 9 -16125914.03547  21742297.341    21742309.5044
  21332478.380    -9506550.049 9  -7407644.01547  21332478.103    21332489.9294
 00  3  1 20 11  0.0000000  0  7 24 02 04 05 26 09 07
  23148377.809    -9197589.322 8  -6799809.62245  23148377.922    23148397.3914
  22015606.945     2014428.573 8   1557459.67847  22015606.573    22015620.6204
  20893633.467   -24398365.027 9 -18996393.74347  20893633.878    20893646.1724
  24457109.911    -7705179.749 7  -5987074.09245  24457109.685    24457128.1204
  24231946.996    -1693789.988 8  -1320819.43345  24231947.691    24231966.5294
  21731519.232   -20794865.415 9 -16170047.80747  21731519.362    21731531.4934
  21342006.808    -9456478.167 9  -7368627.01347  21342006.516    21342018.3894
 00  3  1 20 11 30.0000000  0  7 24 02 04 05 26 09 07
  23128309.333    -9303048.373 8  -6881985.11446  23128309.425    23128328.9434
  22023671.896     2056810.485 8   1590484.45547  22023671.570    22023685.7334
  20882268.109   -24458089.839 9 -19042932.45247  20882268.547    20882280.8294
  24441203.807    -7788767.340 7  -6052207.10545  24441203.347    24441221.8514
  24245996.902    -1619957.567 7  -1263287.84445  24245997.564    24246016.5754
  21720824.590   -20851065.506 9 -16213839.99347  21720824.776    21720836.8884
  21351568.286    -9406232.490 9  -7329474.57947  21351567.987    21351579.8714
 00  3  1 20 12  0.0000000  0  7 24 02 04 05 26 09 07
  23108269.885    -9408354.182 8  -6964041.22146  23108270.098    23108289.5704
  22031779.553     2099416.388 8   1623683.76247  22031779.266    22031793.4744
  20870991.344   -24517349.155 9 -19089108.44247  20870991.843    20871004.1084
  24425286.067    -7872414.602 7  -6117386.59445  24425285.717    24425304.0904
  24260055.397    -1546079.254 8  -1205720.50045  24260056.191    24260075.3714
  21710213.096   -20906828.930 9 -16257291.93047  21710213.302    21710225.3634
  21361163.942    -9355807.283 9  -7290182.25347  21361163.634    21361175.5134
 00  3  1 20 12 30.0000000  0  7 24 02 04 05 26 09 07
  23088257.535    -9513518.854 8  -7045987.34446  23088257.723    23088277.0574
  22039934.081     2142267.630 8   1657074.26647  22039933.771    22039947.8674
  20859804.970   -24576133.829 9 -19134914.56547  20859805.447    20859817.6774
  24409355.408    -7956128.699 7  -6182618.21345  24409355.256    24409373.6904
  24274124.061    -1472149.752 8  -1148113.26145  24274124.722    24274143.7954
  21699685.853   -20962149.731 9 -16300398.96347  21699686.090    21699698.0854
  21370795.100    -9305195.185 9  -7250744.30147  21370794.777    21370806.6534
 00  3  1 20 13  0.0000000  0  7 24 02 04 05 26 09 07
  23068271.728    -9618544.040 8  -7127824.77446  23068271.768    23068291.0394
  22048136.275     2185370.147 8   1690660.54647  22048135.953    22048150.1384
  20848713.304   -24634420.751 9 -19180332.83747  20848713.756    20848725.9104
  24393408.938    -8039927.714 7  -6247915.97545  24393408.665    24393427.2124
  24288204.539    -1398158.544 8  -1090457.95845  24288205.014    24288223.8754
  21689244.061   -21017021.918 9 -16343156.43447  21689244.249    21689256.1714
  21380463.706    -9254386.329 9  -7211153.03347  21380463.403    21380475.2914
 00  3  1 20 13 30.0000000  0  7 24 02 04 05 26 09 07
  23048317.349    -9723403.174 8  -7209532.81346  23048317.503    23048336.6844
  22056387.454     2228729.823 8   1724447.22447  22056387.141    22056401.2294
  20837724.871   -24692165.159 9 -19225328.36447  20837725.273    20837737.3634
  24377452.738    -8123777.070 7  -6313252.95745  24377452.502    24377471.0144
  24302297.932    -1324098.124 8  -1032748.73345  24302298.508    24302317.4074
  21678891.872   -21071422.510 9 -16385546.43847  21678892.065    21678903.9934
  21390172.121    -9203368.288 9  -7171398.77247  21390171.812    21390183.7414
 00  3  1 20 14  0.0000000  0  7 24 02 04 05 26 09 07
  23028395.437    -9828092.580 8  -7291108.61146  23028395.484    23028414.6194
  22064690.693     2272363.208 8   1758447.17347  22064690.393    22064704.4374
  20826847.521   -24749325.278 9 -19269868.61247  20826847.973    20826860.0444
  24361495.465    -8207632.776 7  -6378594.91045  24361495.298    24361513.6274
  24316413.636    -1249920.700 8   -974948.32545  24316414.176    24316433.0874
  21668635.013   -21125322.473 9 -16427546.33947  21668635.166    21668647.1184
  21399921.050    -9152137.798 9  -7131478.96647  21399920.743    21399932.6544
 00  3  1 20 14 30.0000000  0  7 24 02 04 05 26 09 07
  23008506.942    -9932606.311 8  -7372547.52046  23008506.963    23008526.0164
  22073048.181     2316281.814 8   1792669.36647  22073047.857    22073061.9674
  20816082.190   -24805896.975 9 -19313950.35047  20816082.666    20816094.7124
  24345542.353    -8291465.833 7  -6443919.19745  24345542.302    24345560.5534
  24330555.379    -1175607.329 8   -917042.00645  24330555.686    24330574.5634
  21658474.130   -21178718.026 9 -16469153.19447  21658474.270    21658486.2304
  21409710.393    -9100694.611 9  -7091393.43147  21409710.076    21409722.0014
 00  3  1 20 15  0.0000000  0  7 24 02 04 05 26 09 07
  22988654.909   -10036928.123 8  -7453836.88946  22988654.926    22988673.8464
  22081459.204     2360482.104 8   1827111.05247  22081458.894    22081473.1274
  20805428.905   -24861880.240 9 -19357573.57047  20805429.321    20805441.3454
  24329594.160    -8375273.848 7  -6509223.99745  24329593.963    24329612.3174
  24344720.093    -1101171.806 8   -859040.52545  24344720.361    24344739.3244
  21648406.271   -21231624.076 9 -16510378.62147  21648406.490    21648418.4254
  21419537.069    -9049055.213 9  -7051155.00847  21419536.783    21419548.7414
 00  3  1 20 15 30.0000000  0  7 24 02 04 05 26 09 07
  22968837.583   -10141068.617 8  -7534984.96746  22968837.405    22968856.2474
  22089922.534     2404957.034 8   1861766.74847  22089922.255    22089936.5004
  20794882.217   -24917303.242 9 -19400760.22047  20794882.623    20794894.5874
  24313651.584    -8459052.159 7  -6574505.63245  24313651.480    24313669.8394
  24358905.489    -1026625.821 7   -800952.95645  24358906.000    24358925.0474
  21638431.091   -21284044.210 9 -16551225.41047  21638431.266    21638443.1694
  21429398.568    -8997232.998 9  -7010774.12647  21429398.256    21429410.2374
 00  3  1 20 16  0.0000000  0  7 24 02 04 05 26 09 07
  22949051.835   -10245041.841 8  -7616002.73546  22949051.723    22949070.4904
  22098436.870     2449699.854 8   1896631.17847  22098436.610    22098450.8464
  20784436.910   -24972193.215 9 -19443531.53247  20784437.333    20784449.2704
  24297708.377    -8542833.131 7  -6639789.40145  24297708.377    24297726.5474
  24373109.274     -951983.863 7   -742790.57845  24373109.877    24373129.0894
  21628546.479   -21335988.277 9 -16591701.24147  21628546.589    21628558.4654
  21439291.137    -8945247.384 9  -6970265.92447  21439290.798    21439302.7974
 00  3  1 20 16 30.0000000  0  7 24 02 04 05 26 09 07
  22929298.786   -10348843.058 8  -7696886.48346  22929298.738    22929317.4164
  22107000.784     2494702.969 8   1931698.44447  22107000.482    22107014.7034
  20774090.653   -25026562.791 9 -19485897.33947  20774091.076    20774103.0264
  24281758.663    -8626649.778 7  -6705100.91245  24281758.598    24281776.5264
  24387325.668     -877276.588 8   -684577.32845  24387326.444    24387345.6464
  21618750.845   -21387464.514 9 -16631812.52547  21618750.930    21618762.7284
  21449213.685    -8893103.965 9  -6929634.75847  21449213.428    21449225.4094
 00  3  1 20 17  0.0000000  0  7 24 02 04 05 26 09 07
  22909579.347   -10452468.282 8  -7777633.09946  22909579.309    22909597.8644
  22115612.732     2539958.349 8   1966962.26947  22115612.420    22115626.5984
  20763843.350   -25080412.106 9 -19527857.76047  20763843.800    20763855.7584
  24265800.975    -8710506.745 7  -6770443.85645  24265800.866    24265818.9194
  24401553.813     -802508.380 8   -626316.60145  24401554.525    24401573.9094
  21609047.754   -21438454.021 9 -16671544.54747  21609047.908    21609059.6344
  21459167.057    -8840799.062 9  -6888877.76447  21459166.768    21459178.7644
 00  3  1 20 17 30.0000000  0  7 24 02 04 05 26 09 07
  22889894.236   -10555913.676 8  -7858239.58946  22889894.037    22889912.5074
  22124273.900     2585472.723 8   2002427.92447  22124273.594    22124287.7294
  20753693.888   -25133747.436 9 -19569417.66747  20753694.307    20753706.2504
  24249835.929    -8794402.652 7  -6835817.14645  24249835.868    24249853.8304
  24415795.636     -727669.956 8   -568001.15945  24415796.075    24415815.4724
  21599439.624   -21488944.964 9 -16710888.07547  21599439.739    21599451.4594
  21469152.168    -8788327.219 9  -6847990.68547  21469151.875    21469163.9164
 00  3  1 20 18  0.0000000  0  7 24 02 04 05 26 09 07
  22870245.124   -10659168.539 8  -7938697.64546  22870245.029    22870263.4004
  22132985.180     2631250.606 8   2038098.89647  22132984.883    22132999.0314
  20743643.395   -25186562.508 9 -19610572.18547  20743643.854    20743655.8124
  24233863.350    -8878340.288 7  -6901222.95245  24233862.866    24233880.8254
  24430049.282     -652768.777 7   -509636.81245  24430049.499    24430068.8734
  21589924.658   -21538946.178 9 -16749850.00547  21589924.756    21589936.4944
  21479167.715    -8735695.533 9  -6806979.05447  21479167.442    21479179.4954
 00  3  1 20 18 30.0000000  0  7 24 02 04 05 26 09 07
  22850630.564   -10762242.386 8  -8019014.63746  22850630.419    22850648.7974
  22141745.574     2677286.450 8   2073970.87747  22141745.278    22141759.5234
  20733688.594   -25238875.030 9 -19651335.11147  20733689.046    20733701.0274
  24217884.967    -8962305.968 7  -6966650.64145  24217884.548    24217902.4304
  24444311.551     -577819.757 8   -451235.18545  24444312.065    24444331.2324
  21580501.507   -21588464.959 9 -16788436.00347  21580501.610    21580513.3454
  21489212.926    -8682907.977 9  -6765845.96147  21489212.638    21489224.6764
 00  3  1 20 19  0.0000000  0  7 24 02 04 05 26 09 07
  22831048.897   -10865143.840 8  -8099197.31546  22831048.675    22831067.0084
  22150552.919     2723568.862 8   2110034.98947  22150552.592    22150566.8994
  20723827.081   -25290697.527 9 -19691716.20347  20723827.533    20723839.4854
  24201901.221    -9046299.876 7  -7032100.32845  24201900.993    24201918.7184
  24458579.897     -502838.765 7   -392808.66645  24458580.477    24458599.7114
  21571167.990   -21637512.931 9 -16826655.14447  21571168.041    21571179.7674
  21499286.041    -8629973.499 9  -6724598.38947  21499285.754    21499297.8254
